[[{"header":{"parameterUnit":"m.s-1","parameterCategory":1,"la1":30.6,"la2":29.2853,"lo1":-89.7004,"lo2":-87.6739,"dy":0.0162,"dx":0.0183,"nx":112,"ny":82,"refTime":"2023-08-17T06:00:00:Z","depth":0,"parameterNumber":2,"parameterNumberName":"U-component_of_WINDS"},"data":[0.0,0.0,0.0,0.0,0.0,0.0,0.0,0.0,0.0,0.0,0.0,0.0,0.0,0.0,0.0,0.0,0.0,0.0,0.0,0.0,0.0,0.0,0.0,0.0,0.0,0.0,0.0,0.0,0.0,0.0,0.0,0.0,0.0,0.0,0.0,0.0,0.0,0.0,0.0,0.0,0.0,0.0,0.0,0.0,0.0,0.0,0.0,0.0,0.0,0.0,0.0,0.0,0.0,0.0,0.0,0.0,0.0,0.0,0.0,0.0,0.0,0.0,0.0,0.0,0.0,0.0,0.0,0.0,0.0,0.0,0.0,0.0,0.0,0.0,0.0,0.0,0.0,0.0,0.0,0.0,0.0,0.0,0.0,0.0,0.0,0.0,0.0,0.0,0.0,0.0,-2.4844,-2.5773,-2.6368,-2.6758,-2.6888,-2.628,-2.5531,-2.4756,0.0,0.0,0.0,0.0,0.0,0.0,0.0,0.0,0.0,0.0,0.0,0.0,0.0,0.0,0.0,0.0,0.0,0.0,0.0,0.0,0.0,0.0,0.0,0.0,0.0,0.0,0.0,0.0,0.0,0.0,0.0,0.0,0.0,0.0,0.0,0.0,0.0,0.0,0.0,0.0,0.0,0.0,0.0,0.0,0.0,0.0,0.0,0.0,0.0,0.0,0.0,0.0,0.0,0.0,0.0,0.0,0.0,0.0,0.0,0.0,0.0,0.0,0.0,0.0,0.0,0.0,0.0,0.0,0.0,0.0,0.0,0.0,0.0,0.0,0.0,0.0,0.0,0.0,0.0,0.0,0.0,0.0,0.0,0.0,0.0,0.0,0.0,0.0,0.0,0.0,0.0,0.0,0.0,0.0,0.0,0.0,0.0,0.0,0.0,0.0,0.0,0.0,0.0,0.0,-2.5013,-2.6553,-2.6219,-2.6163,-2.6832,-2.6172,-2.5432,-2.4729,0.0,0.0,0.0,0.0,0.0,0.0,0.0,0.0,0.0,0.0,0.0,0.0,0.0,0.0,0.0,0.0,0.0,0.0,0.0,0.0,0.0,0.0,0.0,0.0,0.0,0.0,0.0,0.0,0.0,0.0,0.0,0.0,0.0,0.0,0.0,0.0,0.0,0.0,0.0,0.0,0.0,0.0,0.0,0.0,0.0,0.0,0.0,0.0,0.0,0.0,0.0,0.0,0.0,0.0,0.0,0.0,0.0,0.0,0.0,0.0,0.0,0.0,0.0,0.0,0.0,0.0,0.0,0.0,0.0,0.0,0.0,0.0,0.0,0.0,0.0,0.0,0.0,0.0,0.0,0.0,0.0,0.0,0.0,0.0,0.0,0.0,0.0,0.0,0.0,0.0,0.0,0.0,0.0,0.0,0.0,0.0,0.0,0.0,0.0,0.0,0.0,0.0,0.0,-2.519,-2.6043,-2.6814,-2.6572,-2.6498,-2.6869,-2.5764,-2.4983,-2.482,-2.4801,0.0,0.0,0.0,0.0,0.0,0.0,0.0,0.0,0.0,0.0,0.0,0.0,0.0,0.0,0.0,0.0,0.0,0.0,0.0,0.0,0.0,0.0,0.0,0.0,0.0,0.0,0.0,0.0,0.0,0.0,0.0,0.0,0.0,0.0,0.0,0.0,0.0,0.0,0.0,0.0,0.0,0.0,0.0,0.0,0.0,0.0,0.0,0.0,0.0,0.0,0.0,0.0,0.0,0.0,0.0,0.0,0.0,0.0,0.0,0.0,0.0,0.0,0.0,0.0,0.0,0.0,0.0,0.0,0.0,0.0,0.0,0.0,0.0,0.0,0.0,0.0,0.0,0.0,0.0,0.0,0.0,0.0,0.0,0.0,0.0,0.0,0.0,0.0,0.0,0.0,0.0,0.0,0.0,0.0,0.0,0.0,0.0,0.0,0.0,0.0,0.0,0.0,-2.5532,-2.6405,-2.6591,-2.6442,-2.6405,-2.6591,-2.5317,-2.4613,-2.4888,-2.4779,0.0,0.0,0.0,0.0,0.0,0.0,0.0,0.0,0.0,0.0,0.0,0.0,0.0,0.0,0.0,0.0,0.0,0.0,0.0,0.0,0.0,0.0,0.0,0.0,0.0,0.0,0.0,0.0,0.0,0.0,0.0,0.0,0.0,0.0,0.0,0.0,0.0,0.0,0.0,0.0,0.0,0.0,0.0,0.0,0.0,0.0,0.0,0.0,0.0,0.0,0.0,0.0,0.0,0.0,0.0,0.0,0.0,0.0,0.0,0.0,0.0,0.0,0.0,0.0,0.0,0.0,0.0,0.0,0.0,0.0,0.0,0.0,0.0,0.0,0.0,0.0,0.0,0.0,0.0,0.0,0.0,0.0,0.0,0.0,0.0,0.0,0.0,0.0,0.0,0.0,0.0,0.0,0.0,0.0,0.0,0.0,0.0,0.0,0.0,0.0,0.0,0.0,-2.4549,-2.4964,-2.5708,-2.5113,-2.4964,-2.5726,-2.5001,-2.4613,-2.4888,-2.4779,0.0,0.0,0.0,0.0,0.0,0.0,0.0,0.0,0.0,0.0,0.0,0.0,0.0,0.0,0.0,0.0,0.0,0.0,0.0,0.0,0.0,0.0,0.0,0.0,0.0,0.0,0.0,0.0,0.0,0.0,0.0,0.0,0.0,0.0,0.0,0.0,0.0,0.0,0.0,0.0,0.0,0.0,0.0,0.0,0.0,0.0,0.0,0.0,0.0,0.0,0.0,0.0,0.0,0.0,0.0,0.0,0.0,0.0,0.0,0.0,0.0,0.0,0.0,0.0,0.0,0.0,0.0,0.0,0.0,0.0,0.0,0.0,0.0,0.0,0.0,0.0,0.0,0.0,0.0,0.0,0.0,0.0,0.0,0.0,0.0,0.0,0.0,0.0,0.0,0.0,0.0,0.0,0.0,0.0,0.0,0.0,0.0,0.0,0.0,0.0,0.0,0.0,-2.4901,-2.5355,0.0,-2.5429,-2.5373,-2.5671,-2.504,-2.4668,-2.4772,0.0,0.0,0.0,0.0,0.0,0.0,0.0,0.0,0.0,0.0,0.0,0.0,0.0,0.0,0.0,0.0,0.0,0.0,0.0,0.0,0.0,0.0,0.0,0.0,0.0,0.0,0.0,0.0,0.0,0.0,0.0,0.0,0.0,0.0,0.0,0.0,0.0,0.0,0.0,0.0,0.0,0.0,0.0,0.0,0.0,0.0,0.0,0.0,0.0,0.0,0.0,0.0,0.0,0.0,0.0,0.0,0.0,0.0,0.0,0.0,0.0,0.0,0.0,0.0,0.0,0.0,0.0,0.0,0.0,0.0,0.0,0.0,0.0,0.0,0.0,0.0,0.0,0.0,0.0,0.0,0.0,0.0,0.0,0.0,0.0,0.0,0.0,0.0,0.0,0.0,0.0,0.0,0.0,0.0,0.0,0.0,0.0,0.0,0.0,0.0,0.0,0.0,-2.4403,-2.4938,-2.5317,0.0,-2.5317,-2.5317,-2.5317,-2.4949,-2.47,-2.47,0.0,0.0,0.0,0.0,0.0,0.0,0.0,0.0,0.0,0.0,0.0,0.0,0.0,0.0,0.0,0.0,0.0,0.0,0.0,0.0,0.0,0.0,0.0,0.0,0.0,0.0,0.0,0.0,0.0,0.0,0.0,0.0,0.0,0.0,0.0,0.0,0.0,0.0,0.0,0.0,0.0,0.0,0.0,0.0,0.0,0.0,0.0,0.0,0.0,0.0,0.0,0.0,0.0,0.0,0.0,0.0,0.0,0.0,0.0,0.0,0.0,0.0,0.0,0.0,0.0,0.0,0.0,0.0,0.0,0.0,0.0,0.0,0.0,0.0,0.0,0.0,0.0,0.0,0.0,0.0,0.0,0.0,0.0,0.0,0.0,0.0,0.0,0.0,0.0,0.0,0.0,0.0,0.0,0.0,0.0,0.0,0.0,0.0,0.0,0.0,0.0,0.0,-2.4403,-2.4456,-2.45,-2.45,-2.45,-2.45,-2.45,-2.4613,-2.47,0.0,0.0,0.0,0.0,0.0,0.0,0.0,0.0,0.0,0.0,0.0,0.0,0.0,0.0,0.0,0.0,0.0,0.0,0.0,0.0,0.0,0.0,0.0,0.0,0.0,0.0,0.0,0.0,0.0,0.0,0.0,0.0,0.0,0.0,0.0,0.0,0.0,0.0,0.0,0.0,0.0,0.0,0.0,0.0,0.0,0.0,0.0,0.0,0.0,0.0,0.0,0.0,0.0,0.0,0.0,0.0,0.0,0.0,0.0,0.0,0.0,0.0,0.0,0.0,0.0,0.0,0.0,0.0,0.0,0.0,0.0,0.0,0.0,0.0,0.0,0.0,0.0,0.0,0.0,0.0,0.0,0.0,0.0,0.0,0.0,0.0,0.0,0.0,0.0,0.0,0.0,0.0,0.0,0.0,0.0,0.0,0.0,0.0,0.0,0.0,0.0,0.0,0.0,-2.4465,-2.4491,-2.45,-2.45,-2.45,-2.45,-2.45,-2.4613,-2.47,-2.47,0.0,0.0,0.0,0.0,0.0,0.0,0.0,0.0,0.0,0.0,0.0,0.0,0.0,0.0,0.0,0.0,0.0,0.0,0.0,0.0,0.0,0.0,0.0,0.0,0.0,0.0,0.0,0.0,0.0,0.0,0.0,0.0,0.0,0.0,0.0,0.0,0.0,0.0,0.0,0.0,0.0,0.0,0.0,0.0,0.0,0.0,0.0,0.0,0.0,0.0,0.0,0.0,0.0,0.0,0.0,0.0,0.0,0.0,0.0,0.0,0.0,0.0,0.0,0.0,0.0,0.0,0.0,0.0,0.0,0.0,0.0,0.0,0.0,0.0,0.0,0.0,0.0,0.0,0.0,0.0,0.0,0.0,0.0,0.0,0.0,0.0,0.0,0.0,0.0,0.0,0.0,0.0,0.0,0.0,0.0,0.0,0.0,0.0,0.0,0.0,0.0,0.0,-2.4918,-2.4704,-2.4611,-2.4946,-2.4685,-2.45,-2.45,-2.4613,-2.47,-2.47,0.0,0.0,0.0,0.0,0.0,0.0,0.0,0.0,0.0,0.0,0.0,0.0,0.0,0.0,0.0,0.0,0.0,0.0,0.0,0.0,0.0,0.0,0.0,0.0,0.0,0.0,0.0,0.0,0.0,0.0,0.0,0.0,0.0,0.0,0.0,0.0,0.0,0.0,0.0,0.0,0.0,0.0,0.0,0.0,0.0,0.0,0.0,0.0,0.0,0.0,0.0,0.0,0.0,0.0,0.0,0.0,0.0,0.0,0.0,0.0,0.0,0.0,0.0,0.0,0.0,0.0,0.0,0.0,0.0,0.0,0.0,0.0,0.0,0.0,0.0,0.0,0.0,0.0,0.0,0.0,0.0,0.0,0.0,0.0,0.0,0.0,0.0,0.0,0.0,0.0,0.0,0.0,0.0,0.0,0.0,0.0,0.0,0.0,0.0,0.0,0.0,0.0,-2.5615,-2.5057,-2.489,-2.5615,-2.4983,-2.45,-2.45,-2.4615,-2.4692,-2.4723,0.0,0.0,0.0,0.0,0.0,0.0,0.0,0.0,0.0,0.0,0.0,0.0,0.0,0.0,0.0,0.0,0.0,0.0,0.0,0.0,0.0,0.0,0.0,0.0,0.0,0.0,0.0,0.0,0.0,0.0,0.0,0.0,0.0,0.0,0.0,0.0,0.0,0.0,0.0,0.0,0.0,0.0,0.0,0.0,0.0,0.0,0.0,0.0,0.0,0.0,0.0,0.0,0.0,0.0,0.0,0.0,0.0,0.0,0.0,0.0,-3.7206,0.0,0.0,0.0,0.0,0.0,0.0,0.0,0.0,0.0,0.0,0.0,0.0,0.0,0.0,0.0,0.0,0.0,0.0,0.0,0.0,0.0,0.0,0.0,0.0,0.0,0.0,0.0,0.0,0.0,0.0,0.0,0.0,0.0,0.0,0.0,0.0,0.0,0.0,0.0,0.0,0.0,-2.5689,-2.5559,-2.5522,-2.5689,-2.4983,-2.45,-2.45,-2.4534,-2.4629,-2.484,-2.4915,0.0,0.0,0.0,0.0,0.0,0.0,0.0,0.0,0.0,0.0,0.0,0.0,0.0,0.0,0.0,0.0,0.0,0.0,0.0,0.0,0.0,0.0,0.0,0.0,0.0,0.0,0.0,0.0,0.0,0.0,0.0,0.0,0.0,0.0,0.0,0.0,0.0,0.0,0.0,0.0,0.0,0.0,0.0,0.0,0.0,0.0,0.0,0.0,0.0,0.0,0.0,0.0,0.0,0.0,0.0,0.0,0.0,0.0,0.0,0.0,-3.8711,0.0,0.0,0.0,0.0,0.0,0.0,0.0,0.0,0.0,0.0,0.0,0.0,0.0,0.0,0.0,0.0,0.0,0.0,0.0,0.0,0.0,0.0,0.0,0.0,0.0,0.0,0.0,0.0,0.0,0.0,0.0,0.0,0.0,0.0,0.0,0.0,0.0,0.0,0.0,0.0,-2.6795,-2.6516,-2.6423,-2.6814,-2.5801,-2.5076,-2.5076,-2.4781,-2.4673,-2.4888,-2.4949,0.0,0.0,0.0,0.0,0.0,0.0,0.0,0.0,0.0,0.0,0.0,0.0,0.0,0.0,0.0,0.0,0.0,0.0,0.0,0.0,0.0,0.0,0.0,0.0,0.0,0.0,0.0,0.0,0.0,0.0,0.0,0.0,0.0,0.0,0.0,0.0,0.0,0.0,0.0,0.0,0.0,0.0,0.0,0.0,0.0,0.0,0.0,0.0,0.0,0.0,0.0,0.0,0.0,-4.1702,-4.2017,-4.2017,-4.2017,-4.2017,-4.1924,-4.0401,-3.9584,-3.9324,-3.9324,0.0,0.0,0.0,0.0,0.0,0.0,0.0,0.0,0.0,0.0,0.0,0.0,0.0,0.0,0.0,0.0,0.0,0.0,0.0,0.0,0.0,0.0,0.0,0.0,-3.1905,-3.1608,-3.014,0.0,0.0,0.0,0.0,0.0,0.0,0.0,0.0,0.0,0.0,0.0,-2.8003,-2.752,-2.7352,-2.8021,-2.6795,-2.5912,-2.5912,-2.5296,-2.4975,-2.5096,-2.5095,-2.516,0.0,0.0,0.0,0.0,0.0,0.0,0.0,0.0,0.0,0.0,0.0,0.0,0.0,0.0,0.0,0.0,0.0,0.0,0.0,0.0,0.0,0.0,0.0,0.0,0.0,0.0,0.0,0.0,0.0,0.0,0.0,0.0,-3.8988,-3.9199,0.0,0.0,0.0,0.0,0.0,0.0,0.0,0.0,0.0,0.0,0.0,0.0,0.0,-4.1609,-4.2314,-4.3113,-4.3522,-4.3522,-4.3633,-4.367,-4.367,-4.367,-4.367,-4.3633,-4.2705,0.0,-4.0215,-4.0215,0.0,0.0,0.0,0.0,0.0,0.0,0.0,0.0,0.0,0.0,0.0,0.0,0.0,0.0,0.0,0.0,0.0,0.0,0.0,0.0,0.0,0.0,-3.341,-3.2109,-3.2332,-3.2593,0.0,-3.1485,-3.1262,-3.0586,-3.0426,0.0,0.0,0.0,0.0,0.0,0.0,0.0,-2.8096,-2.8003,-2.7984,-2.8096,-2.7297,-2.6739,-2.6739,-2.6138,-2.5796,-2.5934,-2.5412,-2.516,-2.5284,-2.5308,0.0,0.0,0.0,0.0,0.0,0.0,0.0,0.0,0.0,0.0,0.0,0.0,0.0,0.0,0.0,0.0,0.0,0.0,0.0,0.0,0.0,0.0,0.0,0.0,0.0,0.0,0.0,0.0,0.0,-3.8301,-3.9256,-3.9248,-3.9229,-3.9229,0.0,0.0,0.0,0.0,0.0,0.0,0.0,0.0,0.0,-4.2389,-4.276,-4.3113,-4.3466,-4.4302,-4.4729,-4.4729,-4.5194,-4.5417,-4.5417,-4.5417,-4.5417,-4.5379,-4.5026,-4.4209,-4.3002,-4.1144,-3.997,-3.9287,0.0,0.0,0.0,0.0,-3.7949,-3.7912,-3.7015,-3.6773,0.0,-3.6216,0.0,0.0,0.0,0.0,0.0,0.0,0.0,0.0,0.0,0.0,-3.3466,-3.3224,-3.3417,-3.3577,-3.3224,-3.315,-3.2778,0.0,-3.0902,-3.0493,-3.014,0.0,0.0,0.0,0.0,-2.882,-2.882,-2.882,-2.882,-2.882,-2.8077,-2.7575,-2.7575,-2.7064,-2.6779,-2.6827,-2.6262,-2.5978,-2.6038,-2.6019,-2.6212,0.0,0.0,0.0,0.0,0.0,0.0,0.0,0.0,0.0,0.0,0.0,0.0,0.0,0.0,0.0,0.0,0.0,0.0,0.0,0.0,0.0,0.0,0.0,0.0,0.0,0.0,0.0,0.0,-3.8516,-3.9416,-3.9133,-3.9472,-3.9658,0.0,0.0,0.0,0.0,0.0,0.0,-4.2166,-4.2779,-4.3485,-4.4302,-4.4525,-4.4748,-4.4934,-4.5788,-4.6215,-4.6234,-4.6828,-4.7107,-4.7107,-4.7107,-4.7107,-4.7107,-4.6903,-4.6475,-4.5677,-4.2593,-4.12,-4.0921,-4.0067,-3.9602,-3.9361,-3.8748,-3.8785,-3.8934,-3.7726,-3.7559,-3.7745,-3.6736,-3.6142,-3.5696,-3.5033,0.0,0.0,0.0,0.0,-3.403,-3.442,-3.4098,-3.3733,-3.4104,-3.4197,-3.4197,-3.4197,-3.4197,-3.377,0.0,-3.1626,-3.1087,-3.066,0.0,0.0,0.0,0.0,-2.9471,-2.9675,-2.9527,-2.9396,-2.9396,-2.8852,-2.8471,-2.844,-2.802,-2.7751,-2.7714,-2.7216,-2.6928,-2.6928,-2.6928,-2.7024,-2.7236,0.0,0.0,0.0,0.0,0.0,0.0,0.0,0.0,0.0,0.0,0.0,0.0,0.0,0.0,0.0,0.0,0.0,0.0,0.0,0.0,0.0,0.0,0.0,0.0,0.0,0.0,0.0,0.0,0.0,-3.9194,-4.0513,0.0,0.0,0.0,0.0,-4.2556,-4.2649,-4.302,-4.3838,-4.3912,-4.4339,-4.5212,-4.5974,-4.6735,-4.7516,-4.8314,-4.8723,-4.8723,-4.876,-4.8779,-4.8779,-4.8779,-4.8779,-4.8742,-4.798,-4.7627,-4.7386,-4.4859,-4.3373,-4.2593,-4.1776,-4.101,-4.0327,-4.0304,-3.977,-3.9082,-3.9008,-3.8507,-3.8005,-3.8692,-3.7894,-3.663,-3.6588,-3.6049,0.0,0.0,-3.6551,-3.6346,-3.5621,-3.5398,-3.5175,-3.4383,-3.4197,-3.4197,-3.4197,-3.4197,-3.3956,0.0,-3.2908,-3.2388,-3.0864,0.0,-3.053,-3.053,-2.988,-2.9675,-3.0437,-2.9861,-2.9396,-2.9396,-2.9465,-2.9476,-2.9343,-2.9015,-2.8746,-2.8551,-2.809,-2.7838,-2.7838,-2.7838,-2.8184,-2.8953,-2.828,0.0,0.0,0.0,0.0,0.0,0.0,0.0,0.0,0.0,0.0,0.0,0.0,0.0,0.0,0.0,0.0,0.0,0.0,0.0,0.0,0.0,0.0,0.0,0.0,0.0,0.0,0.0,0.0,-4.146,-4.2463,0.0,-4.2742,-4.2983,-4.3262,-4.3559,-4.4079,-4.4748,-4.5565,-4.6104,-4.6754,-4.759,-4.8407,-4.8946,-4.9243,-4.954,-4.967,-4.967,-4.915,-4.8909,-4.8909,-4.8909,-4.8909,-4.889,-4.8612,-4.8481,-4.837,-4.6958,-4.5268,-4.3485,-4.2686,-4.1869,-4.1163,-4.1163,-4.0643,-3.9937,-3.9937,-3.938,-3.8618,-3.8395,-3.7578,-3.6699,-3.6699,-3.6513,-3.6328,-3.6625,-3.6699,-3.663,-3.6346,-3.59,-3.5417,-3.512,-3.4606,-3.4197,-3.4197,-3.4197,-3.4123,-3.3826,-3.3343,-3.2816,-3.224,-3.1292,-3.0604,-3.0604,-2.9917,-2.9489,-2.9787,-2.9582,-2.9396,-2.9396,-2.9531,-2.958,-2.9522,-2.9618,-2.9641,-2.9572,-2.9008,-2.8665,-2.8665,-2.8665,-2.8819,-2.9088,-2.9371,-2.9236,0.0,0.0,0.0,0.0,0.0,0.0,0.0,0.0,0.0,0.0,0.0,0.0,0.0,0.0,0.0,0.0,0.0,0.0,0.0,0.0,0.0,0.0,0.0,0.0,0.0,0.0,-4.2723,-4.354,-4.4822,-4.5547,-4.5268,-4.5491,-4.5769,-4.6048,-4.6605,-4.7293,-4.811,-4.8667,-4.9187,-4.9726,-5.0265,-5.0543,-5.0543,-5.0265,-5.0098,-5.0098,-4.928,-4.8909,-4.8909,-4.8909,-4.8909,-4.8909,-4.8909,-4.8909,-4.8834,-4.8036,-4.6568,-4.4766,-4.3949,-4.2965,-4.1962,-4.1702,-4.1089,-4.0346,-4.0048,-3.9584,-3.9008,-3.8469,-3.7764,-3.7164,-3.7429,-3.7318,-3.7164,-3.7429,-3.7312,-3.7052,-3.6773,-3.6105,-3.5436,-3.5138,-3.4606,-3.4197,-3.4197,-3.4197,-3.4197,-3.4197,-3.377,-3.3231,-3.2704,-3.1942,-3.1236,-3.0679,-3.0381,-3.0103,-2.9842,-2.9805,-2.9725,-2.9499,-2.9617,-2.9707,-2.9707,-3.0007,-3.0176,-3.0089,-2.9742,-2.9544,-2.9544,-2.9544,-2.9544,-2.9544,-2.9813,-2.9696,-2.9123,0.0,0.0,0.0,0.0,0.0,0.0,0.0,0.0,0.0,0.0,0.0,0.0,0.0,0.0,0.0,0.0,0.0,0.0,0.0,0.0,0.0,0.0,0.0,-4.1789,-4.314,-4.4451,-4.5342,-4.7534,-4.8667,-4.7887,-4.8519,-4.9299,-5.0079,-5.019,-5.058,-5.1361,-5.1398,-5.1398,-5.1398,-5.1416,-5.1435,-5.1435,-5.058,-5.0153,-5.0135,-4.9299,-4.8909,-4.8909,-4.8909,-4.8909,-4.8909,-4.8909,-4.8909,-4.8834,-4.8054,-4.7256,-4.6457,-4.5621,-4.4283,-4.2742,-4.1962,-4.1144,-4.0323,-3.9417,-3.9101,-3.9101,-3.9101,-3.8562,-3.8079,-3.8859,-3.8562,-3.8098,-3.8878,-3.8544,-3.7745,-3.6959,-3.6142,-3.5324,-3.4439,-3.4216,-3.4197,-3.4197,-3.4197,-3.4197,-3.4197,-3.4197,-3.3696,-3.2147,-3.25,-3.2481,-3.0902,-3.1329,0.0,-3.0734,-3.0615,-3.0354,-2.9711,-2.9794,-2.991,-2.991,-3.0221,-3.0311,-3.0122,-3.0299,-3.0404,-3.0404,-3.0404,-3.0404,-3.0404,-2.9569,-2.9186,-2.9244,0.0,0.0,0.0,0.0,0.0,0.0,0.0,0.0,0.0,0.0,0.0,0.0,0.0,0.0,0.0,0.0,0.0,0.0,0.0,0.0,0.0,0.0,-4.3574,-4.4222,-4.5693,-4.72,-4.8612,-4.993,-5.0636,-5.0395,-5.058,-5.0803,-5.1026,-5.1063,-5.1175,-5.1398,-5.1398,-5.1398,-5.1398,-5.1974,-5.2271,-5.2271,-5.1454,-5.1045,-5.1026,-4.9596,-4.8909,-4.8909,-4.8909,-4.8909,-4.8909,-4.8909,-4.8909,-4.889,-4.8667,-4.8091,-4.7237,-4.5844,-4.4618,-4.3633,-4.3429,-4.2463,-4.1051,-3.9602,-3.9101,-3.9101,-3.9101,-3.8952,-3.8804,-3.9027,-3.8952,-3.8822,-3.9045,-3.8934,-3.8581,-3.7782,-3.6965,-3.616,-3.5343,-3.4674,-3.4197,-3.4197,-3.4197,-3.4197,-3.4197,-3.4197,-3.4048,-3.3621,-3.3243,-3.2853,-3.2407,-3.2035,0.0,-3.1496,-3.1049,-3.0675,-3.049,-3.0208,-3.0052,-3.0052,-3.0254,-3.0386,-3.0317,-3.0367,-3.0404,-3.0404,-3.0404,-3.0404,-3.0404,-3.0204,-3.0124,0.0,0.0,0.0,0.0,0.0,0.0,0.0,0.0,0.0,0.0,0.0,0.0,0.0,0.0,0.0,0.0,0.0,0.0,0.0,0.0,0.0,0.0,-4.4711,-4.6085,-4.7646,-4.8351,-4.9317,-5.0952,-5.1899,-5.2419,-5.2419,-5.2419,-5.2419,-5.2419,-5.2419,-5.2419,-5.2419,-5.2419,-5.2419,-5.2419,-5.2865,-5.294,-5.2605,-5.1806,-5.1212,-5.0841,-4.954,-4.8909,-4.8909,-4.8909,-4.8909,-4.8909,-4.8909,-4.8909,-4.8872,-4.8537,-4.7924,0.0,0.0,0.0,0.0,0.0,-4.2184,-4.0903,-3.9565,-3.9101,-3.9101,-3.9101,-3.9101,-3.9101,-3.9101,-3.9101,-3.9101,-3.9101,-3.8859,-3.8488,-3.8024,-3.7299,-3.6513,-3.5696,-3.512,-3.4643,-3.4271,-3.4197,-3.4197,-3.4197,-3.4197,0.0,-3.434,-3.3878,-3.328,-3.2611,-3.2667,-3.259,-3.2011,-3.1883,-3.1769,-3.1606,-3.1351,-3.1207,-3.1269,-3.1079,0.0,0.0,0.0,-3.0404,-3.0404,-3.0404,0.0,0.0,0.0,-3.0496,-3.0539,0.0,0.0,0.0,-2.8787,-2.833,0.0,0.0,0.0,0.0,0.0,0.0,0.0,0.0,0.0,0.0,0.0,0.0,0.0,0.0,0.0,0.0,-4.746,-4.8946,-5.1342,-5.1008,-5.1082,-5.2568,-5.3367,-5.3813,-5.3813,-5.3813,-5.3813,-5.3813,-5.3813,-5.3813,-5.3813,0.0,0.0,0.0,0.0,-5.346,-5.2735,-5.1936,-5.1101,-5.0246,-4.9429,-4.9002,-4.8909,-4.8909,-4.8909,-4.8909,-4.8909,-4.8909,-4.8834,-4.8129,-4.7311,-4.6475,-4.629,-4.5769,-4.4859,-4.2482,-4.1144,-4.0416,-3.9435,0.0,0.0,-3.9101,-3.9101,-3.9101,-3.9101,-3.9101,-3.9101,-3.9101,-3.8581,-3.8005,-3.7912,-3.7355,-3.663,-3.5826,-3.564,-3.5398,-3.4549,-3.4351,-3.4333,-3.43,-3.4269,-3.4328,-3.4583,-3.4409,-3.3773,-3.2356,-3.3361,-3.3833,-3.2567,-3.2964,-3.3233,-3.2875,0.0,0.0,-3.2878,-3.2256,-3.1795,-3.1718,-3.0885,-3.0442,-3.0538,-3.0558,-3.0558,-3.0558,-3.0568,-3.0622,-3.0749,-3.0669,-3.0675,-3.078,-2.9949,-2.9506,0.0,0.0,0.0,0.0,0.0,0.0,0.0,0.0,0.0,0.0,0.0,0.0,0.0,0.0,0.0,-4.7256,-4.928,-5.1305,-5.3088,-5.32,-5.32,-5.3534,-5.372,-5.3813,-5.3813,-5.3813,-5.3813,-5.3813,-5.3813,-5.3813,-5.3813,-5.3813,-5.3813,-5.3813,-5.3813,-5.3738,-5.3571,-5.2772,-5.1955,-5.1138,0.0,0.0,-4.8909,-4.8909,-4.8909,-4.8909,-4.8909,-4.8909,-4.889,-4.8723,-4.7813,-4.6364,-4.5008,-4.4395,-4.4042,-4.2259,-4.1497,-4.1144,-3.9621,-3.9101,-3.9101,-3.9101,-3.9101,-3.9101,-3.9101,-3.9101,0.0,-3.9101,-3.899,-3.8711,-3.8061,-3.7782,-3.7466,-3.6649,-3.6476,-3.6285,-3.5633,-3.5347,-3.5148,-3.4833,-3.4628,-3.4594,-3.4811,-3.4649,-3.447,-3.4318,-3.4564,-3.4669,-3.4396,-3.4023,-3.3743,-3.3681,-3.3187,-3.2865,-3.291,-3.2756,-3.2391,-3.1737,-3.0885,-3.0712,-3.1429,-3.1448,-3.1448,-3.1448,-3.155,-3.1627,-3.1658,-3.1042,-3.077,-3.0781,-3.0566,-3.0095,0.0,0.0,0.0,0.0,0.0,0.0,0.0,0.0,0.0,0.0,0.0,-4.5509,0.0,0.0,-4.9485,-5.1101,-5.2401,-5.3627,-5.489,-5.5057,-5.489,-5.4463,-5.4054,-5.3813,-5.3813,-5.3813,-5.3813,-5.3813,-5.3813,-5.3813,-5.3813,-5.3813,-5.3813,-5.3813,-5.3813,-5.3608,-5.32,-5.281,-5.2197,-5.1398,-5.0525,-4.9893,-4.9503,-4.9076,-4.8909,-4.8909,-4.8909,-4.8909,-4.8834,-4.8036,-4.7237,-4.6327,-4.4655,-4.4005,-4.3819,-4.2184,-4.159,-4.1349,-3.9677,-3.9101,-3.9101,-3.9101,-3.9101,-3.9101,-3.9101,-3.9101,-3.9101,-3.9101,-3.9192,-3.9205,-3.8807,-3.8777,-3.865,-3.7836,-3.7317,-3.6938,-3.6656,-3.5865,-3.5249,-3.5466,-3.5095,-3.4802,-3.5019,-3.4973,-3.4908,-3.4908,-3.4908,-3.4945,-3.5037,-3.4751,-3.4592,-3.4695,-3.4402,-3.4192,-3.4192,-3.3795,-3.3179,-3.2352,-3.1891,-3.1852,-3.2275,-3.2295,-3.2295,-3.2295,-3.2005,-3.1867,-3.191,-3.1135,-3.0767,-3.08,-3.0767,-3.0526,0.0,0.0,0.0,0.0,0.0,0.0,0.0,0.0,-4.367,-4.5138,-4.6754,-4.8481,-5.032,-5.1454,-5.2735,-5.4686,-5.515,-5.5559,-5.6413,-5.6246,-5.5856,-5.5336,-5.4537,-5.4035,-5.4035,-5.3887,-5.3813,-5.3813,-5.3813,-5.3813,-5.3813,-5.3813,-5.3813,-5.3813,-5.3813,-5.3497,-5.2847,-5.2828,-5.2438,-5.1621,-5.0766,-5.0265,-5.0079,-4.928,-4.8909,-4.8909,-4.8909,-4.8909,-4.8797,-4.733,-4.6643,-4.6345,-4.4841,-4.4153,-4.3819,-4.237,-4.172,-4.1367,-3.9881,-3.9231,-3.9101,-3.9101,-3.9101,-3.9101,-3.9101,-3.9142,-3.9183,-3.9183,-3.9357,-3.9568,-3.9568,-3.9683,-3.9637,-3.8984,-3.8291,-3.7771,-3.7708,-3.6473,-3.5524,-3.6102,-3.5533,-3.5028,-3.5226,-3.5258,-3.5209,-3.5046,-3.5019,-3.5072,-3.5234,-3.5258,-3.5324,-3.5486,-3.55,-3.55,-3.55,-3.4699,-3.3968,-3.3449,-3.3083,-3.2987,-3.3141,-3.3141,-3.3154,-3.3159,-3.2443,-3.2098,-3.2165,-3.1183,-3.0758,-3.08,-3.08,-3.08,-4.0285,-4.0327,-4.0903,-4.3058,-4.3132,-4.3782,0.0,0.0,-4.9429,-5.0376,-5.1862,-5.2847,-5.2419,-5.3571,-5.4704,-5.4964,-5.5652,-5.645,-5.7249,-5.6097,-5.541,-5.6079,-5.5391,-5.4871,-5.4871,-5.4221,-5.3813,-5.3813,-5.3813,-5.3813,-5.3813,-5.3813,-5.3813,-5.3813,-5.3813,-5.3775,-5.3683,-5.3683,-5.3255,-5.2457,-5.1639,-5.0859,-5.0079,-4.928,-4.8909,-4.8909,-4.8909,-4.8909,-4.8834,-4.7924,-4.7144,-4.6401,-4.5509,-4.4674,-4.3893,-4.3002,-4.2203,-4.146,-4.0568,-3.9751,-3.9101,-3.9101,-3.9101,-3.9101,-3.9101,-3.9272,-3.9464,-3.9464,-3.9609,-3.9765,-3.9765,-3.9786,-3.9789,-3.9694,-3.9599,-3.9376,-3.8842,-3.7852,-3.6948,-3.6684,-3.5836,-3.5234,-3.5432,-3.5472,-3.5453,-3.5432,-3.5432,-3.5439,-3.5453,-3.5472,-3.5479,-3.55,-3.55,-3.55,-3.55,-3.4699,-3.4487,-3.5173,-3.3757,-3.3256,-3.4013,-3.4052,-3.4089,-3.4141,-3.3412,-3.3071,-3.3148,-3.1558,-3.0798,-3.08,-3.08,-3.08,-4.1794,-4.2129,0.0,0.0,-4.5918,-4.772,-5.0265,-5.1584,-5.2494,-5.333,-5.4816,-5.5856,-5.5522,-5.6395,-5.7156,0.0,-5.7472,-5.7806,-5.8159,-5.7193,-5.6432,-5.632,-5.5131,-5.4314,-5.4314,-5.3998,-5.3813,-5.3813,-5.3813,-5.3813,-5.3813,-5.424,-5.4296,-5.3813,-5.4258,-5.4277,-5.3813,-5.3813,-5.3627,-5.3292,-5.2475,-5.1658,-5.0822,-4.9986,-4.9355,-4.8909,-4.8909,-4.8909,-4.8797,-4.7534,-4.6887,-4.6595,-4.5301,-4.4655,-4.4363,-4.339,-4.2829,-4.2417,-4.1608,-4.0785,-4.0066,-3.9914,-3.9615,-3.9337,-3.9337,-3.9489,-3.9671,-3.9671,-3.9848,-4.0032,-4.0032,-4.0129,-4.0212,-4.0212,-3.9849,-3.958,-3.9772,-3.8714,-3.7806,-3.8158,-3.7456,-3.6857,-3.6935,-3.6949,-3.6949,-3.6949,-3.6115,-3.5673,-3.6135,-3.5788,-3.55,-3.55,-3.55,-3.55,-3.55,-3.5173,-3.5122,-3.5481,-3.4827,-3.4584,-3.4949,-3.4968,-3.4995,-3.5065,-3.4287,-3.3941,-3.4052,-3.2365,-3.1563,-3.1543,-3.1036,-3.08,-4.2742,0.0,0.0,-4.6531,-4.9076,-5.1528,-5.307,-5.45,-5.5652,-5.6246,-5.7156,-5.7769,-5.7546,-5.7788,-5.8122,-5.8345,-5.8382,-5.8382,-5.8382,-5.7286,-5.6265,-5.5689,-5.3738,-5.2642,-5.3088,-5.3348,-5.3571,-5.3775,-5.3813,-5.3905,-5.4128,-5.4686,-5.4741,-5.4166,-5.4704,-5.4611,-5.3813,-5.3813,-5.3813,-5.3794,-5.2977,-5.2289,-5.1695,-5.0599,-4.967,-4.8909,-4.8909,-4.8909,-4.8779,-4.7243,-4.6725,-4.6749,-4.5143,-4.4624,-4.47,-4.4014,-4.3548,-4.3233,-4.263,-4.1908,-4.1205,-4.1006,-4.0659,-4.0256,-4.0018,-4.008,-4.0235,-4.0235,-4.0263,-4.0344,-4.0593,-4.0573,-4.0496,-4.0496,-4.0054,-3.9785,-4.0362,-3.9381,-3.8546,-3.9188,-3.8618,-3.8029,-3.8029,-3.8036,-3.812,-3.8351,-3.7151,-3.6335,-3.6675,-3.6021,-3.5501,-3.5501,-3.5507,-3.55,-3.55,-3.55,-3.55,-3.55,-3.55,-3.55,-3.55,-3.5521,-3.5565,-3.563,-3.485,-3.45,-3.462,-3.3171,-3.2324,-3.2071,-3.1446,-3.1036,0.0,0.0,-4.6215,-5.0209,-5.2457,-5.4537,-5.7751,-5.9125,-5.9738,-5.9735,-5.9181,-5.8438,-5.7639,-5.6878,-5.6636,-5.7416,-5.7546,-5.7546,-5.7546,-5.5447,-5.3905,-5.3887,-5.1026,-4.9689,0.0,-5.2178,-5.2958,-5.3738,-5.3813,-5.4147,-5.4927,-5.5001,-5.5001,-5.4964,-5.5001,-5.4611,-5.3813,-5.3813,-5.3813,-5.3794,-5.2977,-5.2587,-5.2512,-5.0859,-4.967,-4.8909,-4.8909,-4.8909,-4.8796,-4.7426,-4.6888,-4.6763,-4.5337,-4.4788,-4.4825,-4.5066,-4.4478,-4.358,-4.3549,-4.3012,-4.2341,-4.2341,-4.2322,-4.2151,-4.1306,-4.1191,-4.1351,-4.1351,-4.0943,-4.07,-4.1538,-4.1123,-4.0496,-4.0496,-4.0477,-4.0477,-4.0496,-3.9842,-3.9265,-3.9284,-3.864,-3.8091,-3.8091,-3.8099,-3.8369,-3.9218,-3.8581,-3.772,-3.6909,-3.6042,-3.5509,-3.5509,-3.5508,-3.55,-3.55,-3.55,-3.55,-3.55,-3.55,-3.55,-3.55,-3.5558,-3.5635,-3.5689,-3.4971,-3.4623,-3.4684,-3.3806,-3.2929,-3.2091,-3.2071,-3.1602,0.0,0.0,-5.006,-5.3051,-5.5837,-5.8438,-6.0648,-6.1373,-6.1094,-5.9441,-5.8048,-5.6525,-5.4611,-5.4035,-5.411,-5.4909,-5.5986,-5.671,-5.671,-5.645,-5.5447,-5.3255,-5.2029,0.0,0.0,0.0,0.0,-5.2902,-5.3497,-5.4166,-5.4964,-5.606,-5.6153,-5.5039,-5.5559,-5.5206,-5.3813,-5.3813,-5.3813,-5.3775,-5.2438,-5.1806,-5.1751,-5.0303,-4.9503,-4.9239,-4.942,-4.9171,-4.8554,-4.7555,-4.6928,-4.6465,-4.5468,-4.5161,-4.5342,-4.5429,-4.5602,-4.5676,-4.4919,-4.4486,-4.4132,-4.3422,-4.3308,-4.3304,-4.2436,-4.2326,-4.253,-4.253,-4.239,-4.2297,-4.2585,-4.2431,-4.2085,-4.1508,-4.1354,-4.12,-4.0631,-4.0285,-4.0119,-4.0142,-3.9945,-3.9755,-3.9764,-3.9758,-3.9862,-4.0151,-3.8993,-3.7791,-3.691,-3.6042,-3.5509,-3.5509,-3.5508,-3.55,-3.55,-3.55,-3.5494,-3.5502,-3.5509,-3.5528,-3.5548,-3.5593,-3.5669,-3.5833,-3.5585,-3.5505,-3.5563,-3.4686,-3.3807,-3.2949,-3.2363,-3.1621,-4.785,-5.0636,-5.3423,-5.6469,-5.9032,-6.1094,-6.2153,-6.1949,-6.0723,-5.7955,-5.6097,-5.4221,-5.1751,-5.1286,-5.1639,-5.2754,-5.385,-5.4853,-5.5707,-5.554,-5.4871,-5.3608,-5.2438,-5.1546,0.0,0.0,0.0,-5.2475,-5.3608,-5.4593,-5.5429,-5.6487,-5.658,-5.5503,-5.5707,-5.5187,-5.3813,-5.3813,-5.3813,-5.3794,-5.2548,-5.1818,-5.1501,-5.0463,-4.9807,-4.9558,-4.9721,-4.9311,-4.8445,-4.7732,-4.7029,-4.6326,-4.5628,-4.5438,-4.5633,-4.5951,-4.6413,-4.676,-4.5717,-4.5543,-4.5649,-4.4635,-4.4419,-4.4403,-4.3532,-4.3384,-4.3528,-4.3528,-4.3316,-4.3162,-4.3451,-4.3316,-4.2951,-4.239,-4.2051,-4.1686,-4.1112,-4.0754,-4.0542,-4.0583,-4.0617,-4.0639,-4.0647,-4.0661,-4.0668,-4.0668,-3.9496,-3.8292,-3.7411,-3.6273,-3.5547,-3.5547,-3.5547,-3.554,-3.554,-3.554,-3.5534,-3.5547,-3.5532,-3.5571,-3.5601,-3.5672,-3.5771,-3.5902,-3.5923,-3.596,-3.5998,-3.5431,-3.4552,-3.3396,-3.2831,-3.1934,-5.1639,-5.3998,-5.6283,-6.0277,-6.1837,-6.2394,-6.2301,-6.0964,-5.8772,-5.5447,-5.3441,-5.1546,0.0,0.0,-4.9262,-5.0933,-5.1342,-5.2289,-5.4611,-5.3088,-5.2531,0.0,0.0,0.0,0.0,0.0,0.0,-5.2549,0.0,-5.5317,-5.632,-5.632,-5.632,-5.6357,-5.5484,-5.463,-5.3868,-5.385,-5.3832,-5.3832,-5.3243,-5.2569,-5.1799,-5.1215,-5.0537,-4.9811,-4.9787,-4.9275,-4.844,-4.7899,-4.715,-4.6301,-4.5802,-4.5633,-4.5768,-4.6605,-4.6923,-4.6836,-4.597,-4.622,-4.6817,-4.5893,-4.5633,-4.5498,-4.4624,-4.4374,-4.4374,-4.4374,-4.3816,-4.3421,-4.4171,-4.3805,-4.3217,-4.3181,-4.256,-4.1952,-4.1919,-4.1231,-4.0595,-4.0595,-4.0661,-4.07,-4.07,-4.0752,-4.0797,-4.0797,-4.0062,-3.9198,-3.8369,-3.6785,-3.5722,-3.5664,-3.5693,-3.5694,-3.5617,-3.5636,-3.5662,-3.561,-3.5614,-3.5616,-3.5626,-3.5794,-3.5908,-3.591,-3.5962,-3.6009,-3.6004,-3.6004,-3.5103,-3.3396,-3.3396,-3.2479,-5.3627,-5.6952,-6.0017,-6.1689,-6.2264,-6.2079,-6.0812,-5.8828,-5.6097,-5.2159,-4.9596,-4.7478,0.0,0.0,0.0,-4.8389,-5.0711,0.0,-5.3943,-5.5169,0.0,-5.5094,0.0,-5.4426,-5.359,-5.3664,0.0,0.0,-5.333,-5.4388,-5.7045,-5.6636,-5.658,-5.7175,-5.5782,-5.4909,-5.4704,-5.4353,-5.4159,-5.4158,-5.3022,-5.2378,-5.2132,-5.0944,-5.029,-5.0073,-4.9666,-4.9013,-4.8132,-4.7405,-4.658,-4.5783,-4.5645,-4.599,-4.6605,-4.6817,-4.7278,-4.7682,-4.6855,-4.7105,-4.7548,-4.6075,-4.6028,-4.6413,-4.5528,-4.5267,-4.5267,-4.5267,-4.5158,-4.5087,-4.5299,-4.5189,-4.4885,-4.4295,-4.3493,-4.2683,-4.2035,-4.1231,-4.0621,-4.0661,-4.0733,-4.0759,-4.0759,-4.079,-4.0797,-4.0797,-4.0062,-3.9423,-3.9198,-3.8208,-3.7281,-3.6644,-3.7102,-3.6967,-3.5713,-3.6157,-3.6263,-3.5708,-3.566,-3.5718,-3.5821,-3.5867,-3.5928,-3.5964,-3.5989,-3.5991,-3.6009,-3.6009,-3.5109,-3.3403,-3.3403,-3.2464,-5.697,-5.9682,-6.193,-6.2747,-6.2413,-6.1261,-5.8865,-5.6172,-5.2865,-4.8351,-4.6067,0.0,0.0,0.0,0.0,0.0,0.0,0.0,-5.3014,-5.4779,-5.593,0.0,-5.6227,0.0,-5.5001,-5.4648,-5.4483,0.0,-5.4354,-5.4871,-5.632,-5.6339,-5.64,-5.663,-5.5716,-5.5117,-5.4904,-5.4639,-5.4323,-5.3927,-5.2954,-5.2289,-5.1908,-5.0883,-5.0421,-5.0374,0.0,-4.8913,-4.8067,-4.7605,-4.6701,-4.5671,-4.6413,-4.6547,-4.6451,-4.7586,-4.8048,-4.8048,-4.7586,-4.7971,-4.8336,-4.6268,-4.5932,-4.6317,-4.6201,-4.5911,-4.5717,-4.6063,-4.5943,-4.5706,-4.5706,-4.5711,-4.5592,-4.5171,-4.4109,-4.3067,-4.2606,-4.155,-4.0707,-4.0739,-4.0759,-4.0797,-4.0797,-4.0797,-4.0797,-4.0797,-4.0371,-4.0062,-4.0062,-3.898,-3.8014,-3.7512,-3.7867,-3.7758,-3.6812,-3.6826,-3.6711,-3.6298,-3.5962,-3.5814,-3.5907,-3.5921,-3.597,-3.5994,-3.5994,-3.5994,-3.5993,-3.5993,-3.5308,-3.3956,-3.3585,-3.2881,-6.037,-6.1874,-6.271,-6.3305,-6.206,-5.985,-5.6562,-5.3181,-4.941,-4.4655,0.0,-4.2296,-4.1702,-4.2259,-4.3615,-4.6104,0.0,-4.8964,-5.2159,-5.3385,-5.4816,-5.7082,-5.6822,-5.6433,-5.6362,-5.5042,-5.4578,-5.5496,-5.5996,-5.5975,-5.5342,-5.59,-5.6108,-5.5756,-5.5737,-5.5494,-5.4962,-5.4893,-5.4429,-5.3556,-5.3022,-5.2332,-5.1541,-5.0957,-5.0712,-5.0654,-4.9779,-4.8971,-4.8259,-4.8144,-4.724,-4.6075,-4.7528,-4.7278,-4.6364,-4.8586,-4.8913,-4.8279,-4.8279,-4.8702,-4.8865,-4.6537,-4.5768,-4.5902,-4.6672,-4.6341,-4.5844,-4.6549,-4.6235,-4.5715,-4.5715,-4.5715,-4.5731,-4.5788,-4.4474,-4.3225,-4.3298,-4.2067,-4.0932,-4.0816,-4.0893,-4.0932,-4.0816,-4.0797,-4.0797,-4.0797,-4.0797,-4.0797,-4.0797,-3.9475,-3.8502,-3.8392,-3.8489,-3.8444,-3.8212,-3.7662,-3.724,-3.7039,-3.6419,-3.6013,-3.5919,-3.6072,-3.6172,-3.6172,-3.6172,-3.6172,-3.6171,-3.6054,-3.5545,-3.4683,-3.3921,-3.3511,-6.0667,-6.2283,-6.3286,-6.2747,-6.037,-5.7286,-5.3998,-5.019,0.0,0.0,0.0,-4.0992,-4.1497,-4.2259,0.0,-4.6104,0.0,0.0,0.0,0.0,-5.5224,0.0,0.0,0.0,0.0,0.0,0.0,0.0,0.0,-5.6288,-5.6781,-5.6323,-5.6349,-5.6977,-5.6983,-5.6601,-5.5807,-5.5407,-5.4784,-5.3913,-5.3376,-5.266,-5.1804,-5.1048,-5.0712,-5.0654,-4.9779,0.0,-4.9125,-4.8394,-4.7932,-4.7702,-4.799,-4.8355,-4.8779,-4.924,-4.9298,-4.9163,-4.9163,-4.8845,-4.8227,-4.7037,-4.6661,-4.6696,-4.6851,-4.6345,-4.573,-4.5865,-4.5858,-4.5773,-4.5773,-4.5783,-4.5786,-4.5793,-4.4516,-4.3291,-4.3298,-4.2512,-4.1603,-4.0932,-4.1332,-4.1583,-4.0913,-4.0797,-4.0797,-4.0797,-4.0797,-4.0797,-4.0797,-4.0545,-4.0081,-3.9346,-3.9926,-3.9765,-3.8309,-3.8772,-3.8572,-3.7167,-3.7002,-3.6687,-3.6015,-3.6699,-3.707,-3.707,-3.707,-3.707,-3.707,-3.6348,-3.5546,-3.4705,-3.4549,-3.4099,-6.1373,-6.2692,-6.3416,-6.2617,-5.9627,-5.5893,-5.2159,0.0,0.0,0.0,-3.9993,-3.9974,-4.081,0.0,0.0,0.0,0.0,0.0,0.0,0.0,0.0,0.0,0.0,0.0,0.0,0.0,0.0,0.0,0.0,-5.5727,-5.5947,-5.6149,-5.663,-5.7487,-5.6826,-5.6275,-5.5849,-5.4755,-5.3989,-5.3568,-5.2852,-5.2087,-5.1279,-5.1318,-5.1318,-5.1279,-5.0433,0.0,-5.001,-4.9144,-4.8509,-4.8202,-4.9106,-4.9144,-4.8836,-4.974,-4.9817,-4.9393,-4.8931,-4.9122,-4.9281,-4.7512,-4.727,-4.7711,-4.8135,-4.7397,-4.6511,-4.6936,-4.6445,-4.5798,-4.5798,-4.5793,-4.5807,-4.5807,-4.4871,-4.373,-4.2821,-4.2647,-4.2434,-4.1583,-4.1738,-4.1738,-4.0951,-4.0797,-4.0797,-4.0797,-4.0797,-4.0797,-4.0797,-4.0831,-4.0674,-4.0222,-4.0585,-4.0502,-3.9688,-3.9669,-3.9176,-3.7912,-3.7463,-3.6872,-3.6035,-3.6836,-3.7305,-3.7305,-3.7305,-3.7305,-3.7305,-3.6426,-3.5781,-3.5351,-3.4881,-3.4664,-6.1373,-6.2469,-6.2896,-6.2079,-5.8661,-5.4481,-5.0488,-4.642,0.0,0.0,-3.9101,-3.9361,-4.0248,0.0,0.0,0.0,0.0,0.0,0.0,0.0,0.0,0.0,0.0,0.0,0.0,0.0,0.0,0.0,0.0,0.0,-5.5574,-5.6408,-5.7194,-5.78,-5.6449,-5.5607,-5.5434,-5.3953,-5.3106,-5.2914,-5.2231,-5.1568,-5.0971,-5.1606,-5.2,-5.2135,-5.151,0.0,0.0,-5.0221,-4.9433,-4.8798,-5.0173,-4.9865,-4.8807,-5.0183,-5.0307,-4.9679,-4.8985,-4.9648,-5.0482,-4.8486,-4.8166,-4.8657,-4.9112,-4.8237,-4.7264,-4.8095,-4.7093,-4.5845,-4.6039,-4.5942,-4.5768,-4.5568,-4.5065,-4.4168,-4.2609,-4.2957,-4.3324,-4.2454,-4.228,-4.2028,-4.1203,-4.0913,-4.0797,-4.0797,-4.0821,-4.0814,-4.0814,-4.0878,-4.0907,-4.0846,-4.0893,-4.092,-4.092,-4.0398,-3.9702,-3.8822,-3.82,-3.7383,-3.6328,-3.7285,-3.7773,-3.7578,-3.7578,-3.7578,-3.7578,-3.6523,-3.5996,-3.5956,-3.522,-3.5246,-5.9497,-6.076,-6.1224,-6.0351,-5.6525,-5.2067,-4.8686,0.0,0.0,-3.9472,-3.9101,-3.9361,-4.0248,-4.1051,-4.2129,0.0,0.0,0.0,0.0,0.0,0.0,0.0,0.0,0.0,0.0,0.0,0.0,0.0,0.0,0.0,-5.7981,-5.8081,-5.817,-5.8247,-5.6596,-5.5338,-5.4626,-5.3664,-5.2799,-5.2019,-5.1942,-5.1865,-5.1788,-5.1865,-5.2327,-5.3087,-5.301,0.0,0.0,-5.1692,-5.1183,-5.0481,-5.0635,-5.0596,-5.048,-5.0634,-5.069,-5.0677,-5.058,-5.0703,-5.0852,-5.0621,-5.0061,-4.9354,-4.8639,-4.7793,-4.7289,-4.8152,-4.7134,-4.5981,-4.6786,-4.6387,-4.5633,-4.4891,-4.4652,-4.4342,-4.3401,-4.3866,-4.4226,-4.3343,-4.3189,-4.2918,-4.2048,-4.1274,-4.0797,-4.0797,-4.0851,-4.0893,-4.0893,-4.0953,-4.1,-4.0974,-4.0997,-4.0981,-4.0981,-4.0986,-4.06,-3.9741,-3.9664,-3.8926,-3.7246,-3.8789,-3.9297,-3.8496,-3.8476,-3.8476,-3.8476,-3.6816,-3.5974,-3.5918,-3.5818,-3.5781,-5.7676,-5.9422,-6.0221,-5.9404,-5.5602,-5.1347,-4.8581,0.0,-4.0967,-3.9775,-3.9427,-3.9462,-3.9786,-4.0808,-4.1813,0.0,0.0,0.0,0.0,0.0,0.0,0.0,0.0,0.0,0.0,0.0,0.0,0.0,0.0,0.0,-5.8338,-5.78,-5.728,-5.6742,-5.5088,-5.4049,-5.3722,-5.2375,-5.2029,-5.2673,-5.2154,-5.2173,-5.2692,-5.3241,-5.3645,-5.3972,-5.3972,0.0,0.0,-5.2673,-5.1895,-5.075,-5.128,-5.1164,-5.0701,-5.0757,-5.0801,-5.0797,-5.0256,-5.0436,-5.072,-4.9722,-4.9838,-5.0314,-4.9974,-4.8937,-4.8063,-4.8933,-4.7927,-4.6786,-4.7657,-4.7637,-4.7018,-4.5645,-4.6129,-4.6496,-4.5104,-4.549,-4.5703,-4.4349,-4.3653,-4.3189,-4.2841,-4.1709,-4.1017,-4.1502,-4.1222,-4.0968,-4.0968,-4.1011,-4.1064,-4.1064,-4.1064,-4.1064,-4.1064,-4.1117,-4.0797,-3.9918,-3.9882,-3.9121,-3.7363,-3.8476,-3.8711,-3.7832,-3.832,-3.834,-3.7812,-3.7086,-3.6433,-3.5893,-3.5821,-3.5775,-5.4913,-5.6871,-5.7844,-5.7266,-5.3915,-5.0122,0.0,0.0,-4.0847,-3.9968,-3.9683,-3.9585,-3.9585,-4.0609,-4.1543,0.0,0.0,0.0,0.0,0.0,0.0,0.0,0.0,0.0,0.0,0.0,0.0,0.0,0.0,0.0,-5.7973,-5.6857,-5.5983,-5.5357,-5.3953,-5.2972,-5.2472,-5.1529,-5.1645,-5.2818,-5.2442,-5.2741,-5.3606,-5.3953,-5.426,-5.4491,-5.4222,0.0,0.0,-5.2857,-5.2001,-5.0798,-5.1404,-5.1268,-5.0766,-5.0801,-5.0863,-5.08,-5.0201,-5.0391,-5.0705,-4.9513,-4.9939,-5.0906,-5.0959,-4.9938,-4.896,-4.9863,-4.887,-4.7649,-4.8269,-4.8215,-4.7773,-4.6806,-4.7502,-4.7985,-4.6523,-4.6677,-4.6684,-4.5293,-4.4311,-4.3729,-4.3751,-4.2384,-4.1477,-4.2036,-4.1503,-4.102,-4.102,-4.1081,-4.1121,-4.1121,-4.1121,-4.1121,-4.1121,-4.117,-4.0937,-4.0312,-4.0273,-3.9492,-3.7754,-3.8516,-3.8574,-3.7695,-3.8261,-3.8396,-3.8045,-3.7458,-3.6848,-3.6228,-3.5868,-3.5704,-5.0962,-5.2636,-5.346,-5.346,-5.0974,-4.788,0.0,0.0,-4.0847,-3.9968,-3.9797,-3.9797,-3.9797,-4.0506,-4.1366,-4.2162,-4.1643,0.0,0.0,0.0,0.0,0.0,0.0,0.0,0.0,0.0,0.0,0.0,0.0,0.0,-5.7099,-5.5434,-5.4511,-5.4511,-5.3664,-5.2395,-5.075,-5.151,-5.1904,-5.1923,-5.2779,-5.3645,-5.4453,-5.3606,-5.3683,-5.4453,0.0,0.0,0.0,-5.2011,-5.1519,-5.0801,-5.0821,-5.0846,-5.0899,-5.0899,-5.0905,-5.0898,-5.0898,-5.0898,-5.0898,-5.0879,-5.0898,-5.091,-5.1063,-5.0448,-4.9872,-5.081,-4.9823,-4.8488,-4.8488,-4.7811,-4.7328,-4.8179,-4.8392,-4.8159,-4.727,-4.7096,-4.6874,-4.613,-4.5278,-4.471,-4.4766,-4.3335,-4.2185,-4.2205,-4.1571,-4.1108,-4.1108,-4.1168,-4.1191,-4.1191,-4.1191,-4.1191,-4.1191,-4.1191,-4.1191,-4.1191,-4.1191,-4.0391,-3.8652,-3.9414,-3.9473,-3.8594,-3.8524,-3.892,-3.9761,-3.7978,-3.706,-3.6964,-3.6105,-3.5708,-4.7924,-4.9213,-4.9804,-4.9943,-4.7935,-4.5597,-4.4448,0.0,-4.0619,-4.0386,-4.0204,-4.0081,-4.0072,-4.0636,-4.1188,-4.1435,-4.1377,0.0,0.0,0.0,0.0,0.0,0.0,0.0,0.0,0.0,0.0,0.0,0.0,0.0,-5.6203,-5.5607,-5.4511,-5.2779,-5.2462,-5.1798,-5.0712,-5.2087,-5.2481,-5.1904,-5.2779,-5.3337,-5.3606,-5.3337,-5.3356,0.0,0.0,0.0,0.0,-5.2646,-5.2048,-5.0859,-5.1464,-5.1374,-5.0908,-5.0893,-5.0909,-5.0898,-5.0898,-5.0898,-5.0921,-5.1004,-5.1037,-5.1043,-5.1147,-5.0503,-4.9834,-5.0122,-5.0231,-5.0136,-4.9497,-4.9569,-4.9744,-4.9433,-4.9382,-4.9182,-4.8312,-4.7665,-4.7014,-4.6212,-4.5363,-4.4966,-4.5572,-4.4289,-4.3357,-4.3958,-4.2876,-4.199,-4.199,-4.1523,-4.1191,-4.1191,-4.1191,-4.1191,-4.1191,-4.1191,-4.1191,-4.1191,-4.1191,-4.043,-3.8672,-3.8867,-3.83,-3.6786,-3.7325,-3.7427,-3.7067,-3.7044,-3.6712,-3.6129,-3.6396,-3.622,0.0,-4.6076,-4.6689,-4.6806,-4.5457,0.0,0.0,0.0,-4.0539,-4.058,-4.0465,-4.0345,-4.0353,-4.0939,-4.1398,-4.1378,-4.1476,0.0,0.0,0.0,0.0,0.0,0.0,0.0,0.0,0.0,0.0,0.0,0.0,0.0,-5.5318,-5.4934,-5.403,-5.2442,-5.2712,-5.2183,-5.0712,-5.2356,-5.275,-5.1904,-5.2779,-5.3203,-5.3203,-5.2856,-5.2732,0.0,0.0,0.0,0.0,-5.2171,-5.1773,-5.0891,-5.1429,-5.1349,-5.0905,-5.089,-5.0898,-5.0898,-5.0898,-5.0925,-5.0944,-5.0681,-5.0417,-5.0259,-5.0625,-5.0571,-5.0376,-5.0376,-5.0512,-5.0631,-5.0372,-5.047,-5.0588,-5.0374,-5.0105,-4.9656,-4.8787,-4.7926,-4.7076,-4.629,-4.5691,-4.5504,-4.6087,-4.4764,-4.3936,-4.4813,-4.322,-4.2051,-4.2363,-4.1699,-4.1191,-4.1191,-4.1191,-4.1191,-4.1191,-4.1191,-4.1191,-4.1191,-4.1191,-4.0546,-3.9118,-3.8747,-3.8016,-3.687,-3.7028,-3.7002,-3.6732,-3.6882,-3.6532,-3.5704,-3.6207,-3.6187,0.0,0.0,0.0,0.0,0.0,0.0,0.0,0.0,0.0,-4.0588,-4.0605,-4.0593,-4.0595,-4.1301,-4.1863,-4.172,-4.175,0.0,0.0,0.0,0.0,0.0,0.0,0.0,0.0,0.0,0.0,0.0,0.0,0.0,-5.4453,-5.3645,-5.3126,-5.2933,-5.3837,-5.3183,-5.0808,-5.2395,-5.2741,-5.1827,-5.2702,-5.3087,-5.2991,-5.2183,-5.1847,0.0,0.0,0.0,0.0,-5.0899,-5.0905,-5.0898,-5.084,-5.084,-5.0898,-5.084,-5.0867,-5.0914,-5.0914,-5.0965,-5.0884,-5.0087,-4.9325,-4.8898,-4.9815,-5.0637,-5.1203,-5.1141,-5.0615,-5.0266,-5.1,-5.0597,-5.0201,-5.1016,-5.049,-4.9616,-4.8801,-4.7885,-4.7025,-4.6335,-4.6207,-4.6235,-4.6289,-4.4961,-4.416,-4.4961,-4.2969,-4.1641,-4.2402,-4.1738,-4.1191,-4.1191,-4.1191,-4.1191,-4.1191,-4.1191,-4.1191,-4.1191,-4.1191,-4.0778,-3.984,-3.9018,-3.8491,-3.8299,-3.7389,-3.731,-3.8115,-3.7311,-3.6497,-3.5704,-3.582,-3.5839,-4.0929,0.0,-4.1194,-4.1349,-4.1149,0.0,0.0,0.0,0.0,0.0,0.0,0.0,0.0,-4.1304,-4.1659,-4.092,0.0,0.0,0.0,0.0,0.0,0.0,0.0,0.0,0.0,0.0,0.0,0.0,0.0,-5.4414,-5.3549,-5.3318,-5.2318,-5.0356,-5.1741,-5.2212,-5.1625,-5.2664,-5.2452,-5.0991,-5.1818,-5.1875,-5.1289,-5.1087,-5.0991,0.0,0.0,0.0,-5.0899,-5.0893,-5.089,-5.084,-5.0221,-5.0357,-5.0821,-5.0202,-5.0439,-5.1056,-5.1056,-5.0667,-5.0162,-4.9991,-4.9446,-4.9139,-5.0623,-5.0779,-5.0309,-4.9528,-5.0126,-5.0879,-5.0365,-5.0595,-5.1028,-5.1221,-5.0172,-4.9074,-4.8861,-4.7611,-4.6479,-4.6306,-4.6288,-4.6288,-4.6308,-4.5957,-4.5762,-4.5957,-4.4355,-4.3183,-4.3379,-4.2109,-4.1191,-4.1191,-4.1191,-4.1191,-4.1191,-4.1191,-4.1191,-4.1191,-4.1147,-4.0726,-3.9839,-3.9553,-3.876,-3.7366,-3.6459,-3.6114,-3.6313,-3.6707,-3.6497,-3.5723,-3.7019,-3.727,-4.0496,-4.0425,-4.0356,-4.0473,-4.0425,-4.0364,0.0,0.0,0.0,0.0,0.0,0.0,0.0,0.0,0.0,0.0,0.0,0.0,0.0,0.0,0.0,0.0,0.0,0.0,0.0,0.0,0.0,0.0,0.0,-5.353,-5.2654,-5.226,-5.1414,-5.0029,-5.0491,-5.076,-5.076,-5.1625,-5.1606,-5.0712,-5.1145,-5.1116,-5.0702,-5.073,-5.0766,0.0,0.0,0.0,-5.0913,-5.089,-5.0898,-5.0867,-5.0477,-5.0602,-5.0939,-5.0545,-5.0706,-5.1084,-5.0695,-4.9776,-4.8878,-4.9337,-4.8688,-4.7949,-4.9258,-4.9355,-4.9062,-4.9329,-5.0068,-5.0671,-5.0165,-5.0683,-5.1358,-5.1358,-5.0095,-4.8906,-4.8906,-4.7539,-4.6308,-4.6308,-4.6308,-4.6308,-4.6308,-4.5976,-4.5703,-4.5703,-4.4219,-4.3105,-4.3105,-4.1953,-4.1152,-4.1151,-4.1126,-4.1102,-4.1102,-4.1051,-4.1052,-4.1147,-4.1083,-4.0835,-4.0337,-3.9893,-3.8801,-3.6993,-3.6123,-3.5704,-3.5704,-3.6149,-3.6129,-3.5723,-3.6632,-3.6977,-4.0477,-4.04,-4.035,-4.0477,-4.0496,-4.0496,-4.0496,0.0,0.0,0.0,0.0,0.0,0.0,0.0,0.0,0.0,0.0,0.0,0.0,0.0,0.0,0.0,0.0,0.0,0.0,0.0,0.0,0.0,0.0,-5.2299,-5.1558,-5.0875,-5.0385,-5.0135,-4.9394,-4.9077,-4.9221,-5.0077,-5.0577,-5.0702,-5.0702,-5.0701,-5.071,-5.0784,-5.0846,-5.0899,0.0,0.0,-5.0937,-5.0947,-5.0954,-5.0949,-5.0912,-5.0998,-5.1106,-5.1038,-5.1094,-5.1066,-5.0098,-4.8769,-4.7656,-4.8436,-4.7695,-4.6699,-4.7695,-4.7812,-4.7969,-4.9707,-5.0195,-5.0195,-5.0195,-5.0801,-5.1406,-5.1406,-5.0117,-4.8906,-4.8906,-4.7539,-4.6308,-4.6308,-4.6308,-4.6308,-4.6308,-4.5683,-4.5156,-4.5019,-4.3632,-4.2558,-4.242,-4.1638,-4.1109,-4.1084,-4.1023,-4.0998,-4.0969,-4.0866,-4.0866,-4.1025,-4.0983,-4.0914,-4.0859,-3.9908,-3.8641,-3.7104,-3.6162,-3.5679,-3.5679,-3.5704,-3.5698,-3.5668,-3.5803,-3.6156,-4.0312,-4.0,-3.9649,-4.0331,-4.0496,-4.0496,-4.0496,0.0,0.0,0.0,0.0,0.0,0.0,0.0,0.0,0.0,0.0,0.0,0.0,0.0,0.0,0.0,0.0,0.0,0.0,0.0,0.0,0.0,0.0,-4.9913,-4.9798,-4.9663,-4.8952,-4.7528,-4.7355,-4.7643,-4.839,-4.9191,-4.9971,-5.0711,-5.0692,-5.072,-5.0793,-5.0855,-5.0891,-5.0908,0.0,-5.1069,-5.1062,-5.1123,-5.1141,-5.1083,-5.0365,-5.0544,-5.1105,-5.0365,-5.0602,-5.1076,-4.9562,-4.8416,-4.7616,-4.7754,-4.7617,-4.7695,-4.9316,-4.8769,-4.7969,-4.9707,-5.0195,-5.0195,-5.0195,-5.0801,-5.1406,-5.1406,-5.0117,-4.8906,-4.8906,-4.7539,-4.6308,-4.6308,-4.6308,-4.6308,-4.6307,-4.619,-4.5858,-4.5113,-4.4135,-4.3237,-4.2495,-4.1636,-4.1082,-4.1016,-4.1005,-4.0942,-4.0843,-4.0757,-4.0727,-4.0752,-4.0757,-4.0718,-4.0649,-3.9155,-3.8202,-3.7926,-3.6406,-3.5612,-3.5612,-3.5673,-3.5651,-3.5554,-3.6286,-3.6638,-3.9805,-3.9639,-3.9427,-3.9764,-4.0185,-4.0496,-4.0496,0.0,0.0,0.0,0.0,0.0,0.0,0.0,0.0,0.0,0.0,0.0,0.0,0.0,0.0,0.0,0.0,0.0,0.0,0.0,0.0,0.0,0.0,0.0,-4.9433,-4.8581,-4.7549,-4.6337,-4.6341,-4.6771,-4.7656,-4.8024,-4.9086,-5.0805,-5.0879,-5.094,-5.0959,-5.0538,-5.0349,-5.0355,0.0,-5.0452,-5.0456,-5.0482,-5.077,-5.1129,-5.0274,-5.0207,-5.0444,-4.9653,-4.9633,-4.9838,-4.8613,-4.7637,-4.6973,-4.7441,-4.7598,-4.7754,-4.8555,-4.8555,-4.8476,-4.9277,-4.9492,-4.9609,-5.0078,-5.0801,-5.1289,-5.0859,-4.9804,-4.8769,-4.83,-4.7206,-4.6306,-4.6306,-4.6306,-4.6306,-4.6305,-4.6305,-4.5835,-4.4505,-4.3928,-4.3154,-4.1823,-4.1235,-4.0931,-4.0909,-4.0863,-4.0815,-4.0747,-4.0654,-4.061,-4.0649,-4.0649,-4.0623,-4.0595,-3.8993,-3.8106,-3.8106,-3.644,-3.5596,-3.5596,-3.5522,-3.5443,-3.5395,-3.5699,-3.599,-3.9096,-3.8967,-3.8909,-3.9234,0.0,-4.0523,-4.0496,-4.1212,0.0,0.0,0.0,0.0,0.0,0.0,0.0,0.0,0.0,0.0,0.0,0.0,0.0,0.0,0.0,0.0,0.0,0.0,0.0,0.0,0.0,0.0,-4.8615,-4.741,-4.6448,-4.5847,-4.5866,-4.6328,-4.7202,-4.7248,-4.8395,-5.0629,-5.0554,-5.0625,-5.0789,-4.996,-4.9598,-4.9598,-4.9616,-4.9623,-4.9627,-4.9643,-5.0062,-5.0595,-4.9989,-4.9747,-4.9691,-4.9335,-4.8945,-4.8496,-4.7832,-4.7031,-4.6445,-4.7324,-4.7598,-4.7676,-4.8086,-4.8535,-4.8984,-4.9375,-4.9355,-4.9394,-5.0254,-5.0937,-5.123,-5.0625,-4.9823,-4.8942,-4.8083,-4.7378,-4.679,-4.638,-4.6458,-4.6535,-4.6339,-4.6276,-4.5724,-4.4198,-4.389,-4.3208,-4.1477,-4.1171,-4.1018,-4.0796,-4.0734,-4.0681,-4.0649,-4.0757,-4.0731,-4.0579,-4.0586,-4.0586,-4.0586,-3.8966,-3.8079,-3.8079,-3.6376,-3.5515,-3.5515,-3.5311,-3.5219,-3.5187,-3.5015,-3.5211,-3.8215,-3.7656,-3.7443,-3.9006,-3.9993,0.0,-4.0504,-4.1181,0.0,-4.0766,0.0,0.0,0.0,0.0,0.0,0.0,0.0,0.0,0.0,0.0,0.0,0.0,0.0,0.0,0.0,0.0,0.0,0.0,0.0,0.0,-4.6164,-4.6046,-4.5949,-4.5891,-4.59,-4.6355,-4.7287,-4.7343,-4.8217,-4.9867,-4.9132,-4.9203,-4.9968,-4.9087,-4.8694,-4.8702,-4.8769,-4.879,-4.8792,-4.892,-4.9003,-4.9062,-4.9004,-4.8984,-4.9062,-4.9824,-4.9082,-4.7676,-4.7617,-4.7031,-4.6445,-4.7324,-4.7598,-4.7891,-4.9512,-4.9492,-4.9219,-5.078,-5.0682,-5.0291,-5.1092,-5.1366,-5.1385,-5.1322,-5.0657,-4.9797,-4.8977,-4.8761,-4.8234,-4.6614,-4.6945,-4.7256,-4.6432,-4.6206,-4.5796,-4.4861,-4.461,-4.3923,-4.2233,-4.2015,-4.1664,-4.0802,-4.07,-4.0642,-4.0527,-4.1247,-4.1354,-4.0562,-4.0504,-4.0504,-4.0504,-3.8907,-3.8015,-3.8015,-3.6174,-3.5232,-3.5232,-3.5083,-3.4963,-3.4832,-3.4812,-3.4761,-3.7506,-3.7133,-3.7049,-3.7687,-3.8858,0.0,0.0,-4.1624,-4.2502,-4.2189,-4.3236,0.0,0.0,0.0,0.0,0.0,0.0,0.0,0.0,0.0,0.0,0.0,0.0,0.0,0.0,0.0,0.0,0.0,0.0,0.0,-4.6703,-4.6263,-4.6011,-4.6021,-4.6101,-4.6318,-4.6677,-4.6709,-4.7293,-4.8433,-4.8669,-4.8963,-4.9259,-4.8379,-4.7988,-4.7988,-4.7999,-4.8022,-4.8023,-4.8066,-4.8418,-4.8848,-4.8301,-4.8418,-4.8808,-4.8047,-4.7695,-4.7519,-4.6973,-4.6582,-4.6445,-4.7324,-4.7969,-4.8534,-4.9198,-4.9881,-5.0465,-5.0562,-5.0756,-5.101,-5.1323,-5.1401,-5.1264,-5.0715,-5.0341,-4.9733,-4.8384,-4.8089,-4.7709,-4.6414,-4.6445,-4.6532,-4.6111,-4.6017,-4.5676,-4.4807,-4.46,-4.4111,-4.2942,-4.2273,-4.1774,-4.1407,-4.1388,-4.1358,-4.1304,-4.1604,-4.1431,-4.0554,-4.0496,-4.0496,-4.0496,-3.8769,-3.7811,-3.7811,-3.598,-3.5008,-3.5008,-3.4851,-3.4722,-3.4678,-3.4502,-3.439,-3.6731,-3.6482,-3.6554,-3.6805,0.0,0.0,-4.0422,-4.1898,-4.3026,-4.2747,-4.3816,0.0,0.0,0.0,0.0,0.0,0.0,0.0,0.0,0.0,0.0,0.0,0.0,0.0,0.0,0.0,0.0,0.0,0.0,0.0,0.0,-4.6448,-4.6161,-4.6167,-4.6245,-4.6308,-4.6308,-4.6308,-4.6601,-4.7207,-4.7793,-4.8223,-4.8457,-4.7598,-4.7187,-4.7187,-4.7187,-4.7187,-4.7187,-4.7187,-4.7539,-4.8047,-4.7734,-4.7793,-4.7969,-4.7051,-4.6914,-4.7109,-4.6504,-4.6308,-4.6445,-4.7324,-4.8007,-4.8533,-4.8826,-4.9878,-5.087,-5.0264,-5.0705,-5.1341,-5.1338,-5.134,-5.1185,-5.0596,-5.0228,-4.9683,-4.8547,-4.8073,-4.7606,-4.6633,-4.645,-4.6336,-4.5954,-4.5872,-4.5669,-4.5082,-4.4892,-4.453,-4.3665,-4.2996,-4.2489,-4.2239,-4.245,-4.2393,-4.1846,-4.2297,-4.1989,-4.0593,-4.0691,-4.0729,-4.0516,-3.8933,-3.8093,-3.8093,-3.6416,-3.5557,-3.5557,-3.5108,-3.4884,-3.4866,-3.4411,-3.4197,-3.5838,-3.5602,-3.579,0.0,0.0,0.0,-4.0422,-4.1898,-4.2872,-4.2016,0.0,0.0,0.0,0.0,0.0,0.0,0.0,0.0,0.0,0.0,0.0,0.0,0.0,0.0,0.0,0.0,0.0,0.0,0.0,0.0,0.0,-4.6305,-4.6307,-4.6307,-4.6308,-4.6308,-4.6308,-4.6308,-4.6308,-4.6308,-4.6308,-4.6758,-4.7558,-4.6699,-4.6308,-4.6308,-4.6308,-4.6308,-4.6308,-4.6308,-4.6308,-4.6387,-4.7246,-4.7051,-4.6406,-4.7266,-4.7031,-4.6308,-4.6308,-4.6308,-4.6445,-4.7304,-4.7596,-4.7771,-4.8627,-4.9465,-5.0107,-5.0101,-5.0635,-5.1209,-5.1207,-5.1199,-5.1206,-5.1207,-5.0476,-4.9796,-4.9779,-4.9091,-4.8222,-4.7365,-4.7195,-4.6915,-4.6055,-4.5835,-4.58,-4.58,-4.5684,-4.5287,-4.4412,-4.4297,-4.3989,-4.3201,-4.3816,-4.3624,-4.1962,-4.3335,-4.3201,-4.0669,-4.1128,-4.1206,-4.0527,-3.9472,-3.8888,-3.8888,-3.7643,-3.7,-3.7,-3.6006,-3.551,-3.5473,-3.4606,-3.4197,-3.5908,-3.5631,0.0,0.0,0.0,0.0,0.0,-4.2375,0.0,0.0,0.0,0.0,0.0,0.0,0.0,0.0,0.0,0.0,0.0,0.0,0.0,0.0,0.0,0.0,0.0,0.0,0.0,0.0,0.0,0.0,0.0,-4.6308,-4.6308,-4.6308,-4.6308,-4.6308,-4.6308,-4.6308,-4.6308,-4.6308,-4.6308,-4.6445,-4.668,-4.6426,-4.6308,-4.6308,-4.6308,-4.6308,-4.6308,-4.6308,-4.6308,-4.6328,-4.6582,-4.6523,-4.6328,-4.6582,-4.6523,-4.6307,-4.6307,-4.6307,-4.6344,-4.6597,-4.7512,-4.8445,-4.8093,-4.9337,-5.0742,-5.0134,-5.0486,-5.1069,-5.1058,-5.1027,-5.1004,-5.1042,-5.042,-4.9621,-4.9027,-4.8197,-4.7301,-4.639,-4.6216,-4.6093,-4.5746,-4.5665,-4.5651,-4.5651,-4.5629,-4.5287,-4.4412,-4.4297,-4.4201,-4.397,-4.4162,-4.4105,-4.3605,-4.3847,-4.3187,-4.1263,-4.1195,-4.0947,-4.0297,-3.9123,-3.8474,-3.8474,-3.736,-3.6783,-3.6783,-3.6496,-3.6049,-3.5491,-3.5231,-3.4804,-3.5792,0.0,0.0,0.0,0.0,0.0,0.0,0.0,0.0,0.0,0.0,0.0,0.0,0.0,0.0,0.0,0.0,0.0,0.0,0.0,0.0,0.0,0.0,0.0,0.0,0.0,0.0,0.0,0.0,0.0,0.0,-4.6113,-4.6308,-4.6308,-4.6308,-4.6308,-4.6308,-4.6308,-4.6308,-4.6308,-4.6308,-4.6308,-4.6308,-4.6308,-4.6308,-4.6308,-4.6308,-4.6308,-4.6308,-4.6308,-4.6308,-4.6308,-4.6308,-4.6308,-4.6308,-4.6308,-4.6308,-4.6307,-4.6306,-4.6304,-4.6301,-4.63,-4.7206,-4.8144,-4.7262,-4.8461,-4.9949,-4.9069,-4.936,-4.9925,-4.9925,-4.9853,-4.9903,-5.0338,-4.9769,-4.8972,-4.8461,-4.7416,-4.6505,-4.6287,-4.5963,-4.57,-4.5612,-4.5594,-4.5594,-4.5594,-4.5594,-4.5421,-4.4874,-4.4816,-4.4771,-4.4671,-4.4661,-4.448,-4.401,-4.3859,-4.308,-4.1385,-4.1086,-4.0658,-3.9948,-3.9173,-3.8782,-3.8782,-3.8051,-3.7652,-3.7652,-3.7318,-3.6928,-3.6439,-3.5807,-3.5231,-3.5607,0.0,0.0,0.0,0.0,0.0,0.0,0.0,0.0,0.0,0.0,0.0,0.0,0.0,0.0,0.0,0.0,0.0,0.0,0.0,0.0,0.0,0.0,0.0,0.0,0.0,0.0,0.0,0.0,0.0,0.0,-4.5703,-4.6172,-4.6172,-4.6269,-4.6308,-4.6308,-4.6308,-4.6308,-4.6308,-4.6308,-4.6308,-4.6308,-4.6308,-4.6308,-4.6308,-4.6308,-4.6308,-4.6308,-4.6308,-4.6308,-4.6308,-4.6308,-4.6308,-4.6308,-4.6307,-4.6306,-4.6306,-4.6302,-4.63,-4.6277,-4.627,-4.6787,-4.7223,-4.6348,-4.7202,-4.8308,-4.7423,-4.7721,-4.8287,-4.8287,-4.818,-4.8305,-4.9158,-4.8662,-4.799,-4.799,-4.6721,-4.5825,-4.6624,-4.6144,-4.5594,-4.5594,-4.5594,-4.5594,-4.5594,-4.5594,-4.5594,-4.5594,-4.5577,-4.5476,-4.5222,-4.518,-4.4739,-4.3713,-4.3576,-4.2882,-4.1268,-4.0916,-4.0365,-3.9496,-3.9458,-3.9458,-3.9458,-3.9219,-3.9101,-3.9101,-3.8377,-3.7968,-3.7856,-3.6402,-3.564,0.0,-3.6139,0.0,0.0,0.0,0.0,0.0,0.0,0.0,0.0,0.0,0.0,0.0,0.0,0.0,0.0,0.0,0.0,0.0,0.0,0.0,0.0,0.0,0.0,0.0,0.0,0.0,0.0,0.0,0.0,-4.3984,-4.4805,-4.5273,-4.5273,-4.5937,-4.6308,-4.6308,-4.6308,-4.6308,0.0,-4.6308,-4.6308,-4.6308,-4.6308,-4.6308,-4.6308,-4.6308,-4.6308,-4.6308,-4.6308,-4.6308,-4.6308,-4.6308,-4.6308,-4.6307,-4.6307,-4.6304,-4.6296,-4.6295,-4.6234,-4.6134,-4.6147,-4.6645,-4.7072,-4.6212,-4.7065,-4.8165,-4.7293,-4.7569,-4.815,-4.815,-4.8114,-4.7999,-4.7582,-4.7325,-4.7154,-4.7154,-4.6336,-4.5671,-4.5845,-4.5729,-4.5594,-4.5594,-4.5594,-4.5594,-4.5594,-4.5594,-4.5594,-4.5594,-4.5419,-4.5253,-4.5211,-4.5019,-4.4804,-4.4535,-4.3762,-4.2868,-4.187,-4.0977,-4.0104,-3.9215,-3.9197,-3.9197,-3.9197,-3.9129,-3.9101,-3.9101,-3.8934,-3.8525,-3.7894,-3.7541,-3.6718,0.0,0.0,0.0,0.0,0.0,0.0,0.0,0.0,0.0,0.0,0.0,0.0,0.0,0.0,0.0,0.0,0.0,0.0,0.0,0.0,0.0,0.0,0.0,0.0,0.0,0.0,0.0,0.0,0.0,-4.3086,-4.3086,-4.3906,-4.4375,-4.4375,-4.4824,-4.5058,-4.5058,-4.5058,-4.5058,-4.5058,-4.5058,-4.5273,-4.5683,-4.6113,-4.6308,-4.6308,-4.6308,-4.6308,-4.6308,-4.6308,-4.6308,-4.6308,-4.6308,-4.6307,-4.6305,-4.6302,-4.6252,-4.6208,-4.6201,-4.6115,-4.6,-4.6,-4.6245,-4.6441,-4.5989,-4.6401,-4.6912,-4.646,-4.6598,-4.6894,-4.6894,-4.6894,-4.6797,-4.6374,-4.6605,-4.6797,-4.6374,-4.5913,-4.5594,-4.5594,-4.5594,-4.5594,-4.5594,-4.5594,-4.5559,-4.5429,-4.541,-4.5352,-4.5232,-4.5096,-4.4954,-4.4837,-4.4701,-4.4533,-4.4374,-4.3502,-4.2598,-4.1731,-4.0791,-3.9892,-3.9044,-3.8989,-3.9031,-3.9101,-3.9101,-3.9101,-3.9101,-3.9101,-3.8762,-3.8132,-3.7745,-3.7061,0.0,0.0,0.0,0.0,0.0,0.0,0.0,0.0,0.0,0.0,0.0,0.0,0.0,0.0,0.0,0.0,0.0,0.0,0.0,0.0,0.0,0.0,0.0,0.0,0.0,0.0,0.0,0.0,0.0,-4.2187,-4.2187,-4.3008,-4.3476,-4.3476,-4.3613,-4.3691,-4.3691,-4.3691,-4.3691,-4.3691,-4.3848,-4.4297,-4.5039,-4.5898,-4.6308,-4.6308,-4.6308,-4.6308,-4.6308,-4.6308,-4.6308,-4.6306,-4.6265,-4.6261,-4.6254,-4.6241,-4.6153,-4.6063,-4.6064,-4.5983,-4.5872,-4.5872,-4.5828,-4.5764,-4.5764,-4.5692,-4.5594,-4.5594,-4.5594,-4.5594,-4.5594,-4.5594,-4.5594,-4.5594,-4.6144,-4.649,-4.5768,-4.5594,-4.5594,-4.5594,-4.5594,-4.5594,-4.5594,-4.5568,-4.5467,-4.5232,-4.5169,-4.5052,-4.48,-4.4739,-4.4624,-4.4402,-4.4318,-4.4177,-4.3897,-4.3124,-4.2316,-4.1551,-4.0609,-3.9797,-3.9132,-3.8907,-3.8859,-3.897,-3.897,-3.897,-3.897,-3.8894,-3.8666,-3.8255,-3.7598,-3.7089,0.0,0.0,0.0,0.0,0.0,0.0,0.0,0.0,0.0,0.0,0.0,0.0,0.0,0.0,0.0,0.0,0.0,0.0,0.0,0.0,0.0,0.0,0.0,0.0,0.0,0.0,0.0,0.0,-4.1308,-4.1367,-4.1367,-4.2129,-4.2578,-4.2578,-4.3301,-4.3691,-4.3691,-4.3691,-4.3691,-4.3711,-4.4473,-4.4883,-4.5039,-4.5898,-4.6308,-4.6308,-4.6308,-4.6308,-4.6307,-4.6307,-4.6306,-4.6281,-4.6177,-4.6133,-4.6114,-4.599,-4.5939,-4.593,-4.5925,-4.5889,-4.5815,-4.5815,-4.5727,-4.5629,-4.5629,-4.5612,-4.5594,-4.5594,-4.5594,-4.5594,-4.5594,-4.5594,-4.5594,-4.5594,-4.5691,-4.5748,-4.5633,-4.5594,-4.5594,-4.5594,-4.5594,-4.5594,-4.5594,-4.541,-4.5243,-4.5211,-4.5007,-4.4812,-4.4733,-4.4506,-4.4332,-4.4236,-4.4036,-4.3867,-4.382,-4.301,-4.2474,-4.2348,-4.0942,-4.0055,-3.9944,-3.8933,-3.8389,-3.8421,-3.8421,-3.8421,-3.8421,-3.8059,-3.7856,-3.7788,-3.768,-3.7231,0.0,0.0,0.0,0.0,0.0,0.0,0.0,0.0,0.0,0.0,0.0,0.0,0.0,0.0,0.0,0.0,0.0,0.0,0.0,0.0,0.0,0.0,0.0,0.0,0.0,0.0,0.0,0.0,-4.1191,-4.1191,-4.1191,-4.1543,-4.1738,-4.1738,-4.2109,-4.2284,-4.2239,-4.2239,-4.2213,-4.2196,-4.3035,-4.3699,-4.4186,-4.5067,-4.5769,-4.6308,-4.6308,-4.6265,-4.6192,-4.6188,-4.6147,-4.6063,-4.6013,-4.5987,-4.5981,-4.5915,-4.5872,-4.5841,-4.5841,-4.5787,-4.5692,-4.5692,-4.5654,-4.5594,-4.5594,-4.5594,-4.5594,-4.5594,-4.5594,-4.5594,-4.5594,-4.5594,-4.5594,-4.5594,-4.5594,-4.5594,-4.5594,-4.5594,-4.5559,-4.541,-4.5253,-4.514,-4.514,-4.503,-4.4861,-4.4726,-4.4559,-4.4402,-4.4225,-4.4094,-4.402,-4.3974,-4.3867,-4.3771,-4.3684,-4.3336,-4.2914,-4.2421,-4.1317,-4.0373,-3.9666,-3.87,-3.8082,-3.786,-3.7927,-3.7959,-3.7959,-3.7788,-3.756,-3.7306,-3.7306,-3.7071,0.0,0.0,0.0,0.0,0.0,0.0,0.0,0.0,0.0,0.0,0.0,0.0,0.0,0.0,0.0,0.0,0.0,0.0,0.0,0.0,0.0,0.0,0.0,0.0,0.0,0.0,0.0,0.0,-4.1168,-4.1146,-4.1146,-4.1146,-4.1146,-4.1146,-4.1146,-4.1138,-4.1074,-4.1074,-4.1057,-4.101,-4.1815,-4.2533,-4.3192,-4.4075,-4.4865,-4.5576,-4.5807,-4.5945,-4.6039,-4.5832,-4.5804,-4.5891,-4.588,-4.5878,-4.5875,-4.584,-4.5783,-4.5749,-4.5749,-4.5684,-4.5594,-4.5594,-4.5594,-4.5594,-4.5594,-4.5594,-4.5594,-4.5594,-4.5594,-4.5594,-4.5594,-4.5594,-4.5594,-4.5594,-4.5594,-4.5577,-4.5513,-4.5504,-4.5419,-4.514,-4.4908,-4.4763,-4.4763,-4.465,-4.4511,-4.4303,-4.4162,-4.4017,-4.3786,-4.3736,-4.3736,-4.3738,-4.3719,-4.3686,-4.3582,-4.3565,-4.3309,-4.2635,-4.156,-4.0533,-3.9639,-3.8436,-3.765,-3.7358,-3.7342,-3.738,-3.7506,-3.738,-3.7156,-3.6823,-3.6823,-3.6739,0.0,0.0,0.0,0.0,0.0,0.0,0.0,0.0,0.0,0.0,0.0,0.0,0.0,0.0,0.0,0.0,0.0,0.0,0.0,0.0,0.0,0.0,0.0,0.0,0.0,0.0,0.0,0.0,-4.1054,-4.1003,-4.1003,-4.1003,-4.1003,-4.1003,-4.1003,-4.1019,-4.1016,-4.1016,-4.0994,-4.101,-4.1815,-4.2218,-4.2302,-4.3162,-4.3568,-4.3599,-4.4428,-4.5204,-4.5857,-4.5083,-4.522,-4.5894,-4.5835,-4.5821,-4.58,-4.5668,-4.5612,-4.5603,-4.5603,-4.5603,-4.5594,-4.5594,-4.5594,-4.5594,-4.5594,-4.5594,-4.5594,-4.5594,-4.5594,-4.5594,-4.5594,-4.5594,-4.5594,-4.5594,-4.5594,-4.5522,-4.5282,-4.5222,-4.5129,-4.4861,-4.4751,-4.472,-4.472,-4.4443,-4.4221,-4.4206,-4.3989,-4.3769,-4.3634,-4.3599,-4.36,-4.3513,-4.3515,-4.3515,-4.3515,-4.3515,-4.3496,-4.3441,-4.1611,-4.0491,-4.0437,-3.8196,-3.6958,-3.6939,-3.6557,-3.6557,-3.6939,-3.6557,-3.6346,-3.6343,-3.6343,-3.6343,0.0,0.0,0.0,0.0,0.0,0.0,0.0,0.0,0.0,0.0,0.0,0.0,0.0,0.0,0.0,0.0,0.0,0.0,0.0,0.0,0.0,0.0,0.0,0.0,0.0,0.0,0.0,0.0,0.0,-4.099,-4.099,-4.099,-4.099,-4.099,-4.099,-4.099,-4.0937,-4.0898,-4.0853,-4.0812,-4.1108,-4.1505,-4.2019,-4.2334,-4.2743,-4.3195,-4.2995,-4.3381,-4.4189,-4.4457,-4.4679,-4.4923,-4.546,-4.5668,-4.566,-4.562,-4.5594,-4.5594,-4.5594,-4.5594,-4.5594,-4.5594,-4.5594,-4.5594,-4.5594,-4.5594,-4.5594,-4.5594,-4.5594,-4.5594,-4.5594,-4.5594,-4.5559,-4.5371,-4.5342,-4.5222,-4.4788,-4.4825,-4.4849,-4.4533,-4.4322,-4.4166,-4.414,-4.3936,-4.3809,-4.3809,-4.3699,-4.3583,-4.3531,-4.309,-4.276,-4.2727,-4.2268,-4.2176,-4.269,-4.2727,-4.2825,-4.3105,-4.147,-4.0472,-4.0433,-3.8168,-3.7026,-3.728,-3.6644,-3.6385,-3.6512,-3.6385,-3.6301,-3.6301,-3.6301,-3.6301,-3.5918,0.0,0.0,0.0,0.0,0.0,0.0,0.0,0.0,0.0,0.0,0.0,0.0,0.0,0.0,0.0,0.0,0.0,0.0,0.0,0.0,0.0,0.0,0.0,0.0,0.0,0.0,0.0,0.0,0.0,-4.0932,-4.0932,-4.0932,-4.0932,-4.0932,-4.0906,-4.0877,-4.0808,-4.0746,-4.07,-4.0687,-4.0956,-4.1461,-4.1461,-4.1747,-4.221,-4.1671,-4.2078,-4.3213,-4.3791,-4.4133,-4.4393,-4.5267,-4.5594,-4.5594,-4.5594,-4.5594,-4.5594,-4.5594,-4.5594,-4.5594,-4.5594,-4.5594,-4.5594,-4.5594,-4.5594,-4.5594,-4.5594,-4.5594,-4.5577,-4.5495,-4.5371,-4.5243,-4.5074,-4.5,-4.4884,-4.4425,-4.4479,-4.4533,-4.4221,-4.3971,-4.3783,-4.3736,-4.3634,-4.3565,-4.3565,-4.3513,-4.3515,-4.3515,-4.28,-4.2304,-4.2304,-4.147,-4.1221,-4.2007,-4.1957,-4.2123,-4.2619,-4.1278,-4.0446,-4.0397,-3.8283,-3.7238,-3.7495,-3.6697,-3.6301,-3.6301,-3.6301,-3.6301,-3.6301,-3.6301,-3.6237,0.0,0.0,0.0,0.0,0.0,0.0,0.0,0.0,0.0,0.0,0.0,0.0,0.0,0.0,0.0,0.0,0.0,0.0,0.0,0.0,0.0,0.0,0.0,0.0,0.0,0.0,0.0,0.0,-4.0843,-4.0797,-4.0797,-4.0797,-4.0797,-4.0797,-4.0797,-4.079,-4.079,-4.0733,-4.0694,-4.0694,-4.0628,-4.0605,-4.0607,-4.0607,-4.0565,-4.0496,-4.0496,-4.1458,-4.3028,-4.3047,-4.3547,-4.4355,-4.5229,-4.5575,-4.5594,-4.5594,-4.5594,-4.5594,-4.5594,-4.5594,-4.5594,-4.5594,-4.5594,-4.5594,-4.5594,-4.5594,-4.5594,-4.5586,-4.5586,-4.5522,-4.5243,-4.4931,-4.4707,-4.4695,-4.4637,-4.4519,-4.425,-4.4236,-4.4206,-4.3926,-4.3716,-4.3599,-4.3599,-4.3531,-4.3515,-4.3515,-4.3515,-4.3496,-4.3478,-4.2763,-4.2251,-4.2233,-4.1157,-4.0727,-4.1487,-4.1256,-4.1397,-4.2106,-4.1054,-4.0393,-4.0371,-3.853,-3.7512,-3.7512,-3.6697,-3.6301,-3.6301,-3.6301,-3.6301,-3.6301,-3.6301,-3.611,-3.5937,0.0,0.0,0.0,0.0,0.0,0.0,0.0,0.0,0.0,0.0,0.0,0.0,0.0,0.0,0.0,0.0,0.0,0.0,0.0,0.0,0.0,0.0,0.0,0.0,0.0,0.0,0.0,-4.0815,-4.0797,-4.0797,-4.0797,-4.0797,-4.0797,-4.0746,-4.0733,-4.0733,-4.0661,-4.0626,-4.0636,-4.061,-4.0569,-4.0531,-4.0531,-4.0523,-4.0496,-4.0496,-4.0766,-4.1266,-4.1893,-4.2662,-4.3508,-4.4335,-4.5037,-4.5594,-4.5594,-4.5594,-4.5594,-4.5594,-4.5594,-4.5594,-4.5594,-4.5594,-4.5594,-4.5594,-4.5594,-4.5559,-4.5381,-4.5282,-4.518,-4.4849,-4.4701,-4.4585,-4.4388,-4.4318,-4.4236,-4.3958,-4.3862,-4.3779,-4.3699,-4.3632,-4.3582,-4.3549,-4.3496,-4.3515,-4.3515,-4.3515,-4.3277,-4.2708,-4.168,-4.0978,-4.0924,-3.9842,-3.9441,-4.023,-4.074,-4.0986,-4.0905,-4.058,-4.0241,-3.9909,-3.8355,-3.7512,-3.7512,-3.6697,-3.6276,-3.6229,-3.6276,-3.6301,-3.6301,-3.6067,-3.5893,0.0,0.0,0.0,0.0,0.0,0.0,-3.5953,-3.5948,0.0,0.0,0.0,0.0,0.0,0.0,0.0,0.0,0.0,0.0,0.0,0.0,0.0,0.0,0.0,0.0,0.0,-4.0797,-4.0797,-4.0797,-4.0797,-4.079,-4.0752,-4.072,-4.0713,-4.0713,-4.0674,-4.0661,-4.0661,-4.0626,-4.0591,-4.0607,-4.0573,-4.0539,-4.0496,-4.0496,-4.0496,-4.0496,-4.0496,-4.0496,-4.0535,-4.1046,-4.1777,-4.2681,-4.3835,-4.4605,-4.5094,-4.5479,-4.5594,-4.5594,-4.5594,-4.5594,-4.5594,-4.5594,-4.5594,-4.5577,-4.5429,-4.54,-4.5332,-4.5022,-4.4849,-4.4688,-4.4479,-4.4313,-4.414,-4.3999,-4.3936,-4.3876,-4.3701,-4.3617,-4.3565,-4.3582,-4.3565,-4.3566,-4.3515,-4.3515,-4.3515,-4.3515,-4.3515,-4.3151,-4.2171,-4.1141,-4.0293,-3.9752,-3.8611,-3.822,-3.902,-3.9635,-4.0024,-4.0092,-4.0356,-4.0389,-4.0128,-3.8637,-3.7784,-3.7784,-3.6741,-3.6045,-3.5766,-3.6131,-3.6156,-3.5902,-3.5677,-3.5407,0.0,0.0,0.0,0.0,0.0,0.0,-3.5889,-3.5843,-3.5791,0.0,0.0,0.0,0.0,0.0,0.0,0.0,0.0,0.0,0.0,0.0,0.0,0.0,0.0,0.0,-4.0797,-4.079,-4.079,-4.079,-4.0784,-4.0752,-4.0694,-4.0628,-4.0595,-4.0595,-4.0607,-4.0607,-4.0607,-4.0583,-4.058,-4.058,-4.0531,-4.0496,-4.0496,-4.0496,-4.0496,-4.0496,-4.0496,-4.0496,-4.0496,-4.0496,-4.1008,-4.1962,-4.3547,-4.422,-4.4412,-4.5287,-4.5594,-4.5605,-4.5568,-4.5559,-4.5559,-4.5513,-4.5504,-4.5438,-4.5129,-4.5052,-4.4966,-4.4631,-4.4341,-4.4117,-4.4117,-4.3857,-4.3582,-4.3582,-4.3531,-4.3515,-4.3515,-4.3441,-4.3422,-4.3546,-4.3531,-4.3515,-4.3515,-4.3388,-4.3317,-4.3427,-4.3227,-4.272,-4.1633,-4.0745,-3.9806,-3.8755,-3.7623,-3.7259,-3.7959,-3.8387,-3.8813,-3.9382,-4.0057,-4.0381,-4.0295,-3.8858,-3.8019,-3.7865,-3.6508,-3.5571,-3.5105,-3.5776,-3.5798,-3.5283,-3.5115,-3.4754,0.0,0.0,0.0,0.0,0.0,0.0,-3.5827,-3.5819,-3.5791,0.0,0.0,0.0,0.0,0.0,0.0,0.0,0.0,0.0,0.0,0.0,0.0,0.0,0.0,0.0,-4.0797,-4.0746,-4.0726,-4.0726,-4.0668,-4.0628,-4.0621,-4.0614,-4.0595,-4.0595,-4.0598,-4.0603,-4.0603,-4.0546,-4.0523,-4.0523,-4.0516,-4.0496,-4.0496,-4.0496,-4.0496,-4.0496,-4.0496,-4.0496,-4.0496,-4.0496,-4.1008,-4.1904,-4.2931,-4.372,-4.4412,-4.5287,-4.5594,-4.5568,-4.5352,-4.5292,-4.5232,-4.4954,-4.4891,-4.4849,-4.472,-4.4714,-4.4618,-4.4219,-4.3931,-4.3697,-4.3647,-4.3582,-4.3513,-4.3513,-4.3515,-4.3515,-4.3515,-4.2983,-4.2727,-4.3403,-4.3515,-4.3515,-4.3515,-4.2702,-4.2268,-4.2922,-4.1648,-4.0504,-4.0211,-3.9244,-3.8475,-3.8234,-3.7704,-3.7451,-3.7607,-3.8124,-3.8236,-3.7811,-3.8397,-3.8482,-3.7826,-3.7496,-3.6837,-3.5811,-3.498,-3.4552,-3.4552,-3.4695,-3.4719,-3.4576,-3.4243,-3.4011,0.0,0.0,0.0,-3.5819,0.0,0.0,0.0,-3.5753,-3.5741,-3.5741,0.0,0.0,0.0,0.0,0.0,0.0,0.0,0.0,0.0,0.0,0.0,0.0,0.0,0.0,-4.0069,-4.0069,-4.021,-4.0615,-4.0619,-4.0598,-4.0598,-4.0564,-4.0557,-4.0557,-4.0554,-4.0539,-4.0539,-4.0523,-4.0496,-4.0496,-4.0496,-4.0496,-4.0496,-4.0496,-4.0496,-4.0496,-4.0496,-4.0496,-4.0496,-4.0496,-4.0691,-4.1142,-4.2552,-4.3585,-4.4385,-4.5131,-4.541,-4.5352,-4.5052,-4.4962,-4.4908,-4.4714,-4.465,-4.4612,-4.4359,-4.418,-4.393,-4.3323,-4.3332,-4.3531,-4.3515,-4.3515,-4.3515,-4.3515,-4.3515,-4.3463,-4.325,-4.2576,-4.2049,-4.2268,-4.1977,-4.1905,-4.2503,-4.1597,-4.094,-4.1335,-4.0554,-3.9663,-3.9039,-3.88,-3.8313,-3.7297,-3.7382,-3.7318,-3.6892,-3.7485,-3.7676,-3.7227,-3.7815,-3.8024,-3.7609,-3.6924,-3.5954,-3.4625,-3.4012,-3.3735,-3.3811,-3.3531,-3.3556,-3.3887,-3.3672,-3.3471,0.0,0.0,0.0,0.0,0.0,-3.575,0.0,0.0,0.0,-3.5892,0.0,0.0,0.0,0.0,0.0,0.0,0.0,0.0,0.0,0.0,0.0,0.0,0.0,0.0,0.0,-3.9295,-3.9713,-4.0516,-4.0441,-4.0426,-4.058,-4.0377,-4.0342,-4.0496,-4.0496,-4.0496,-4.0496,-4.0496,-4.0496,-4.0496,-4.0496,-4.0496,-4.0496,-4.0496,-4.0496,-4.0496,-4.0465,-4.0449,-4.0441,-4.0389,-4.0363,-4.0521,-4.2139,-4.3152,-4.3751,-4.4399,-4.4745,-4.4816,-4.4487,-4.4466,-4.4572,-4.4452,-4.4279,-4.4116,-4.3964,-4.3599,-4.3167,-4.2671,-4.3002,-4.3515,-4.3515,-4.3515,-4.3479,-4.3392,-4.3375,-4.3231,-4.2664,-4.192,-4.1249,-4.0922,-4.0019,-3.9759,-4.1124,-4.034,-3.966,-3.9943,-3.9546,-3.8963,-3.8284,-3.8482,-3.807,-3.646,-3.6827,-3.6922,-3.6217,-3.6671,-3.6925,-3.6701,-3.7187,-3.7432,-3.732,-3.6115,-3.4963,-3.386,-3.3329,-3.3039,-3.3039,-3.2614,-3.2668,-3.3224,-3.3156,-3.3016,0.0,0.0,0.0,0.0,-3.5716,0.0,0.0,0.0,-3.5819,-3.6592,0.0,0.0,0.0,0.0,0.0,0.0,0.0,0.0,0.0,0.0,0.0,0.0,0.0,0.0,0.0,-3.8882,-3.9637,-4.0454,-3.985,-3.9754,-4.0466,-3.9823,-3.9765,-4.0477,-4.0496,-4.0496,-4.0496,-4.0496,-4.0496,-4.0496,-4.0496,-4.0496,-4.0496,-4.0496,-4.0496,-4.0489,-4.0313,-4.0242,-4.0223,-3.9983,-4.0295,-4.0945,-4.1417,-4.1541,-4.1554,-4.2333,-4.3076,-4.3648,-4.3318,-4.3666,-4.4206,-4.3825,-4.3201,-4.2693,-4.3361,-4.3034,-4.2561,-4.3185,-4.3441,-4.3515,-4.3515,-4.3515,-4.341,-4.305,-4.2957,-4.2664,-4.1558,-4.0672,-4.01,-4.0043,-3.8523,-3.7856,-3.9775,-3.9093,-3.8775,-4.0127,-3.8286,-3.7157,-3.8394,-3.7392,-3.6461,-3.6242,-3.6191,-3.6143,-3.6036,-3.5973,-3.5763,-3.5272,-3.5198,-3.4945,-3.4504,-3.3851,-3.3461,-3.3287,-3.2761,-3.2492,-3.2492,-3.2425,-3.2437,-3.252,-3.2508,-3.248,0.0,0.0,0.0,0.0,0.0,0.0,-3.6184,0.0,-3.6395,0.0,0.0,0.0,0.0,0.0,0.0,0.0,-3.5066,0.0,0.0,0.0,0.0,0.0,0.0,0.0,0.0,0.0,0.0,0.0,-3.8738,-3.8911,-3.9765,-3.8988,-3.915,-4.0458,-4.0054,-4.0035,-4.0496,-4.0496,-4.0449,-4.0321,-4.0321,-4.025,-4.0101,-4.0101,-4.0101,-4.0091,-4.0003,-3.9943,-3.9901,-3.9786,-3.9856,-4.0008,-4.0141,-4.079,-4.1702,-4.1883,-4.2489,-4.3154,-4.2787,-4.319,-4.3828,-4.3615,-4.3293,-4.2892,-4.2286,-4.2525,-4.2763,-4.1699,-4.2066,-4.273,-4.2467,-4.2395,-4.2414,-4.2488,-4.2157,-4.1646,-4.0864,-3.9737,-3.8793,-3.8547,-3.7449,-3.6827,-3.7659,-3.7396,-3.7269,-3.7912,-3.7032,-3.6521,-3.7133,-3.6981,-3.6818,-3.673,-3.6664,-3.6474,-3.6076,-3.5597,-3.5068,-3.4456,-3.4382,-3.4095,-3.3563,-3.3329,-3.3039,-3.2749,-3.252,-3.2398,-3.2398,-3.2398,-3.2398,-3.2398,-3.2398,-3.2398,-3.7038,0.0,0.0,0.0,0.0,0.0,0.0,0.0,0.0,0.0,0.0,0.0,0.0,0.0,0.0,0.0,0.0,0.0,0.0,0.0,0.0,0.0,0.0,0.0,0.0,0.0,0.0,-3.7827,-3.7675,-3.7947,-3.8819,-3.8043,-3.8331,-4.0002,-3.9443,-3.9495,-4.0292,-4.0311,-4.0221,-4.0081,-4.0081,-3.9983,-3.9808,-3.9808,-3.9797,-3.9775,-3.9709,-3.966,-3.9571,-3.95,-3.9364,-3.9151,-3.9151,-3.9989,-4.1177,-4.1218,-4.1901,-4.2791,-4.2482,-4.2901,-4.3565,-4.3532,-4.3349,-4.2947,-4.1791,-4.2084,-4.2453,-4.0592,-4.0906,-4.1736,-4.1523,-4.1447,-4.1496,-4.167,-4.1304,-4.0668,-3.9802,-3.8734,-3.7777,-3.7266,-3.687,-3.6628,-3.6586,-3.6586,-3.6586,-3.6569,-3.6526,-3.65,-3.6453,-3.6701,-3.6795,-3.6554,-3.6486,-3.6198,-3.557,-3.5018,-3.4456,-3.3818,-3.364,-3.3381,-3.3002,-3.2986,-3.2788,-3.2425,-3.2567,-3.2675,-3.2675,-3.2875,-3.2967,-3.298,-3.2567,-3.2342,0.0,0.0,0.0,-3.8163,0.0,0.0,0.0,0.0,-3.7737,0.0,0.0,0.0,0.0,0.0,0.0,0.0,0.0,0.0,0.0,0.0,0.0,0.0,0.0,0.0,0.0,0.0,0.0,-3.7366,-3.6821,-3.6831,-3.7708,-3.6916,-3.7224,-3.8897,-3.8727,-3.9005,-3.981,-3.9829,-3.9819,-3.9819,-3.9819,-3.9808,-3.9808,-3.9808,-3.9765,-3.9687,-3.9508,-3.9376,-3.9298,-3.9031,-3.8877,-3.8822,-3.8822,-3.8814,-3.8918,-3.9752,-4.1056,-4.2402,-4.2338,-4.2835,-4.3496,-4.3515,-4.2965,-4.2323,-4.2286,-4.1754,-4.1084,-4.0615,-4.0509,-4.0637,-4.1017,-4.1133,-4.0996,-4.0556,-4.0432,-3.9904,-3.8005,-3.7551,-3.7271,-3.649,-3.696,-3.7417,-3.7303,-3.7259,-3.7281,-3.7269,-3.7158,-3.7069,-3.7086,-3.636,-3.5656,-3.5125,-3.4961,-3.4658,-3.4118,-3.4052,-3.3793,-3.3277,-3.2749,-3.2437,-3.2425,-3.2425,-3.2425,-3.2398,-3.3044,-3.3367,-3.3367,-3.406,-3.4428,-3.4397,-3.3013,-3.2148,0.0,0.0,-3.8994,-3.8981,0.0,0.0,0.0,0.0,0.0,0.0,0.0,0.0,0.0,0.0,0.0,0.0,0.0,0.0,0.0,0.0,0.0,0.0,0.0,0.0,0.0,0.0,0.0,-3.5723,-3.5533,-3.576,-3.6587,-3.5855,-3.6426,-3.8631,-3.8086,-3.8405,-3.9789,-3.9808,-3.9698,-3.9544,-3.9544,-3.9414,-3.9195,-3.9195,-3.92,-3.9173,-3.9101,-3.9031,-3.896,-3.8862,-3.8792,-3.8735,-3.8735,-3.905,-3.946,-3.9234,-4.0152,-4.1695,-4.2743,-4.3276,-4.3515,-4.3515,-4.2947,-4.2161,-4.1355,-4.0921,-4.0398,-3.8924,-3.9282,-4.0066,-3.9881,-3.985,-3.9849,-3.9921,-3.9185,-3.8274,-3.7533,-3.699,-3.6539,-3.6178,-3.6722,-3.7232,-3.7165,-3.749,-3.7621,-3.7233,-3.7142,-3.6758,-3.5822,-3.5887,-3.5761,-3.5119,-3.4586,-3.4239,-3.4191,-3.3429,-3.3045,-3.332,-3.3156,-3.3059,-3.3059,-3.3059,-3.3059,-3.3059,-3.329,-3.3485,-3.3605,-3.3578,-3.3394,-3.304,-3.2289,-3.2176,-3.9605,-3.983,0.0,-3.9448,-3.8952,0.0,-3.7023,0.0,-3.7896,0.0,0.0,0.0,0.0,0.0,0.0,0.0,0.0,0.0,0.0,-3.4542,0.0,0.0,0.0,0.0,0.0,0.0,-3.4641,-3.4641,-3.4722,-3.4989,0.0,0.0,-3.5763,-3.7967,-3.7426,-3.7868,-3.95,-3.9519,-3.9427,-3.9205,-3.9205,-3.9101,-3.891,-3.891,-3.8896,-3.8848,-3.8848,-3.8837,-3.8762,-3.8762,-3.8735,-3.8707,-3.8707,-3.9184,-3.9827,-3.9313,-4.0157,-4.1735,-4.3039,-4.3296,-4.3057,-4.3057,-4.2421,-4.1461,-4.0416,-3.9968,-3.9445,-3.745,-3.7798,-3.8726,-3.8573,-3.8473,-3.8578,-3.9043,-3.8236,-3.7274,-3.6916,-3.6448,-3.6169,-3.6356,-3.661,-3.6881,-3.7106,-3.7299,-3.7254,-3.6806,-3.6721,-3.6286,-3.515,-3.521,-3.5201,-3.4816,-3.4134,-3.3702,-3.363,-3.2877,-3.269,-3.3367,-3.3183,-3.3152,-3.3398,-3.3167,-3.3124,-3.3328,-3.3558,-3.371,-3.3722,-3.3726,-3.3416,-3.2785,-3.234,-3.2373]},{"header":{"parameterUnit":"m.s-1","parameterCategory":1,"la1":30.6,"la2":29.2853,"lo1":-89.7004,"lo2":-87.6739,"dy":0.0162,"dx":0.0183,"nx":112,"ny":82,"refTime":"2023-08-17T06:00:00:Z","depth":0,"parameterNumber":3,"parameterNumberName":"V-component_of_WINDS"},"data":[0.0,0.0,0.0,0.0,0.0,0.0,0.0,0.0,0.0,0.0,0.0,0.0,0.0,0.0,0.0,0.0,0.0,0.0,0.0,0.0,0.0,0.0,0.0,0.0,0.0,0.0,0.0,0.0,0.0,0.0,0.0,0.0,0.0,0.0,0.0,0.0,0.0,0.0,0.0,0.0,0.0,0.0,0.0,0.0,0.0,0.0,0.0,0.0,0.0,0.0,0.0,0.0,0.0,0.0,0.0,0.0,0.0,0.0,0.0,0.0,0.0,0.0,0.0,0.0,0.0,0.0,0.0,0.0,0.0,0.0,0.0,0.0,0.0,0.0,0.0,0.0,0.0,0.0,0.0,0.0,0.0,0.0,0.0,0.0,0.0,0.0,0.0,0.0,0.0,0.0,-0.8042,-0.8343,-0.8536,-0.8662,-0.8704,-0.8034,-0.7472,-0.7128,0.0,0.0,0.0,0.0,0.0,0.0,0.0,0.0,0.0,0.0,0.0,0.0,0.0,0.0,0.0,0.0,0.0,0.0,0.0,0.0,0.0,0.0,0.0,0.0,0.0,0.0,0.0,0.0,0.0,0.0,0.0,0.0,0.0,0.0,0.0,0.0,0.0,0.0,0.0,0.0,0.0,0.0,0.0,0.0,0.0,0.0,0.0,0.0,0.0,0.0,0.0,0.0,0.0,0.0,0.0,0.0,0.0,0.0,0.0,0.0,0.0,0.0,0.0,0.0,0.0,0.0,0.0,0.0,0.0,0.0,0.0,0.0,0.0,0.0,0.0,0.0,0.0,0.0,0.0,0.0,0.0,0.0,0.0,0.0,0.0,0.0,0.0,0.0,0.0,0.0,0.0,0.0,0.0,0.0,0.0,0.0,0.0,0.0,0.0,0.0,0.0,0.0,0.0,0.0,-0.8278,-0.8596,-0.8487,-0.8469,-0.8686,-0.8378,-0.7867,-0.7149,0.0,0.0,0.0,0.0,0.0,0.0,0.0,0.0,0.0,0.0,0.0,0.0,0.0,0.0,0.0,0.0,0.0,0.0,0.0,0.0,0.0,0.0,0.0,0.0,0.0,0.0,0.0,0.0,0.0,0.0,0.0,0.0,0.0,0.0,0.0,0.0,0.0,0.0,0.0,0.0,0.0,0.0,0.0,0.0,0.0,0.0,0.0,0.0,0.0,0.0,0.0,0.0,0.0,0.0,0.0,0.0,0.0,0.0,0.0,0.0,0.0,0.0,0.0,0.0,0.0,0.0,0.0,0.0,0.0,0.0,0.0,0.0,0.0,0.0,0.0,0.0,0.0,0.0,0.0,0.0,0.0,0.0,0.0,0.0,0.0,0.0,0.0,0.0,0.0,0.0,0.0,0.0,0.0,0.0,0.0,0.0,0.0,0.0,0.0,0.0,0.0,0.0,0.0,-0.8367,-0.8525,-0.868,-0.8602,-0.8578,-0.8698,-0.8309,-0.7668,-0.668,-0.6674,0.0,0.0,0.0,0.0,0.0,0.0,0.0,0.0,0.0,0.0,0.0,0.0,0.0,0.0,0.0,0.0,0.0,0.0,0.0,0.0,0.0,0.0,0.0,0.0,0.0,0.0,0.0,0.0,0.0,0.0,0.0,0.0,0.0,0.0,0.0,0.0,0.0,0.0,0.0,0.0,0.0,0.0,0.0,0.0,0.0,0.0,0.0,0.0,0.0,0.0,0.0,0.0,0.0,0.0,0.0,0.0,0.0,0.0,0.0,0.0,0.0,0.0,0.0,0.0,0.0,0.0,0.0,0.0,0.0,0.0,0.0,0.0,0.0,0.0,0.0,0.0,0.0,0.0,0.0,0.0,0.0,0.0,0.0,0.0,0.0,0.0,0.0,0.0,0.0,0.0,0.0,0.0,0.0,0.0,0.0,0.0,0.0,0.0,0.0,0.0,0.0,0.0,-0.8388,-0.8548,-0.8608,-0.856,-0.8548,-0.8608,-0.8165,-0.7408,-0.6263,-0.6756,0.0,0.0,0.0,0.0,0.0,0.0,0.0,0.0,0.0,0.0,0.0,0.0,0.0,0.0,0.0,0.0,0.0,0.0,0.0,0.0,0.0,0.0,0.0,0.0,0.0,0.0,0.0,0.0,0.0,0.0,0.0,0.0,0.0,0.0,0.0,0.0,0.0,0.0,0.0,0.0,0.0,0.0,0.0,0.0,0.0,0.0,0.0,0.0,0.0,0.0,0.0,0.0,0.0,0.0,0.0,0.0,0.0,0.0,0.0,0.0,0.0,0.0,0.0,0.0,0.0,0.0,0.0,0.0,0.0,0.0,0.0,0.0,0.0,0.0,0.0,0.0,0.0,0.0,0.0,0.0,0.0,0.0,0.0,0.0,0.0,0.0,0.0,0.0,0.0,0.0,0.0,0.0,0.0,0.0,0.0,0.0,0.0,0.0,0.0,0.0,0.0,0.0,-0.8065,-0.8051,-0.8291,-0.8099,-0.8051,-0.8297,-0.8063,-0.7408,-0.6263,-0.6756,0.0,0.0,0.0,0.0,0.0,0.0,0.0,0.0,0.0,0.0,0.0,0.0,0.0,0.0,0.0,0.0,0.0,0.0,0.0,0.0,0.0,0.0,0.0,0.0,0.0,0.0,0.0,0.0,0.0,0.0,0.0,0.0,0.0,0.0,0.0,0.0,0.0,0.0,0.0,0.0,0.0,0.0,0.0,0.0,0.0,0.0,0.0,0.0,0.0,0.0,0.0,0.0,0.0,0.0,0.0,0.0,0.0,0.0,0.0,0.0,0.0,0.0,0.0,0.0,0.0,0.0,0.0,0.0,0.0,0.0,0.0,0.0,0.0,0.0,0.0,0.0,0.0,0.0,0.0,0.0,0.0,0.0,0.0,0.0,0.0,0.0,0.0,0.0,0.0,0.0,0.0,0.0,0.0,0.0,0.0,0.0,0.0,0.0,0.0,0.0,0.0,0.0,-0.8181,-0.8177,0.0,-0.8201,-0.8183,-0.8279,-0.7745,-0.7219,-0.6783,0.0,0.0,0.0,0.0,0.0,0.0,0.0,0.0,0.0,0.0,0.0,0.0,0.0,0.0,0.0,0.0,0.0,0.0,0.0,0.0,0.0,0.0,0.0,0.0,0.0,0.0,0.0,0.0,0.0,0.0,0.0,0.0,0.0,0.0,0.0,0.0,0.0,0.0,0.0,0.0,0.0,0.0,0.0,0.0,0.0,0.0,0.0,0.0,0.0,0.0,0.0,0.0,0.0,0.0,0.0,0.0,0.0,0.0,0.0,0.0,0.0,0.0,0.0,0.0,0.0,0.0,0.0,0.0,0.0,0.0,0.0,0.0,0.0,0.0,0.0,0.0,0.0,0.0,0.0,0.0,0.0,0.0,0.0,0.0,0.0,0.0,0.0,0.0,0.0,0.0,0.0,0.0,0.0,0.0,0.0,0.0,0.0,0.0,0.0,0.0,0.0,0.0,-0.8195,-0.8193,-0.8165,0.0,-0.8165,-0.8165,-0.8165,-0.7509,-0.7112,-0.7112,0.0,0.0,0.0,0.0,0.0,0.0,0.0,0.0,0.0,0.0,0.0,0.0,0.0,0.0,0.0,0.0,0.0,0.0,0.0,0.0,0.0,0.0,0.0,0.0,0.0,0.0,0.0,0.0,0.0,0.0,0.0,0.0,0.0,0.0,0.0,0.0,0.0,0.0,0.0,0.0,0.0,0.0,0.0,0.0,0.0,0.0,0.0,0.0,0.0,0.0,0.0,0.0,0.0,0.0,0.0,0.0,0.0,0.0,0.0,0.0,0.0,0.0,0.0,0.0,0.0,0.0,0.0,0.0,0.0,0.0,0.0,0.0,0.0,0.0,0.0,0.0,0.0,0.0,0.0,0.0,0.0,0.0,0.0,0.0,0.0,0.0,0.0,0.0,0.0,0.0,0.0,0.0,0.0,0.0,0.0,0.0,0.0,0.0,0.0,0.0,0.0,0.0,-0.8195,-0.8035,-0.7901,-0.7901,-0.7901,-0.7901,-0.7901,-0.7408,-0.7112,0.0,0.0,0.0,0.0,0.0,0.0,0.0,0.0,0.0,0.0,0.0,0.0,0.0,0.0,0.0,0.0,0.0,0.0,0.0,0.0,0.0,0.0,0.0,0.0,0.0,0.0,0.0,0.0,0.0,0.0,0.0,0.0,0.0,0.0,0.0,0.0,0.0,0.0,0.0,0.0,0.0,0.0,0.0,0.0,0.0,0.0,0.0,0.0,0.0,0.0,0.0,0.0,0.0,0.0,0.0,0.0,0.0,0.0,0.0,0.0,0.0,0.0,0.0,0.0,0.0,0.0,0.0,0.0,0.0,0.0,0.0,0.0,0.0,0.0,0.0,0.0,0.0,0.0,0.0,0.0,0.0,0.0,0.0,0.0,0.0,0.0,0.0,0.0,0.0,0.0,0.0,0.0,0.0,0.0,0.0,0.0,0.0,0.0,0.0,0.0,0.0,0.0,0.0,-0.8008,-0.7928,-0.7901,-0.7901,-0.7901,-0.7901,-0.7901,-0.7408,-0.7112,-0.7112,0.0,0.0,0.0,0.0,0.0,0.0,0.0,0.0,0.0,0.0,0.0,0.0,0.0,0.0,0.0,0.0,0.0,0.0,0.0,0.0,0.0,0.0,0.0,0.0,0.0,0.0,0.0,0.0,0.0,0.0,0.0,0.0,0.0,0.0,0.0,0.0,0.0,0.0,0.0,0.0,0.0,0.0,0.0,0.0,0.0,0.0,0.0,0.0,0.0,0.0,0.0,0.0,0.0,0.0,0.0,0.0,0.0,0.0,0.0,0.0,0.0,0.0,0.0,0.0,0.0,0.0,0.0,0.0,0.0,0.0,0.0,0.0,0.0,0.0,0.0,0.0,0.0,0.0,0.0,0.0,0.0,0.0,0.0,0.0,0.0,0.0,0.0,0.0,0.0,0.0,0.0,0.0,0.0,0.0,0.0,0.0,0.0,0.0,0.0,0.0,0.0,0.0,-0.8066,-0.7967,-0.7937,-0.8045,-0.7961,-0.7901,-0.7901,-0.7408,-0.7112,-0.7112,0.0,0.0,0.0,0.0,0.0,0.0,0.0,0.0,0.0,0.0,0.0,0.0,0.0,0.0,0.0,0.0,0.0,0.0,0.0,0.0,0.0,0.0,0.0,0.0,0.0,0.0,0.0,0.0,0.0,0.0,0.0,0.0,0.0,0.0,0.0,0.0,0.0,0.0,0.0,0.0,0.0,0.0,0.0,0.0,0.0,0.0,0.0,0.0,0.0,0.0,0.0,0.0,0.0,0.0,0.0,0.0,0.0,0.0,0.0,0.0,0.0,0.0,0.0,0.0,0.0,0.0,0.0,0.0,0.0,0.0,0.0,0.0,0.0,0.0,0.0,0.0,0.0,0.0,0.0,0.0,0.0,0.0,0.0,0.0,0.0,0.0,0.0,0.0,0.0,0.0,0.0,0.0,0.0,0.0,0.0,0.0,0.0,0.0,0.0,0.0,0.0,0.0,-0.8261,-0.8081,-0.8027,-0.8261,-0.8057,-0.7901,-0.7901,-0.7467,-0.7139,-0.7031,0.0,0.0,0.0,0.0,0.0,0.0,0.0,0.0,0.0,0.0,0.0,0.0,0.0,0.0,0.0,0.0,0.0,0.0,0.0,0.0,0.0,0.0,0.0,0.0,0.0,0.0,0.0,0.0,0.0,0.0,0.0,0.0,0.0,0.0,0.0,0.0,0.0,0.0,0.0,0.0,0.0,0.0,0.0,0.0,0.0,0.0,0.0,0.0,0.0,0.0,0.0,0.0,0.0,0.0,0.0,0.0,0.0,0.0,0.0,0.0,-1.2089,0.0,0.0,0.0,0.0,0.0,0.0,0.0,0.0,0.0,0.0,0.0,0.0,0.0,0.0,0.0,0.0,0.0,0.0,0.0,0.0,0.0,0.0,0.0,0.0,0.0,0.0,0.0,0.0,0.0,0.0,0.0,0.0,0.0,0.0,0.0,0.0,0.0,0.0,0.0,0.0,0.0,-0.8285,-0.8243,-0.8231,-0.8285,-0.8057,-0.7901,-0.7901,-0.7794,-0.7354,-0.6453,-0.6154,0.0,0.0,0.0,0.0,0.0,0.0,0.0,0.0,0.0,0.0,0.0,0.0,0.0,0.0,0.0,0.0,0.0,0.0,0.0,0.0,0.0,0.0,0.0,0.0,0.0,0.0,0.0,0.0,0.0,0.0,0.0,0.0,0.0,0.0,0.0,0.0,0.0,0.0,0.0,0.0,0.0,0.0,0.0,0.0,0.0,0.0,0.0,0.0,0.0,0.0,0.0,0.0,0.0,0.0,0.0,0.0,0.0,0.0,0.0,0.0,-1.2578,0.0,0.0,0.0,0.0,0.0,0.0,0.0,0.0,0.0,0.0,0.0,0.0,0.0,0.0,0.0,0.0,0.0,0.0,0.0,0.0,0.0,0.0,0.0,0.0,0.0,0.0,0.0,0.0,0.0,0.0,0.0,0.0,0.0,0.0,0.0,0.0,0.0,0.0,0.0,0.0,-0.8674,-0.8584,-0.8554,-0.868,-0.8321,-0.8087,-0.8087,-0.7724,-0.7133,-0.6263,-0.5932,0.0,0.0,0.0,0.0,0.0,0.0,0.0,0.0,0.0,0.0,0.0,0.0,0.0,0.0,0.0,0.0,0.0,0.0,0.0,0.0,0.0,0.0,0.0,0.0,0.0,0.0,0.0,0.0,0.0,0.0,0.0,0.0,0.0,0.0,0.0,0.0,0.0,0.0,0.0,0.0,0.0,0.0,0.0,0.0,0.0,0.0,0.0,0.0,0.0,0.0,0.0,0.0,0.0,-1.355,-1.3652,-1.3652,-1.3652,-1.3652,-1.3622,-1.3127,-1.2862,-1.2777,-1.2777,0.0,0.0,0.0,0.0,0.0,0.0,0.0,0.0,0.0,0.0,0.0,0.0,0.0,0.0,0.0,0.0,0.0,0.0,0.0,0.0,0.0,0.0,0.0,0.0,-1.0328,-1.0232,-0.9757,0.0,0.0,0.0,0.0,0.0,0.0,0.0,0.0,0.0,0.0,0.0,-0.9065,-0.8909,-0.8854,-0.9071,-0.8674,-0.8357,-0.8357,-0.7643,-0.6926,-0.6315,-0.565,-0.5062,0.0,0.0,0.0,0.0,0.0,0.0,0.0,0.0,0.0,0.0,0.0,0.0,0.0,0.0,0.0,0.0,0.0,0.0,0.0,0.0,0.0,0.0,0.0,0.0,0.0,0.0,0.0,0.0,0.0,0.0,0.0,0.0,-1.1827,-1.1938,0.0,0.0,0.0,0.0,0.0,0.0,0.0,0.0,0.0,0.0,0.0,0.0,0.0,-1.3519,-1.3749,-1.4008,-1.4141,-1.4141,-1.4177,-1.4189,-1.4189,-1.4189,-1.4189,-1.4177,-1.3876,0.0,-1.3067,-1.3067,0.0,0.0,0.0,0.0,0.0,0.0,0.0,0.0,0.0,0.0,0.0,0.0,0.0,0.0,0.0,0.0,0.0,0.0,0.0,0.0,0.0,0.0,-1.0815,-1.0394,-1.0466,-1.0551,0.0,-1.023,-1.0158,-0.9901,-0.9886,0.0,0.0,0.0,0.0,0.0,0.0,0.0,-0.9095,-0.9065,-0.9059,-0.9095,-0.8836,-0.8656,-0.8656,-0.7898,-0.7184,-0.6587,-0.575,-0.5062,-0.4515,-0.4491,0.0,0.0,0.0,0.0,0.0,0.0,0.0,0.0,0.0,0.0,0.0,0.0,0.0,0.0,0.0,0.0,0.0,0.0,0.0,0.0,0.0,0.0,0.0,0.0,0.0,0.0,0.0,0.0,0.0,-1.1801,-1.2283,-1.2375,-1.2369,-1.2369,0.0,0.0,0.0,0.0,0.0,0.0,0.0,0.0,0.0,-1.3773,-1.3894,-1.4008,-1.4123,-1.4395,-1.4533,-1.4533,-1.4684,-1.4757,-1.4757,-1.4757,-1.4757,-1.4745,-1.463,-1.4364,-1.3972,-1.3369,-1.2939,-1.2765,0.0,0.0,0.0,0.0,-1.233,-1.2318,-1.1982,-1.1904,0.0,-1.1724,0.0,0.0,0.0,0.0,0.0,0.0,0.0,0.0,0.0,0.0,-1.0833,-1.0755,-1.0858,-1.0869,-1.0755,-1.0731,-1.0611,0.0,-1.0003,-0.9871,-0.9757,0.0,0.0,0.0,0.0,-0.933,-0.933,-0.933,-0.933,-0.933,-0.9089,-0.8927,-0.8927,-0.7793,-0.6988,-0.672,-0.5612,-0.4844,-0.4621,-0.4617,-0.4651,0.0,0.0,0.0,0.0,0.0,0.0,0.0,0.0,0.0,0.0,0.0,0.0,0.0,0.0,0.0,0.0,0.0,0.0,0.0,0.0,0.0,0.0,0.0,0.0,0.0,0.0,0.0,0.0,-1.2098,-1.2617,-1.2668,-1.2825,-1.2886,0.0,0.0,0.0,0.0,0.0,0.0,-1.3701,-1.39,-1.4129,-1.4395,-1.4467,-1.4539,-1.46,-1.4877,-1.5016,-1.5022,-1.5215,-1.5306,-1.5306,-1.5306,-1.5306,-1.5306,-1.524,-1.5101,-1.4841,-1.3839,-1.3387,-1.3296,-1.3019,-1.2868,-1.2789,-1.259,-1.2602,-1.265,-1.2258,-1.2204,-1.2264,-1.1892,-1.17,-1.1555,-1.1383,0.0,0.0,0.0,0.0,-1.1057,-1.1184,-1.1038,-1.096,-1.1081,-1.1111,-1.1111,-1.1111,-1.1111,-1.0972,0.0,-1.0238,-1.0063,-0.9925,0.0,0.0,0.0,0.0,-0.954,-0.9606,-0.9558,-0.9516,-0.9516,-0.9166,-0.9011,-0.9172,-0.7639,-0.6727,-0.6878,-0.5537,-0.4748,-0.4748,-0.4748,-0.4765,-0.4802,0.0,0.0,0.0,0.0,0.0,0.0,0.0,0.0,0.0,0.0,0.0,0.0,0.0,0.0,0.0,0.0,0.0,0.0,0.0,0.0,0.0,0.0,0.0,0.0,0.0,0.0,0.0,0.0,0.0,-1.2735,-1.3163,0.0,0.0,0.0,0.0,-1.3827,-1.3857,-1.3978,-1.4244,-1.4268,-1.4407,-1.469,-1.4938,-1.5185,-1.5439,-1.5698,-1.5831,-1.5831,-1.5843,-1.5849,-1.5849,-1.5849,-1.5849,-1.5837,-1.559,-1.5475,-1.5396,-1.4576,-1.4093,-1.3839,-1.3574,-1.3276,-1.3103,-1.3047,-1.2922,-1.2699,-1.2674,-1.2512,-1.2349,-1.2572,-1.2312,-1.1902,-1.1844,-1.167,0.0,0.0,-1.1832,-1.1766,-1.1531,-1.1459,-1.1387,-1.1172,-1.1111,-1.1111,-1.1111,-1.1111,-1.1033,0.0,-1.0653,-1.0485,-0.9991,0.0,-0.9883,-0.9883,-0.9672,-0.9606,-0.9853,-0.9666,-0.9516,-0.9516,-0.8903,-0.8801,-0.9428,-0.747,-0.6505,-0.7152,-0.5747,-0.4877,-0.4877,-0.4877,-0.4938,-0.5073,-0.4955,0.0,0.0,0.0,0.0,0.0,0.0,0.0,0.0,0.0,0.0,0.0,0.0,0.0,0.0,0.0,0.0,0.0,0.0,0.0,0.0,0.0,0.0,0.0,0.0,0.0,0.0,0.0,0.0,-1.3471,-1.3797,0.0,-1.3888,-1.3966,-1.4057,-1.4153,-1.4322,-1.4539,-1.4805,-1.498,-1.5191,-1.5463,-1.5728,-1.5903,-1.6,-1.6097,-1.6139,-1.6139,-1.597,-1.5891,-1.5891,-1.5891,-1.5891,-1.5885,-1.5795,-1.5753,-1.5716,-1.5258,-1.4708,-1.4129,-1.387,-1.3604,-1.3375,-1.3375,-1.3206,-1.2976,-1.2976,-1.2795,-1.2548,-1.2475,-1.221,-1.188,-1.188,-1.182,-1.176,-1.1856,-1.188,-1.1902,-1.1766,-1.1621,-1.1465,-1.1369,-1.1244,-1.1111,-1.1111,-1.1111,-1.1087,-1.0991,-1.0834,-1.0623,-1.0436,-1.013,-0.9907,-0.9907,-0.9684,-0.9546,-0.9642,-0.9576,-0.9516,-0.9516,-0.8888,-0.8587,-0.885,-0.7316,-0.6436,-0.6658,-0.5639,-0.5022,-0.5022,-0.5022,-0.5049,-0.5096,-0.5179,-0.5155,0.0,0.0,0.0,0.0,0.0,0.0,0.0,0.0,0.0,0.0,0.0,0.0,0.0,0.0,0.0,0.0,0.0,0.0,0.0,0.0,0.0,0.0,0.0,0.0,0.0,0.0,-1.3882,-1.4147,-1.4564,-1.4799,-1.4708,-1.4781,-1.4871,-1.4962,-1.5143,-1.5366,-1.5632,-1.5813,-1.5982,-1.6157,-1.6332,-1.6423,-1.6423,-1.6332,-1.6278,-1.6278,-1.6012,-1.5891,-1.5891,-1.5891,-1.5891,-1.5891,-1.5891,-1.5891,-1.5867,-1.5608,-1.5131,-1.4545,-1.428,-1.396,-1.3634,-1.355,-1.335,-1.3109,-1.3012,-1.2862,-1.2674,-1.2499,-1.227,-1.203,-1.2161,-1.2125,-1.203,-1.2161,-1.2079,-1.1994,-1.1904,-1.1688,-1.1471,-1.1375,-1.1244,-1.1111,-1.1111,-1.1111,-1.1111,-1.1111,-1.0972,-1.0797,-1.0587,-1.034,-1.0112,-0.9931,-0.9835,-0.9745,-0.966,-0.9648,-0.9515,-0.9195,-0.8528,-0.8134,-0.8134,-0.6859,-0.6174,-0.6396,-0.5647,-0.5209,-0.5209,-0.5209,-0.5209,-0.5209,-0.5257,-0.5136,-0.4776,0.0,0.0,0.0,0.0,0.0,0.0,0.0,0.0,0.0,0.0,0.0,0.0,0.0,0.0,0.0,0.0,0.0,0.0,0.0,0.0,0.0,0.0,0.0,-1.3276,-1.3861,-1.4443,-1.4733,-1.5445,-1.5813,-1.5559,-1.5765,-1.6018,-1.6272,-1.6308,-1.6435,-1.6688,-1.67,-1.67,-1.67,-1.6706,-1.6712,-1.6712,-1.6435,-1.6296,-1.629,-1.6018,-1.5891,-1.5891,-1.5891,-1.5891,-1.5891,-1.5891,-1.5891,-1.5867,-1.5614,-1.5354,-1.5095,-1.4823,-1.4389,-1.3888,-1.3634,-1.3369,-1.3053,-1.2807,-1.2705,-1.2705,-1.2705,-1.253,-1.2373,-1.2626,-1.253,-1.2379,-1.2632,-1.2524,-1.2264,-1.1964,-1.17,-1.1435,-1.119,-1.1117,-1.1111,-1.1111,-1.1111,-1.1111,-1.1111,-1.1111,-1.0948,-1.0406,-1.0521,-1.0515,-1.0003,-1.0142,0.0,-0.9949,-0.9874,-0.9534,-0.8625,-0.7809,-0.7354,-0.7354,-0.6148,-0.5686,-0.6334,-0.5752,-0.5395,-0.5395,-0.5395,-0.5395,-0.5395,-0.5181,-0.4753,-0.411,0.0,0.0,0.0,0.0,0.0,0.0,0.0,0.0,0.0,0.0,0.0,0.0,0.0,0.0,0.0,0.0,0.0,0.0,0.0,0.0,0.0,0.0,-1.4106,-1.4262,-1.4791,-1.5336,-1.5795,-1.6223,-1.6453,-1.6374,-1.6435,-1.6507,-1.6579,-1.6592,-1.6628,-1.67,-1.67,-1.67,-1.67,-1.6887,-1.6984,-1.6984,-1.6718,-1.6585,-1.6579,-1.6115,-1.5891,-1.5891,-1.5891,-1.5891,-1.5891,-1.5891,-1.5891,-1.5885,-1.5813,-1.5626,-1.5348,-1.4896,-1.4497,-1.4177,-1.4111,-1.3797,-1.3338,-1.2868,-1.2705,-1.2705,-1.2705,-1.2656,-1.2608,-1.2681,-1.2656,-1.2614,-1.2687,-1.265,-1.2536,-1.2276,-1.2011,-1.1706,-1.1441,-1.1224,-1.1111,-1.1111,-1.1111,-1.1111,-1.1111,-1.1111,-1.1063,-1.0924,-1.0761,-1.0635,-1.0491,-1.037,0.0,-1.0196,-0.9604,-0.9086,-0.8815,-0.7532,-0.6662,-0.6662,-0.5881,-0.5495,-0.5653,-0.5491,-0.5395,-0.5395,-0.5395,-0.5395,-0.5395,-0.4818,-0.4435,0.0,0.0,0.0,0.0,0.0,0.0,0.0,0.0,0.0,0.0,0.0,0.0,0.0,0.0,0.0,0.0,0.0,0.0,0.0,0.0,0.0,0.0,-1.4527,-1.4974,-1.5481,-1.571,-1.6024,-1.6555,-1.6863,-1.7032,-1.7032,-1.7032,-1.7032,-1.7032,-1.7032,-1.7032,-1.7032,-1.7032,-1.7032,-1.7032,-1.7177,-1.7201,-1.7092,-1.6833,-1.664,-1.6519,-1.6097,-1.5891,-1.5891,-1.5891,-1.5891,-1.5891,-1.5891,-1.5891,-1.5879,-1.5771,-1.5572,0.0,0.0,0.0,0.0,0.0,-1.3707,-1.329,-1.2856,-1.2705,-1.2705,-1.2705,-1.2705,-1.2705,-1.2705,-1.2705,-1.2705,-1.2705,-1.2626,-1.2506,-1.2355,-1.2119,-1.182,-1.1555,-1.1369,-1.1256,-1.1135,-1.1111,-1.1111,-1.1111,-1.1111,0.0,-1.0663,-1.0763,-1.0773,-1.0557,-1.0575,-1.0432,-0.9863,-0.9406,-0.8885,-0.8137,-0.7202,-0.6491,-0.6184,-0.5725,0.0,0.0,0.0,-0.5395,-0.5395,-0.5395,0.0,0.0,0.0,-0.4456,-0.3851,0.0,0.0,0.0,-0.3026,-0.3416,0.0,0.0,0.0,0.0,0.0,0.0,0.0,0.0,0.0,0.0,0.0,0.0,0.0,0.0,0.0,0.0,-1.5421,-1.5903,-1.6682,-1.6573,-1.6598,-1.708,-1.734,-1.7485,-1.7485,-1.7485,-1.7485,-1.7485,-1.7485,-1.7485,-1.7485,0.0,0.0,0.0,0.0,-1.737,-1.7135,-1.6875,-1.6604,-1.6326,-1.606,-1.5922,-1.5891,-1.5891,-1.5891,-1.5891,-1.5891,-1.5891,-1.5867,-1.5638,-1.5372,-1.5101,-1.504,-1.4871,-1.4576,-1.3803,-1.3369,-1.3083,-1.2813,0.0,0.0,-1.2705,-1.2705,-1.2705,-1.2705,-1.2705,-1.2705,-1.2705,-1.2536,-1.2349,-1.2318,-1.2137,-1.1902,-1.1597,-1.1537,-1.1459,-1.1101,-1.1079,-1.1073,-1.0856,-1.0887,-1.07,-0.9916,-1.0438,-1.077,-1.0202,-1.0519,-1.0384,-0.9223,-0.9181,-0.8633,-0.71,0.0,0.0,-0.5871,-0.5688,-0.5606,-0.5593,-0.5481,-0.5402,-0.5419,-0.5423,-0.5423,-0.5423,-0.5252,-0.4542,-0.3232,-0.3054,-0.2313,-0.1142,-0.2324,-0.2906,0.0,0.0,0.0,0.0,0.0,0.0,0.0,0.0,0.0,0.0,0.0,0.0,0.0,0.0,0.0,-1.5354,-1.6012,-1.667,-1.7249,-1.7286,-1.7286,-1.7394,-1.7455,-1.7485,-1.7485,-1.7485,-1.7485,-1.7485,-1.7485,-1.7485,-1.7485,-1.7485,-1.7485,-1.7485,-1.7485,-1.7461,-1.7406,-1.7147,-1.6881,-1.6616,0.0,0.0,-1.5891,-1.5891,-1.5891,-1.5891,-1.5891,-1.5891,-1.5885,-1.5831,-1.5535,-1.5065,-1.4624,-1.4425,-1.431,-1.3731,-1.3483,-1.3369,-1.2874,-1.2705,-1.2705,-1.2705,-1.2705,-1.2705,-1.2705,-1.2705,0.0,-1.2705,-1.2668,-1.2578,-1.2367,-1.2276,-1.2174,-1.1908,-1.1808,-1.1571,-1.064,-1.0975,-1.0956,-0.9456,-0.9685,-0.9879,-0.9084,-0.9609,-0.9884,-0.9115,-0.91,-0.9087,-0.8815,-0.8129,-0.7519,-0.7159,-0.6451,-0.5943,-0.5803,-0.5776,-0.5711,-0.5596,-0.5481,-0.545,-0.5542,-0.5545,-0.5545,-0.5545,-0.4399,-0.3638,-0.3362,-0.2103,-0.1377,-0.1109,-0.1903,-0.2203,0.0,0.0,0.0,0.0,0.0,0.0,0.0,0.0,0.0,0.0,0.0,-1.4787,0.0,0.0,-1.6079,-1.6604,-1.7026,-1.7424,-1.7835,-1.7889,-1.7835,-1.7696,-1.7563,-1.7485,-1.7485,-1.7485,-1.7485,-1.7485,-1.7485,-1.7485,-1.7485,-1.7485,-1.7485,-1.7485,-1.7485,-1.7418,-1.7286,-1.7159,-1.696,-1.67,-1.6416,-1.6211,-1.6085,-1.5946,-1.5891,-1.5891,-1.5891,-1.5891,-1.5867,-1.5608,-1.5348,-1.5052,-1.4509,-1.4298,-1.4238,-1.3707,-1.3513,-1.3435,-1.2892,-1.2705,-1.2705,-1.2705,-1.2705,-1.2705,-1.2705,-1.2705,-1.2705,-1.2705,-1.2357,-1.1986,-1.1818,-1.144,-1.1037,-1.076,-1.0656,-1.0418,-0.9822,-0.9904,-0.9858,-0.8966,-0.9076,-0.9041,-0.8246,-0.8437,-0.8703,-0.8703,-0.8703,-0.8551,-0.8169,-0.7664,-0.7195,-0.6783,-0.6337,-0.6067,-0.6067,-0.5959,-0.585,-0.5705,-0.5623,-0.5616,-0.5691,-0.5694,-0.5694,-0.5694,-0.4534,-0.3772,-0.3389,-0.2177,-0.1444,-0.1109,-0.1444,-0.1566,0.0,0.0,0.0,0.0,0.0,0.0,0.0,0.0,-1.4189,-1.4666,-1.5191,-1.5753,-1.635,-1.6718,-1.7135,-1.7768,-1.7919,-1.8052,-1.833,-1.8275,-1.8149,-1.798,-1.772,-1.7557,-1.7557,-1.7509,-1.7485,-1.7485,-1.7485,-1.7485,-1.7485,-1.7485,-1.7485,-1.7485,-1.7485,-1.7382,-1.7171,-1.7165,-1.7038,-1.6773,-1.6495,-1.6332,-1.6272,-1.6012,-1.5891,-1.5891,-1.5891,-1.5891,-1.5855,-1.5378,-1.5155,-1.5059,-1.457,-1.4346,-1.4238,-1.3767,-1.3556,-1.3441,-1.2958,-1.2747,-1.2705,-1.2705,-1.2705,-1.2705,-1.2705,-1.2577,-1.2448,-1.2448,-1.1752,-1.102,-1.102,-1.0448,-0.9837,-0.963,-0.9503,-0.933,-0.9009,-0.8883,-0.8734,-0.8501,-0.8449,-0.8208,-0.7407,-0.7253,-0.7484,-0.8131,-0.8246,-0.8016,-0.7369,-0.7253,-0.7026,-0.6377,-0.63,-0.63,-0.63,-0.6118,-0.5989,-0.5898,-0.5833,-0.5817,-0.5844,-0.5844,-0.5771,-0.5623,-0.4776,-0.3977,-0.3203,-0.2317,-0.1612,-0.1109,-0.1109,-0.1109,-1.3041,-1.3103,-1.329,-1.399,-1.4014,-1.4226,0.0,0.0,-1.606,-1.6368,-1.6851,-1.7171,-1.7032,-1.7406,-1.7774,-1.7859,-1.8082,-1.8342,-1.8601,-1.8227,-1.8004,-1.8221,-1.7998,-1.7829,-1.7829,-1.7618,-1.7485,-1.7485,-1.7485,-1.7485,-1.7485,-1.7485,-1.7485,-1.7485,-1.7485,-1.7473,-1.7443,-1.7443,-1.7304,-1.7044,-1.6779,-1.6525,-1.6272,-1.6012,-1.5891,-1.5891,-1.5891,-1.5891,-1.5867,-1.5572,-1.5318,-1.5077,-1.4787,-1.4515,-1.4262,-1.3972,-1.3713,-1.3471,-1.3181,-1.2916,-1.2705,-1.2705,-1.2705,-1.2705,-1.2705,-1.21,-1.1456,-1.1456,-1.0799,-1.0053,-1.0053,-0.9966,-0.9874,-0.9851,-0.9827,-0.959,-0.8611,-0.8826,-0.8743,-0.7089,-0.725,-0.7369,-0.6567,-0.6454,-0.6451,-0.6567,-0.6567,-0.6528,-0.6451,-0.6454,-0.6416,-0.63,-0.63,-0.63,-0.63,-0.6118,-0.6081,-0.6242,-0.5952,-0.5864,-0.5959,-0.5966,-0.5628,-0.4912,-0.4176,-0.3367,-0.25,-0.1654,-0.1176,-0.1109,-0.1109,-0.1109,-1.358,-1.3688,0.0,0.0,-1.492,-1.5505,-1.6332,-1.6761,-1.7056,-1.7328,-1.7811,-1.8149,-1.804,-1.8324,-1.8571,0.0,-1.8674,-1.8782,-1.8897,-1.8583,-1.8336,-1.83,-1.7913,-1.7648,-1.7648,-1.7545,-1.7485,-1.7485,-1.7485,-1.7485,-1.7485,-1.7624,-1.7642,-1.7485,-1.763,-1.7636,-1.7485,-1.7485,-1.7424,-1.7316,-1.705,-1.6785,-1.6513,-1.6241,-1.6036,-1.5891,-1.5891,-1.5891,-1.5855,-1.5445,-1.484,-1.4134,-1.3688,-1.3121,-1.2512,-1.2853,-1.289,-1.2766,-1.2473,-1.2226,-1.2106,-1.2729,-1.2443,-1.1886,-1.1886,-1.123,-1.0491,-1.0491,-0.9797,-0.9104,-0.9104,-0.8667,-0.8273,-0.8273,-0.8198,-0.8053,-0.7686,-0.7701,-0.7563,-0.6857,-0.69,-0.6914,-0.6596,-0.6515,-0.6515,-0.6515,-0.6409,-0.633,-0.6412,-0.6351,-0.63,-0.63,-0.63,-0.63,-0.63,-0.6242,-0.6193,-0.6296,-0.618,-0.6098,-0.6162,-0.6166,-0.5778,-0.4928,-0.4096,-0.3306,-0.2456,-0.1555,-0.1102,-0.1102,-0.1084,-0.1109,-1.3888,0.0,0.0,-1.5119,-1.5946,-1.6742,-1.7243,-1.7708,-1.8082,-1.8275,-1.8571,-1.877,-1.8698,-1.8776,-1.8885,-1.8957,-1.8969,-1.8969,-1.8969,-1.8613,-1.8281,-1.8094,-1.7461,-1.7105,-1.7249,-1.7334,-1.7406,-1.7473,-1.7485,-1.7515,-1.7587,-1.7768,-1.7787,-1.7599,-1.7774,-1.7744,-1.7485,-1.7485,-1.7485,-1.7479,-1.7213,-1.699,-1.6797,-1.6441,-1.6139,-1.5891,-1.5891,-1.5891,-1.5849,-1.5009,-1.4174,-1.3405,-1.2625,-1.1853,-1.1249,-1.1485,-1.172,-1.1837,-1.1672,-1.1425,-1.133,-1.2098,-1.1755,-1.1022,-1.1004,-1.0319,-0.9613,-0.9613,-0.888,-0.8116,-0.8167,-0.7657,-0.7095,-0.7095,-0.7018,-0.697,-0.7071,-0.69,-0.6797,-0.6866,-0.6723,-0.6577,-0.6577,-0.6536,-0.6507,-0.6547,-0.6384,-0.6284,-0.6384,-0.627,-0.618,-0.618,-0.6261,-0.63,-0.63,-0.63,-0.63,-0.63,-0.63,-0.63,-0.63,-0.6064,-0.5553,-0.4691,-0.3817,-0.298,-0.2155,-0.1448,-0.1129,-0.1085,-0.1098,-0.1084,0.0,0.0,-1.5016,-1.6314,-1.7044,-1.772,-1.8764,-1.9211,-1.941,-1.9481,-1.9229,-1.8988,-1.8728,-1.8481,-1.8402,-1.8656,-1.8698,-1.8698,-1.8698,-1.8016,-1.7515,-1.7509,-1.6579,-1.6145,0.0,-1.6954,-1.7207,-1.7461,-1.7485,-1.7593,-1.7847,-1.7871,-1.7871,-1.7859,-1.7871,-1.7744,-1.7485,-1.7485,-1.7485,-1.7479,-1.7213,-1.7086,-1.7062,-1.6525,-1.6139,-1.5891,-1.5891,-1.5891,-1.5796,-1.4217,-1.3556,-1.3354,-1.1831,-1.1219,-1.1072,-1.0043,-1.0166,-1.0815,-1.0858,-1.0674,-1.0459,-1.0459,-1.0454,-1.0412,-1.0251,-0.9557,-0.8837,-0.8837,-0.8005,-0.7177,-0.7371,-0.7251,-0.7095,-0.7095,-0.7092,-0.7092,-0.7095,-0.698,-0.6879,-0.6883,-0.6596,-0.6331,-0.6331,-0.6162,-0.6077,-0.6212,-0.6111,-0.6059,-0.6176,-0.6031,-0.5902,-0.5902,-0.6141,-0.63,-0.63,-0.63,-0.63,-0.63,-0.63,-0.63,-0.63,-0.5473,-0.4652,-0.3869,-0.2983,-0.2118,-0.1249,-0.1217,-0.115,-0.1086,-0.1085,-0.1104,0.0,0.0,-1.6266,-1.7237,-1.8143,-1.8988,-1.9706,-1.9941,-1.9851,-1.9314,-1.8861,-1.8366,-1.7744,-1.7557,-1.7581,-1.7841,-1.8191,-1.8426,-1.8426,-1.8342,-1.8016,-1.7304,-1.6905,0.0,0.0,0.0,0.0,-1.7189,-1.7382,-1.7599,-1.7859,-1.8215,-1.8245,-1.7883,-1.8052,-1.7937,-1.7485,-1.7485,-1.7485,-1.7473,-1.7038,-1.6833,-1.6815,-1.5499,-1.484,-1.4702,-1.3938,-1.3521,-1.3408,-1.2687,-1.1918,-1.1102,-1.0393,-0.9702,-0.9019,-0.8676,-0.8812,-0.9241,-0.9804,-0.9862,-0.9834,-1.0475,-1.0198,-0.96,-0.9456,-0.8756,-0.8027,-0.8027,-0.7713,-0.7458,-0.7509,-0.7482,-0.7421,-0.7319,-0.7292,-0.7265,-0.7119,-0.7058,-0.6984,-0.6853,-0.6729,-0.6564,-0.6387,-0.6297,-0.6269,-0.6314,-0.6132,-0.5985,-0.5928,-0.591,-0.5902,-0.5902,-0.6141,-0.63,-0.63,-0.63,-0.6219,-0.606,-0.6022,-0.5786,-0.5273,-0.4963,-0.4222,-0.2978,-0.2644,-0.2094,-0.1281,-0.1211,-0.1181,-0.1151,-0.113,-0.1104,-1.5547,-1.6453,-1.7358,-1.8348,-1.9181,-1.9851,-2.0195,-2.0128,-1.973,-1.8831,-1.8227,-1.7618,-1.6815,-1.6664,-1.6779,-1.7141,-1.7497,-1.7823,-1.81,-1.8046,-1.7829,-1.7418,-1.7038,-1.6748,0.0,0.0,0.0,-1.705,-1.7418,-1.7738,-1.801,-1.8354,-1.8384,-1.8034,-1.81,-1.7931,-1.7485,-1.7485,-1.7485,-1.7479,-1.6631,-1.6152,-1.6053,-1.4411,-1.3637,-1.3511,-1.2743,-1.2295,-1.2135,-1.1515,-1.075,-0.9953,-0.9283,-0.8627,-0.7995,-0.8102,-0.8184,-0.835,-0.8835,-0.9008,-0.908,-0.964,-0.934,-0.8732,-0.861,-0.8139,-0.7675,-0.7675,-0.7638,-0.7611,-0.7662,-0.7638,-0.7573,-0.7379,-0.7273,-0.721,-0.6972,-0.6866,-0.683,-0.67,-0.6615,-0.6482,-0.6302,-0.6213,-0.6169,-0.6169,-0.5947,-0.5808,-0.5758,-0.5705,-0.567,-0.567,-0.5909,-0.6067,-0.6067,-0.6067,-0.5986,-0.5789,-0.5509,-0.5118,-0.4608,-0.4025,-0.3248,-0.2314,-0.1961,-0.1609,-0.1139,-0.1121,-0.1131,-0.1203,-0.1147,-0.1115,-1.6779,-1.7545,-1.8287,-1.9585,-2.0092,-2.0273,-2.0243,-1.9808,-1.9096,-1.8016,-1.7364,-1.6748,0.0,0.0,-1.6006,-1.6549,-1.6682,-1.699,-1.7744,-1.7249,-1.7068,0.0,0.0,0.0,0.0,0.0,0.0,-1.7074,0.0,-1.7974,-1.83,-1.83,-1.83,-1.8312,-1.8028,-1.775,-1.7503,-1.7432,-1.7426,-1.7361,-1.5898,-1.5074,-1.4853,-1.3364,-1.2542,-1.2304,-1.224,-1.2114,-1.1909,-1.0619,-1.0022,-0.9789,-0.8489,-0.7995,-0.8019,-0.8218,-0.8327,-0.8258,-0.8106,-0.815,-0.8255,-0.8092,-0.7995,-0.7971,-0.7868,-0.7824,-0.7824,-0.7824,-0.7726,-0.7607,-0.7739,-0.7675,-0.7523,-0.7274,-0.7074,-0.6926,-0.6639,-0.6484,-0.6384,-0.6384,-0.6213,-0.6083,-0.6083,-0.5863,-0.5688,-0.5688,-0.5586,-0.5553,-0.5692,-0.5457,-0.5299,-0.529,-0.5494,-0.5613,-0.5601,-0.5604,-0.5569,-0.5521,-0.4807,-0.4334,-0.4256,-0.2738,-0.1882,-0.1843,-0.102,-0.0707,-0.0904,-0.0904,-0.0996,-0.1203,-0.1203,-0.117,-1.7424,-1.8505,-1.9501,-2.0044,-2.0231,-2.0171,-1.9833,-1.9114,-1.8227,-1.6948,-1.6115,-1.5427,0.0,0.0,0.0,-1.5722,-1.6477,0.0,-1.7527,-1.7925,0.0,-1.7901,0.0,-1.7684,-1.7412,-1.7436,0.0,0.0,-1.7328,-1.7672,-1.8535,-1.8402,-1.8384,-1.8577,-1.8125,-1.7841,-1.7774,-1.6682,-1.6107,-1.6042,-1.4393,-1.3546,-1.3482,-1.1937,-1.1207,-1.1101,-1.0105,-0.9583,-0.941,-0.8947,-0.8686,-0.8485,-0.8151,-0.8109,-0.8218,-0.8255,-0.8336,-0.8408,-0.8262,-0.8306,-0.8384,-0.8073,-0.8116,-0.8184,-0.8028,-0.7931,-0.7931,-0.7931,-0.776,-0.7596,-0.7631,-0.7461,-0.726,-0.7115,-0.6937,-0.6808,-0.6658,-0.6484,-0.6343,-0.6213,-0.5997,-0.5819,-0.5819,-0.5733,-0.5688,-0.5688,-0.5586,-0.5497,-0.5553,-0.5582,-0.5572,-0.5476,-0.5711,-0.5814,-0.5617,-0.5686,-0.5379,-0.4543,-0.43,-0.3597,-0.2348,-0.1919,-0.1451,-0.0942,-0.0707,-0.0628,-0.0668,-0.0668,-0.0766,-0.0984,-0.0984,-0.1027,-1.8511,-1.9392,-2.0122,-2.0388,-2.0279,-1.9905,-1.9126,-1.8251,-1.7177,-1.571,-1.4968,0.0,0.0,0.0,0.0,0.0,0.0,0.0,-1.7225,-1.7799,-1.8173,0.0,-1.8269,0.0,-1.7871,-1.7756,-1.7506,0.0,-1.7333,-1.7829,-1.83,-1.8306,-1.8054,-1.7516,-1.7234,-1.672,-1.6068,-1.5217,-1.4746,-1.4639,-1.3019,-1.2192,-1.2103,-1.0584,-0.9915,-0.9849,0.0,-0.8625,-0.8476,-0.8394,-0.8235,-0.8002,-0.8184,-0.8208,-0.8191,-0.8391,-0.8472,-0.8472,-0.8391,-0.8459,-0.8523,-0.8106,-0.8099,-0.8167,-0.8147,-0.7992,-0.7856,-0.7915,-0.7688,-0.7444,-0.7444,-0.7291,-0.717,-0.6952,-0.6789,-0.6629,-0.6415,-0.621,-0.6038,-0.5952,-0.5819,-0.5688,-0.5688,-0.5688,-0.5688,-0.5688,-0.5629,-0.5586,-0.5586,-0.5565,-0.5554,-0.5481,-0.5617,-0.5685,-0.5543,-0.5175,-0.4711,-0.4055,-0.3304,-0.2465,-0.1489,-0.1097,-0.0706,-0.0353,-0.0353,-0.0393,-0.0471,-0.0471,-0.0578,-0.0778,-0.0769,-0.0789,-1.9615,-2.0104,-2.0376,-2.0569,-2.0165,-1.9446,-1.8378,-1.728,-1.6054,-1.4509,0.0,-1.3743,-1.355,-1.3731,-1.4171,-1.498,0.0,-1.591,-1.6948,-1.7346,-1.7811,-1.8547,-1.8463,-1.8268,-1.8042,-1.7619,-1.6882,-1.5848,-1.6986,-1.7649,-1.7449,-1.7625,-1.7087,-1.5791,-1.5785,-1.5129,-1.3767,-1.3559,-1.3319,-1.3105,-1.1694,-1.1004,-1.0779,-0.9502,-0.8885,-0.8875,-0.8777,-0.8635,-0.8509,-0.8489,-0.833,-0.8073,-0.8381,-0.8336,-0.8123,-0.8567,-0.8625,-0.8513,-0.8513,-0.8587,-0.8561,-0.8153,-0.8019,-0.8042,-0.8177,-0.7911,-0.7569,-0.7737,-0.7478,-0.7138,-0.7138,-0.7138,-0.7039,-0.6792,-0.6597,-0.6364,-0.6133,-0.5912,-0.5707,-0.5691,-0.5702,-0.5707,-0.5691,-0.5688,-0.5688,-0.5688,-0.5688,-0.5688,-0.5688,-0.5548,-0.5454,-0.5396,-0.5409,-0.5446,-0.5413,-0.4499,-0.3873,-0.373,-0.2188,-0.1258,-0.1137,-0.0393,0.0,0.0,0.0,-0.0079,-0.0276,-0.0275,-0.0349,-0.0568,-0.0555,-0.0548,-1.9712,-2.0237,-2.0563,-2.0388,-1.9615,-1.8613,-1.7545,-1.6308,0.0,0.0,0.0,-1.327,-1.3483,-1.3731,0.0,-1.498,0.0,0.0,0.0,0.0,-1.7943,0.0,0.0,0.0,0.0,0.0,0.0,0.0,0.0,-1.4885,-1.5082,-1.4829,-1.4573,-1.4404,-1.4538,-1.4375,-1.385,-1.2664,-1.1957,-1.1829,-1.0375,-0.9641,-0.9543,-0.9116,-0.8885,-0.8875,-0.8777,0.0,-0.8662,-0.8533,-0.8452,-0.8411,-0.8462,-0.8526,-0.8601,-0.8682,-0.8693,-0.8669,-0.8669,-0.8448,-0.8124,-0.8241,-0.8123,-0.7919,-0.7945,-0.7652,-0.7294,-0.7316,-0.7109,-0.6892,-0.6892,-0.6689,-0.6537,-0.6487,-0.6306,-0.6181,-0.6133,-0.5975,-0.5847,-0.5707,-0.5809,-0.5844,-0.5704,-0.5688,-0.5688,-0.5688,-0.5688,-0.5688,-0.5688,-0.5653,-0.5588,-0.5486,-0.5567,-0.5589,-0.5427,-0.4589,-0.3714,-0.2966,-0.1899,-0.0961,-0.0236,-0.008,0.0,0.0,0.0,0.0,-0.004,-0.004,-0.0155,-0.0341,-0.0339,-0.0409,-1.9941,-2.037,-2.0605,-2.0346,-1.9374,-1.8161,-1.6948,0.0,0.0,0.0,-1.2994,-1.2988,-1.326,0.0,0.0,0.0,0.0,0.0,0.0,0.0,0.0,0.0,0.0,0.0,0.0,0.0,0.0,0.0,0.0,-1.3186,-1.4014,-1.3351,-1.3009,-1.3206,-1.2403,-1.1898,-1.1744,-1.0954,-1.0494,-1.0412,-0.9676,-0.9184,-0.9042,-0.9049,-0.9049,-0.9042,-0.8893,0.0,-0.8818,-0.8665,-0.8554,-0.8499,-0.8659,-0.8665,-0.8611,-0.8771,-0.8672,-0.8487,-0.8408,-0.822,-0.7971,-0.7898,-0.7804,-0.777,-0.7839,-0.7507,-0.7107,-0.7172,-0.6889,-0.6589,-0.6589,-0.6487,-0.6387,-0.6387,-0.6306,-0.6146,-0.6018,-0.5994,-0.5964,-0.5844,-0.5866,-0.5866,-0.571,-0.5688,-0.5688,-0.5688,-0.5688,-0.5688,-0.5688,-0.5285,-0.5129,-0.5563,-0.5208,-0.4928,-0.4829,-0.3514,-0.2525,-0.207,-0.1145,-0.0442,0.0,0.0,0.0,0.0,0.0,0.0,0.0,0.0,-0.0039,-0.0116,0.0304,0.0492,-1.9941,-2.0297,-2.0436,-2.0171,-1.906,-1.7702,-1.6404,-1.5083,0.0,0.0,-1.2705,-1.2789,-1.3029,0.0,0.0,0.0,0.0,0.0,0.0,0.0,0.0,0.0,0.0,0.0,0.0,0.0,0.0,0.0,0.0,0.0,-1.2894,-1.2119,-1.1701,-1.1957,-1.0526,-0.9805,-0.9774,-0.9513,-0.9364,-0.933,-0.9268,-0.9093,-0.8988,-0.91,-0.9228,-0.9251,-0.9083,0.0,0.0,-0.8855,-0.8716,-0.8604,-0.879,-0.8737,-0.8551,-0.8736,-0.8588,-0.8202,-0.8087,-0.803,-0.7883,-0.7625,-0.7521,-0.7543,-0.7669,-0.7317,-0.6958,-0.7081,-0.6776,-0.6392,-0.6419,-0.6406,-0.6381,-0.6404,-0.6333,-0.6257,-0.5988,-0.6037,-0.6089,-0.5966,-0.5942,-0.5907,-0.5745,-0.5704,-0.5688,-0.5688,-0.551,-0.5419,-0.5419,-0.4567,-0.43,-0.5015,-0.4433,-0.3985,-0.3985,-0.2382,-0.1386,-0.1398,-0.05,0.0,0.0,0.0,0.0,0.0,0.0,0.0,0.0,0.0,0.0079,0.0314,0.0999,0.1385,-1.9332,-1.9742,-1.9893,-1.9609,-1.8366,-1.6917,-1.5819,0.0,0.0,-1.2825,-1.2705,-1.2789,-1.3029,-1.3338,-1.3688,0.0,0.0,0.0,0.0,0.0,0.0,0.0,0.0,0.0,0.0,0.0,0.0,0.0,0.0,0.0,-1.0615,-1.0503,-1.0453,-1.0467,-1.0043,-0.9758,-0.9632,-0.9462,-0.931,-0.9231,-0.9217,-0.9204,-0.919,-0.9204,-0.9286,-0.9361,-0.9347,0.0,0.0,-0.9173,-0.9025,-0.8844,-0.8871,-0.8751,-0.8504,-0.853,-0.8312,-0.8026,-0.8011,-0.7861,-0.7657,-0.7622,-0.7537,-0.7376,-0.7269,-0.6983,-0.6646,-0.6821,-0.6624,-0.6411,-0.6575,-0.6468,-0.6363,-0.6309,-0.6325,-0.6281,-0.61,-0.6165,-0.6265,-0.6092,-0.607,-0.6032,-0.5909,-0.5801,-0.5688,-0.5688,-0.4971,-0.4433,-0.4433,-0.3628,-0.3047,-0.3135,-0.3092,-0.3045,-0.3045,-0.2013,-0.1418,-0.1388,-0.0519,0.0,0.0,0.0,0.0,0.0,0.0,0.0,0.0,0.0,0.0392,0.1176,0.1251,0.168,-1.874,-1.9307,-1.9567,-1.9301,-1.7598,-1.576,-1.4853,0.0,-1.1457,-1.1077,-1.1445,-1.1877,-1.2022,-1.2818,-1.3586,0.0,0.0,0.0,0.0,0.0,0.0,0.0,0.0,0.0,0.0,0.0,0.0,0.0,0.0,0.0,-1.0287,-1.0192,-1.01,-1.0005,-0.9713,-0.953,-0.9473,-0.9235,-0.9174,-0.9347,-0.9255,-0.9258,-0.935,-0.9388,-0.9459,-0.9517,-0.9517,0.0,0.0,-0.9347,-0.915,-0.8892,-0.8811,-0.8677,-0.8484,-0.8266,-0.7989,-0.7762,-0.7679,-0.7538,-0.7354,-0.7154,-0.7171,-0.7295,-0.719,-0.6987,-0.6755,-0.6877,-0.6736,-0.6575,-0.6698,-0.6695,-0.6608,-0.6415,-0.6483,-0.6535,-0.6339,-0.6393,-0.6423,-0.6233,-0.6135,-0.607,-0.6021,-0.5352,-0.49,-0.4958,-0.4105,-0.3449,-0.3449,-0.2598,-0.2017,-0.2017,-0.2017,-0.2017,-0.2017,-0.1122,-0.0579,-0.0566,-0.0218,0.0,0.0,0.0,0.0,0.0,0.0,0.0,0.0,0.0526,0.0954,0.1332,0.2348,0.2973,-1.7314,-1.7727,-1.7754,-1.7576,-1.597,-1.4254,0.0,0.0,-1.0232,-0.9965,-1.0448,-1.0885,-1.0885,-1.1788,-1.2553,0.0,0.0,0.0,0.0,0.0,0.0,0.0,0.0,0.0,0.0,0.0,0.0,0.0,0.0,0.0,-1.0222,-1.0025,-0.9808,-0.9761,-0.9513,-0.934,-0.9252,-0.9086,-0.9106,-0.9313,-0.9306,-0.93,-0.9452,-0.9513,-0.9568,-0.9608,-0.9561,0.0,0.0,-0.9201,-0.8994,-0.8615,-0.8544,-0.8407,-0.8211,-0.7989,-0.7715,-0.7479,-0.7391,-0.7306,-0.7182,-0.6959,-0.7018,-0.7154,-0.6765,-0.6741,-0.6826,-0.6565,-0.6325,-0.6167,-0.6248,-0.6508,-0.6714,-0.6578,-0.6676,-0.6744,-0.6487,-0.6508,-0.6457,-0.5963,-0.5785,-0.5563,-0.5227,-0.4455,-0.3902,-0.4001,-0.313,-0.2464,-0.2464,-0.1614,-0.0987,-0.0987,-0.0987,-0.0987,-0.0987,-0.0359,0.0,0.0,0.0,0.0,0.0,0.0,0.0,0.0,0.0292,0.0419,0.0415,0.1308,0.1851,0.2097,0.3256,0.391,-1.4794,-1.4474,-1.3888,-1.3888,-1.3124,-1.2216,0.0,0.0,-1.0232,-0.9965,-0.9923,-0.9923,-0.9923,-1.0146,-1.041,-1.061,-1.0431,0.0,0.0,0.0,0.0,0.0,0.0,0.0,0.0,0.0,0.0,0.0,0.0,0.0,-1.0004,-0.9774,-0.9612,-0.9612,-0.9462,-0.9239,-0.8892,-0.9083,-0.921,-0.9214,-0.9306,-0.9459,-0.9602,-0.9452,-0.9466,-0.9602,0.0,0.0,0.0,-0.8704,-0.8448,-0.7989,-0.7992,-0.7826,-0.7607,-0.7607,-0.7438,-0.721,-0.721,-0.721,-0.721,-0.7207,-0.721,-0.6985,-0.5761,-0.6138,-0.6787,-0.5733,-0.5237,-0.5043,-0.5043,-0.5818,-0.6651,-0.6771,-0.6801,-0.6768,-0.6643,-0.6619,-0.6223,-0.5052,-0.4759,-0.4354,-0.3229,-0.2983,-0.2904,-0.2905,-0.2042,-0.1436,-0.1436,-0.0584,0.0,0.0,0.0,0.0,0.0,0.0,0.0,0.0,0.0,0.0,0.0,0.0,0.0,0.0,0.0925,0.1402,0.1388,0.2281,0.3079,0.3885,0.3835,0.4226,-1.2897,-1.359,-1.387,-1.3207,-1.2397,-1.1527,-1.0466,0.0,-0.8034,-0.7804,-0.8408,-0.8886,-0.8746,-0.9615,-1.0317,-1.0379,-0.9791,0.0,0.0,0.0,0.0,0.0,0.0,0.0,0.0,0.0,0.0,0.0,0.0,0.0,-0.991,-0.9805,-0.9612,-0.9306,-0.9309,-0.9133,-0.8885,-0.9184,-0.9313,-0.921,-0.9306,-0.9405,-0.9452,-0.9405,-0.9408,0.0,0.0,0.0,0.0,-0.8574,-0.836,-0.7998,-0.7921,-0.7735,-0.7551,-0.7379,-0.7268,-0.721,-0.721,-0.721,-0.7043,-0.6262,-0.5984,-0.5759,-0.4531,-0.4919,-0.5678,-0.5379,-0.5279,-0.5435,-0.6187,-0.6086,-0.5778,-0.5741,-0.5136,-0.4573,-0.4439,-0.4432,-0.4268,-0.3789,-0.362,-0.344,-0.3187,-0.2418,-0.1893,-0.2015,-0.1123,-0.0458,-0.0458,-0.0181,0.0,0.0,0.0,0.0,0.0,0.0,0.0,0.0,0.0,0.0,0.0,0.0,0.0292,0.0883,0.1181,0.1593,0.2145,0.3037,0.3859,0.4636,0.4711,0.4849,0.0,-1.1381,-1.1587,-1.1021,-1.0442,0.0,0.0,0.0,-0.6966,-0.6836,-0.7272,-0.7705,-0.7661,-0.8422,-0.9083,-0.9173,-0.8721,0.0,0.0,0.0,0.0,0.0,0.0,0.0,0.0,0.0,0.0,0.0,0.0,0.0,-0.9754,-0.9686,-0.9527,-0.9306,-0.9354,-0.9201,-0.8885,-0.9232,-0.9361,-0.921,-0.9306,-0.9381,-0.9381,-0.932,-0.9239,0.0,0.0,0.0,0.0,-0.8205,-0.7969,-0.7662,-0.7629,-0.7502,-0.7438,-0.7265,-0.721,-0.721,-0.721,-0.6874,-0.6424,-0.5662,-0.4799,-0.39,-0.3152,-0.337,-0.3909,-0.3909,-0.392,-0.4151,-0.485,-0.486,-0.4648,-0.4629,-0.4108,-0.3581,-0.3412,-0.3404,-0.324,-0.2679,-0.2545,-0.2385,-0.2063,-0.1368,-0.0911,-0.0978,-0.0424,0.0,0.0,0.0,0.0,0.0,0.0,0.0,0.0,0.0,0.0,0.0,0.0,0.0177,0.0512,0.0507,0.0913,0.1811,0.2143,0.2547,0.3012,0.3917,0.4566,0.5018,0.5089,0.5086,0.0,0.0,0.0,0.0,0.0,0.0,0.0,0.0,0.0,-0.6792,-0.6567,-0.652,-0.6748,-0.6911,-0.7099,-0.7356,-0.7409,0.0,0.0,0.0,0.0,0.0,0.0,0.0,0.0,0.0,0.0,0.0,0.0,0.0,-0.9602,-0.9459,-0.9367,-0.9334,-0.9493,-0.9378,-0.8902,-0.9239,-0.93,-0.9197,-0.9293,-0.9361,-0.9344,-0.9201,-0.8967,0.0,0.0,0.0,0.0,-0.7607,-0.7438,-0.721,-0.7202,-0.7202,-0.721,-0.7202,-0.7149,-0.7099,-0.7099,-0.6258,-0.5236,-0.5154,-0.3557,-0.1654,-0.1685,-0.1658,-0.1676,-0.1786,-0.1712,-0.1646,-0.1892,-0.2596,-0.3345,-0.3456,-0.342,-0.3306,-0.3199,-0.3139,-0.2825,-0.1719,-0.1462,-0.116,-0.0151,0.0,0.0,0.0,0.0,0.0,0.0,0.0,0.0,0.0,0.0,0.0,0.0,0.0,0.0,0.0,0.0045,0.0489,0.1348,0.1405,0.1849,0.2762,0.3559,0.3963,0.3964,0.4788,0.5129,0.5018,0.5034,0.5037,-0.7447,0.0,-0.8147,-0.7431,-0.7766,0.0,0.0,0.0,0.0,0.0,0.0,0.0,0.0,-0.6773,-0.7018,-0.7169,0.0,0.0,0.0,0.0,0.0,0.0,0.0,0.0,0.0,0.0,0.0,0.0,0.0,-0.9595,-0.9442,-0.9401,-0.9225,-0.8879,-0.9123,-0.9265,-0.9103,-0.9286,-0.9249,-0.8991,-0.9137,-0.9147,-0.8986,-0.8778,-0.8647,0.0,0.0,0.0,-0.7607,-0.7379,-0.7265,-0.7202,-0.7114,-0.7133,-0.7199,-0.7111,-0.6528,-0.5817,-0.5817,-0.5046,-0.3893,-0.2948,-0.1619,-0.0429,-0.0442,-0.0443,-0.0604,-0.1513,-0.175,-0.1999,-0.2915,-0.2652,-0.2172,-0.2236,-0.1533,-0.0857,-0.08,-0.0779,-0.071,-0.0455,-0.0353,-0.0303,-0.0051,0.0,0.0,0.0,0.0,0.0,0.0,0.0,0.0,0.0,0.0,0.0,0.0,0.0,0.0,0.0,0.0673,0.1155,0.1391,0.2116,0.288,0.3598,0.4356,0.4755,0.474,0.5036,0.5129,0.5021,0.5203,0.5238,-0.7095,-0.7492,-0.7753,-0.7228,-0.7492,-0.7709,0.0,0.0,0.0,0.0,0.0,0.0,0.0,0.0,0.0,0.0,0.0,0.0,0.0,0.0,0.0,0.0,0.0,0.0,0.0,0.0,0.0,0.0,0.0,-0.9439,-0.9344,-0.9215,-0.9066,-0.8821,-0.8903,-0.895,-0.895,-0.9103,-0.91,-0.8885,-0.8903,-0.8841,-0.8712,-0.8432,-0.8211,0.0,0.0,0.0,-0.7382,-0.7265,-0.721,-0.7149,-0.6533,-0.6325,-0.6311,-0.5647,-0.505,-0.4582,-0.4547,-0.3808,-0.2562,-0.1346,-0.0531,0.0,0.0,0.0,-0.0161,-0.0807,-0.0983,-0.1106,-0.1752,-0.1438,-0.0953,-0.0953,-0.0492,0.0,0.0,0.0,0.0,0.0,0.0,0.0,0.0,0.0,0.0,0.0,0.0,0.0047,0.0188,0.0183,0.0224,0.0314,0.0718,0.0942,0.0942,0.1389,0.1344,0.0673,0.1569,0.2274,0.2732,0.3183,0.3779,0.4501,0.4836,0.5018,0.5018,0.508,0.5078,0.5021,0.5148,0.5361,-0.7092,-0.7078,-0.7024,-0.7092,-0.7095,-0.7095,-0.7095,0.0,0.0,0.0,0.0,0.0,0.0,0.0,0.0,0.0,0.0,0.0,0.0,0.0,0.0,0.0,0.0,0.0,0.0,0.0,0.0,0.0,0.0,-0.9222,-0.9149,-0.8971,-0.8828,-0.8784,-0.871,-0.8598,-0.8568,-0.8774,-0.8861,-0.8826,-0.8598,-0.8484,-0.8429,-0.81,-0.7826,-0.7607,0.0,0.0,-0.6932,-0.6707,-0.6652,-0.6538,-0.552,-0.5079,-0.4977,-0.3961,-0.3461,-0.3291,-0.3119,-0.2396,-0.1352,-0.0317,0.0,0.0,0.0,0.0,0.0,0.0,0.0,0.0,0.0,0.0,0.0,0.0,0.0,0.0,0.0,0.0,0.0,0.0,0.0,0.0,0.0051,0.005,0.0099,0.0098,0.0143,0.0186,0.0416,0.0454,0.0583,0.0896,0.1612,0.2149,0.2326,0.3261,0.3261,0.2015,0.2731,0.3624,0.4565,0.4459,0.4702,0.5297,0.5123,0.5054,0.5054,0.5018,0.5057,0.5132,0.5151,0.5565,-0.7017,-0.6873,-0.6724,-0.7021,-0.7095,-0.7095,-0.7095,0.0,0.0,0.0,0.0,0.0,0.0,0.0,0.0,0.0,0.0,0.0,0.0,0.0,0.0,0.0,0.0,0.0,0.0,0.0,0.0,0.0,0.0,-0.8801,-0.8781,-0.8757,-0.8632,-0.8381,-0.835,-0.8294,-0.8098,-0.8508,-0.8699,-0.8543,-0.854,-0.8374,-0.8045,-0.7771,-0.7662,-0.7551,0.0,-0.5706,-0.5592,-0.4585,-0.4137,-0.4132,-0.3798,-0.3756,-0.3854,-0.3522,-0.2873,-0.1951,-0.0919,-0.0423,-0.026,-0.0052,0.0,0.0,0.0,0.0,0.0,0.0,0.0,0.0,0.0,0.0,0.0,0.0,0.0,0.0,0.0,0.0,0.0,0.0,0.0,0.0051,0.0303,0.0353,0.04,0.064,0.0674,0.066,0.0649,0.0636,0.0986,0.1791,0.2014,0.2459,0.3304,0.4239,0.4685,0.4463,0.4599,0.509,0.603,0.5852,0.5752,0.588,0.5482,0.5243,0.5243,0.5093,0.5249,0.575,0.5869,0.6254,-0.6616,-0.6544,-0.6509,-0.6743,-0.695,-0.7095,-0.7095,0.0,0.0,0.0,0.0,0.0,0.0,0.0,0.0,0.0,0.0,0.0,0.0,0.0,0.0,0.0,0.0,0.0,0.0,0.0,0.0,0.0,0.0,0.0,-0.8716,-0.8021,-0.7425,-0.708,-0.6513,-0.6106,-0.5957,-0.6163,-0.6626,-0.731,-0.6473,-0.5973,-0.5806,-0.5535,-0.5459,-0.5404,0.0,-0.4414,-0.4359,-0.3807,-0.3606,-0.3519,-0.28,-0.2576,-0.2533,-0.1842,-0.1246,-0.0761,-0.0212,0.0,0.0,0.0,0.0,0.0,0.0,0.0,0.0,0.0,0.0,0.0,0.0,0.0,0.0,0.0,0.0109,0.0213,0.0211,0.0309,0.0455,0.0455,0.0455,0.0455,0.0606,0.0606,0.065,0.0777,0.1246,0.1601,0.1643,0.2116,0.2638,0.322,0.3755,0.4245,0.4688,0.5578,0.6024,0.5758,0.5758,0.5935,0.6384,0.6132,0.5993,0.5993,0.5649,0.5479,0.5479,0.5825,0.617,0.644,0.6939,0.7568,-0.6236,-0.6172,-0.6163,-0.6478,0.0,-0.7054,-0.7095,-0.7082,0.0,0.0,0.0,0.0,0.0,0.0,0.0,0.0,0.0,0.0,0.0,0.0,0.0,0.0,0.0,0.0,0.0,0.0,0.0,0.0,0.0,0.0,-0.7809,-0.6769,-0.6012,-0.5629,-0.477,-0.4257,-0.413,-0.3822,-0.4394,-0.5768,-0.459,-0.3984,-0.3886,-0.3713,-0.3577,-0.3577,-0.3306,-0.3198,-0.3144,-0.2873,-0.2733,-0.2652,-0.1746,-0.1357,-0.1247,-0.0323,0.0,0.0,0.0,0.0,0.0,0.0,0.0,0.0,0.0,0.0,0.0,0.0054,0.0108,0.0108,0.011,0.0111,0.0112,0.0166,0.038,0.0534,0.0525,0.0672,0.0817,0.081,0.0811,0.0863,0.091,0.1111,0.1297,0.135,0.2204,0.2832,0.2946,0.3602,0.4176,0.4603,0.5272,0.5808,0.603,0.6729,0.6999,0.6609,0.6564,0.6564,0.6564,0.6302,0.6159,0.6159,0.6046,0.5983,0.5983,0.6784,0.7246,0.7399,0.8003,0.8698,-0.6053,-0.5838,-0.5679,-0.6178,-0.6558,0.0,-0.7051,-0.7261,0.0,-0.7142,0.0,0.0,0.0,0.0,0.0,0.0,0.0,0.0,0.0,0.0,0.0,0.0,0.0,0.0,0.0,0.0,0.0,0.0,0.0,0.0,-0.5107,-0.4738,-0.4526,-0.452,-0.4218,-0.3954,-0.3825,-0.274,-0.2843,-0.4144,-0.4029,-0.3872,-0.3604,-0.3594,-0.3619,-0.3512,-0.2396,-0.1917,-0.1864,-0.0747,-0.0267,-0.0268,-0.016,-0.0107,-0.0107,-0.0054,0.0,0.0,0.0,0.0,0.0,0.0,0.0,0.0,0.0,0.0,0.0054,0.0277,0.0387,0.0384,0.039,0.0392,0.0448,0.0784,0.0829,0.0869,0.0855,0.0904,0.0895,0.0814,0.0871,0.0928,0.1114,0.2017,0.2751,0.299,0.3952,0.4568,0.4392,0.4416,0.4747,0.5508,0.5675,0.6074,0.6918,0.7227,0.7292,0.7061,0.7051,0.7051,0.7051,0.6773,0.666,0.666,0.695,0.7088,0.7088,0.7698,0.8313,0.8846,0.8922,0.9273,-0.5522,-0.5508,-0.5537,-0.5759,-0.6111,0.0,0.0,-0.7106,-0.7303,-0.7392,-0.7527,0.0,0.0,0.0,0.0,0.0,0.0,0.0,0.0,0.0,0.0,0.0,0.0,0.0,0.0,0.0,0.0,0.0,0.0,0.0,-0.4446,-0.3641,-0.3066,-0.2916,-0.2164,-0.1668,-0.1426,-0.0968,-0.1032,-0.1533,-0.1487,-0.1442,-0.1344,-0.1372,-0.1361,-0.1361,-0.089,-0.0681,-0.0629,-0.021,0.0,0.0,0.0,0.0,0.0,0.0,0.0,0.0,0.0,0.0,0.0,0.0,0.0105,0.0265,0.0268,0.0381,0.0606,0.0662,0.072,0.0723,0.0728,0.0729,0.0727,0.0885,0.1043,0.1139,0.1161,0.1259,0.1562,0.2179,0.2332,0.254,0.3325,0.3773,0.4097,0.4166,0.5032,0.5661,0.5558,0.5988,0.643,0.6744,0.674,0.6921,0.7237,0.7336,0.7305,0.7105,0.7095,0.7095,0.7095,0.7317,0.7435,0.7435,0.7894,0.8122,0.8122,0.8851,0.9344,0.9576,1.0056,1.0432,-0.5285,-0.5371,-0.5545,-0.5583,0.0,0.0,-0.6719,-0.7011,-0.7248,-0.7489,-0.7726,0.0,0.0,0.0,0.0,0.0,0.0,0.0,0.0,0.0,0.0,0.0,0.0,0.0,0.0,0.0,0.0,0.0,0.0,0.0,0.0,-0.2282,-0.1662,-0.1511,-0.0706,-0.0202,0.0,0.0,0.0,0.0,0.0,0.0,0.0,0.0,0.0,0.0,0.0,0.0,0.0,0.0,0.0,0.0,0.0,0.0,0.0,0.0,0.0,0.0,0.0,0.0,0.0,0.0103,0.0262,0.0424,0.0479,0.0707,0.0943,0.0987,0.1328,0.1625,0.1737,0.1681,0.162,0.1712,0.2138,0.2495,0.2544,0.2625,0.2912,0.367,0.3758,0.3952,0.4678,0.5074,0.5304,0.5286,0.6159,0.6754,0.6721,0.7195,0.7492,0.7448,0.7485,0.7475,0.7426,0.7458,0.7404,0.7112,0.745,0.7457,0.7098,0.77,0.801,0.801,0.8869,0.932,0.932,1.0067,1.0416,1.041,1.0891,1.1111,-0.5316,-0.544,-0.5629,0.0,0.0,0.0,-0.6719,-0.7011,-0.7222,-0.7361,0.0,0.0,0.0,0.0,0.0,0.0,0.0,0.0,0.0,0.0,0.0,0.0,0.0,0.0,0.0,0.0,0.0,0.0,0.0,0.0,0.0,-0.0556,-0.0404,-0.0404,-0.0152,0.0,0.0,0.0,0.0,0.0,0.0,0.0,0.0,0.0,0.0,0.0,0.0,0.0,0.0,0.0,0.0,0.0,0.0,0.0,0.0,0.0,0.0,0.0,0.0,0.0,0.0051,0.031,0.0415,0.0469,0.0743,0.0863,0.0984,0.1257,0.2211,0.3188,0.3525,0.3356,0.3244,0.3525,0.4361,0.5124,0.5287,0.5105,0.4962,0.5083,0.5012,0.4879,0.4841,0.5729,0.6437,0.6437,0.7338,0.7934,0.7831,0.7811,0.7756,0.7617,0.7726,0.7692,0.7446,0.7641,0.7617,0.7125,0.8181,0.829,0.7146,0.7896,0.831,0.831,0.9911,1.0697,1.0697,1.1223,1.1495,1.1483,1.1244,1.1111,-0.4967,-0.5246,0.0,0.0,0.0,0.0,0.0,-0.6996,0.0,0.0,0.0,0.0,0.0,0.0,0.0,0.0,0.0,0.0,0.0,0.0,0.0,0.0,0.0,0.0,0.0,0.0,0.0,0.0,0.0,0.0,0.0,-0.0152,-0.0101,-0.0101,-0.0051,0.0,0.0,0.0,0.0,0.0,0.0,0.0,0.0,0.0,0.0,0.0,0.0,0.0,0.0,0.0,0.0,0.0,0.0,0.0,0.0,0.0,0.0101,0.0303,0.0303,0.0404,0.0556,0.0661,0.0829,0.1057,0.1102,0.1938,0.2826,0.2847,0.3752,0.4749,0.486,0.5363,0.5755,0.5027,0.4966,0.5106,0.5153,0.5013,0.5128,0.585,0.5982,0.6171,0.6939,0.7335,0.7537,0.7537,0.7789,0.7934,0.7831,0.7811,0.7794,0.7753,0.7787,0.7777,0.7689,0.8424,0.8738,0.8301,0.9274,0.9312,0.8153,0.9393,1.0129,1.0129,1.1067,1.1553,1.1553,1.1682,1.167,1.1489,1.1405,1.1266,-0.4951,0.0,0.0,0.0,0.0,0.0,0.0,0.0,0.0,0.0,0.0,0.0,0.0,0.0,0.0,0.0,0.0,0.0,0.0,0.0,0.0,0.0,0.0,0.0,0.0,0.0,0.0,0.0,0.0,0.0,0.0,0.0,0.0,0.0,0.0,0.0,0.0,0.0,0.0,0.0,0.0,0.0,0.0,0.0,0.0,0.0,0.0,0.0,0.0,0.0,0.0,0.0,0.0,0.0,0.0,0.0101,0.0253,0.0404,0.0505,0.0657,0.0808,0.0909,0.1391,0.1944,0.2012,0.3017,0.4096,0.4077,0.497,0.5909,0.5909,0.6785,0.7402,0.6236,0.6221,0.6447,0.6434,0.6295,0.6329,0.7021,0.7074,0.7238,0.7889,0.7988,0.7988,0.7988,0.7988,0.7958,0.7913,0.7902,0.8045,0.8481,0.853,0.8646,0.9004,0.9623,0.9797,0.9412,1.0244,1.042,0.9637,1.0542,1.1075,1.1075,1.1815,1.2234,1.2234,1.2125,1.1999,1.1796,1.1591,1.1405,-0.5004,0.0,0.0,0.0,0.0,0.0,0.0,0.0,0.0,0.0,0.0,0.0,0.0,0.0,0.0,0.0,0.0,0.0,0.0,0.0,0.0,0.0,0.0,0.0,0.0,0.0,0.0,0.0,0.0,0.0,0.0,0.0,0.0,0.0,0.0,0.0,0.0,0.0,0.0,0.0,0.0,0.0,0.0,0.0,0.0,0.0,0.0,0.0,0.0,0.0,0.0,0.0,0.0,0.0,0.0051,0.0303,0.0455,0.0505,0.0758,0.0909,0.106,0.1313,0.2145,0.3095,0.3292,0.413,0.5077,0.5089,0.5912,0.684,0.684,0.7685,0.8246,0.7237,0.7762,0.8462,0.8462,0.8238,0.8029,0.8221,0.8136,0.7988,0.7988,0.7988,0.7988,0.7988,0.7988,0.7988,0.7988,0.8088,0.8531,0.9509,0.9706,1.0072,1.0848,1.0915,1.0791,1.0481,1.1203,1.1575,1.1419,1.1408,1.1408,1.1408,1.2272,1.2705,1.2705,1.2469,1.2337,1.23,1.1784,1.1537,0.0,-0.4718,0.0,0.0,0.0,0.0,0.0,0.0,0.0,0.0,0.0,0.0,0.0,0.0,0.0,0.0,0.0,0.0,0.0,0.0,0.0,0.0,0.0,0.0,0.0,0.0,0.0,0.0,0.0,0.0,0.0,0.0,0.0,0.0,0.0,0.0,0.0,0.0,0.0,0.0,0.0,0.0,0.0,0.0,0.0,0.0,0.0,0.0,0.0,0.0,0.0,0.0,0.0,0.0152,0.0303,0.0354,0.0657,0.1061,0.1111,0.1817,0.267,0.2772,0.3517,0.4481,0.445,0.531,0.6288,0.6331,0.7162,0.8111,0.8111,0.8321,0.841,0.8069,0.8185,0.8368,0.8368,0.817,0.8002,0.8032,0.8012,0.7988,0.7988,0.7988,0.7988,0.7988,0.7988,0.7988,0.7988,0.8726,0.9361,0.9558,1.0342,1.0912,1.1104,1.1675,1.1838,1.1562,1.2333,1.2645,1.2412,1.2406,1.2406,1.2406,1.2619,1.2705,1.2705,1.265,1.2518,1.2312,1.2198,1.1886,0.0,0.0,0.0,0.0,0.0,0.0,0.0,0.0,0.0,0.0,0.0,0.0,0.0,0.0,0.0,0.0,0.0,0.0,0.0,0.0,0.0,0.0,0.0,0.0,0.0,0.0,0.0,0.0,0.0,0.0,0.0,0.0,0.0,0.0,0.0,0.0,0.0,0.0,0.0,0.0,0.0,0.0,0.0,0.0,0.0,0.0,0.0,0.0,0.0,0.0,0.0051,0.0202,0.0202,0.0354,0.0606,0.0758,0.1262,0.1967,0.2118,0.2972,0.3974,0.3974,0.4708,0.5599,0.5596,0.6366,0.7325,0.7307,0.7798,0.8269,0.8269,0.8269,0.8252,0.8177,0.8218,0.8252,0.8177,0.8096,0.7988,0.7988,0.7988,0.7988,0.7988,0.7988,0.8187,0.8676,0.8775,0.897,0.946,0.9998,1.0534,1.1023,1.156,1.2193,1.2829,1.3093,1.3176,1.3008,1.3254,1.3299,1.3064,1.3045,1.2918,1.2705,1.2705,1.2705,1.2705,1.2705,1.2923,1.3316,1.3181,1.3124,0.0,0.0,0.0,0.0,0.0,0.0,0.0,0.0,0.0,0.0,0.0,0.0,0.0,0.0,0.0,0.0,0.0,0.0,0.0,0.0,0.0,0.0,0.0,0.0,0.0,0.0,0.0,0.0,0.0,0.0,0.0,0.0,0.0,0.0,0.0,0.0,0.0,0.0,0.0,0.0,0.0,0.0,0.0,0.0,0.0,0.0,0.0,0.0051,0.0051,0.0051,0.0202,0.0505,0.0656,0.0908,0.1211,0.1615,0.2318,0.3171,0.3423,0.4175,0.5074,0.5074,0.5779,0.6686,0.6686,0.7288,0.7988,0.7988,0.7988,0.7988,0.7988,0.7988,0.7988,0.7988,0.8136,0.8197,0.8019,0.7988,0.7988,0.7988,0.7988,0.7988,0.7988,0.8137,0.8581,0.946,0.9756,1.0194,1.117,1.1414,1.1853,1.2732,1.3022,1.3559,1.4688,1.4534,1.4364,1.4307,1.3983,1.3703,1.3474,1.3587,1.3428,1.3039,1.3039,1.3039,1.3039,1.3203,1.374,1.4685,1.4433,1.461,0.0,0.0,0.0,0.0,0.0,0.0,0.0,0.0,0.0,0.0,0.0,0.0,0.0,0.0,0.0,0.0,0.0,0.0,0.0,0.0,0.0,0.0,0.0,0.0,0.0,0.0,0.0,0.0,0.0,0.0,0.0,0.0,0.0,0.0,0.0,0.0,0.0,0.0,0.0,0.0,0.0,0.0,0.0,0.0,0.0,0.0,0.0,0.0152,0.0354,0.0354,0.0505,0.0858,0.1764,0.2317,0.2669,0.362,0.4221,0.4524,0.4574,0.5279,0.6184,0.6184,0.6936,0.7789,0.7789,0.7889,0.7988,0.7988,0.7988,0.7988,0.7988,0.7988,0.7988,0.7988,0.8005,0.8015,0.7995,0.7988,0.7988,0.7988,0.7988,0.7988,0.7988,0.8775,0.941,0.9558,1.0391,1.1121,1.1517,1.229,1.2974,1.3366,1.4202,1.4838,1.5035,1.481,1.4625,1.4633,1.4097,1.3792,1.3754,1.4267,1.4496,1.4413,1.4413,1.4413,1.4413,1.5184,1.5632,1.5797,1.5752,1.566,0.0,0.0,0.0,0.0,0.0,0.0,0.0,0.0,0.0,0.0,0.0,0.0,0.0,0.0,0.0,0.0,0.0,0.0,0.0,0.0,0.0,0.0,0.0,0.0,0.0,0.0,0.0,0.0,0.0,0.0,0.0,0.0,0.0,0.0,0.0,0.0231,0.0783,0.0783,0.1059,0.1612,0.1644,0.1669,0.1688,0.1672,0.1049,0.0,0.0152,0.0656,0.131,0.1462,0.2015,0.2868,0.3318,0.367,0.3972,0.4472,0.5074,0.5679,0.5679,0.6384,0.7288,0.7288,0.764,0.7988,0.7988,0.7988,0.7988,0.7988,0.7988,0.7988,0.7988,0.7988,0.7988,0.7988,0.7988,0.7988,0.7988,0.7988,0.8187,0.8775,0.9361,0.9801,0.9801,1.0293,1.0925,1.1463,1.2096,1.2732,1.3468,1.3956,1.425,1.4394,1.4838,1.5178,1.5309,1.524,1.5144,1.5074,1.4682,1.4595,1.4929,1.505,1.5338,1.5827,1.5564,1.5433,1.5433,1.5797,1.6332,1.6952,1.6952,1.709,0.0,0.0,0.0,0.0,0.0,0.0,0.0,0.0,0.0,0.0,0.0,0.0,0.0,0.0,0.0,0.0,0.0,0.0,0.0,0.0,0.0,0.0,0.0,0.0,0.0,0.0,0.0,0.0,0.0584,0.0718,0.0718,0.0718,0.0718,0.0718,0.0718,0.1077,0.1793,0.1793,0.2152,0.2913,0.2878,0.2974,0.3068,0.3034,0.2253,0.0945,0.11,0.1705,0.2614,0.2803,0.3504,0.452,0.4822,0.5024,0.5227,0.5527,0.6129,0.6786,0.6786,0.7338,0.7988,0.7988,0.7988,0.7988,0.7988,0.7988,0.7988,0.7988,0.7988,0.7988,0.7988,0.7988,0.7988,0.7988,0.7988,0.8088,0.8333,0.8382,0.8726,0.9801,1.073,1.1317,1.1317,1.1755,1.2344,1.3071,1.3607,1.4196,1.5077,1.522,1.522,1.5274,1.5267,1.5363,1.554,1.5588,1.5549,1.5518,1.5384,1.5508,1.5915,1.6019,1.637,1.7025,1.6919,1.674,1.6503,1.674,1.7277,1.8109,1.8109,1.8367,0.0,0.0,0.0,0.0,0.0,0.0,0.0,0.0,0.0,0.0,0.0,0.0,0.0,0.0,0.0,0.0,0.0,0.0,0.0,0.0,0.0,0.0,0.0,0.0,0.0,0.0,0.0,0.0,0.2196,0.2732,0.2732,0.2732,0.2732,0.2732,0.2732,0.2778,0.2823,0.2823,0.2867,0.2913,0.2878,0.2998,0.319,0.3208,0.3285,0.3383,0.3302,0.3657,0.4264,0.4143,0.4354,0.4874,0.5882,0.6287,0.6437,0.7437,0.7889,0.7939,0.7939,0.7939,0.7988,0.7988,0.7988,0.7988,0.7988,0.7988,0.7988,0.7988,0.7988,0.7988,0.7988,0.7988,0.7988,0.7988,0.7988,0.8283,0.9316,0.9509,0.985,1.0925,1.1365,1.1565,1.1565,1.2587,1.3414,1.3463,1.4346,1.5124,1.5452,1.5493,1.5547,1.573,1.5784,1.5784,1.5784,1.5784,1.5778,1.5758,1.6077,1.6257,1.6286,1.7306,1.7876,1.7917,1.8727,1.8727,1.7917,1.8727,1.9173,1.9222,1.9222,1.9222,0.0,0.0,0.0,0.0,0.0,0.0,0.0,0.0,0.0,0.0,0.0,0.0,0.0,0.0,0.0,0.0,0.0,0.0,0.0,0.0,0.0,0.0,0.0,0.0,0.0,0.0,0.0,0.0,0.0,0.2911,0.2911,0.2911,0.2911,0.2911,0.2911,0.3181,0.3807,0.4389,0.479,0.4966,0.4956,0.5096,0.5392,0.5386,0.558,0.5879,0.5756,0.5519,0.5181,0.5409,0.5981,0.6764,0.7251,0.7437,0.7487,0.7839,0.7988,0.7988,0.7988,0.7988,0.7988,0.7988,0.7988,0.7988,0.7988,0.7988,0.7988,0.7988,0.7988,0.7988,0.7988,0.7988,0.8187,0.8871,0.9019,0.9509,1.1219,1.1072,1.0974,1.2193,1.3076,1.3661,1.3811,1.4382,1.4765,1.4765,1.5207,1.5594,1.5683,1.5524,1.5458,1.5551,1.5384,1.5351,1.5538,1.5551,1.5905,1.6709,1.6492,1.6971,1.8426,1.8154,1.836,1.92,1.9279,1.9143,1.8856,1.9143,1.9301,1.9301,1.9301,1.9301,0.0,0.0,0.0,0.0,0.0,0.0,0.0,0.0,0.0,0.0,0.0,0.0,0.0,0.0,0.0,0.0,0.0,0.0,0.0,0.0,0.0,0.0,0.0,0.0,0.0,0.0,0.0,0.0,0.0,0.0,0.3851,0.3851,0.3851,0.3851,0.3851,0.4119,0.4748,0.5463,0.5908,0.6083,0.6171,0.6349,0.6659,0.6659,0.6846,0.7158,0.7067,0.6759,0.6314,0.6545,0.7138,0.7828,0.7931,0.7988,0.7988,0.7988,0.7988,0.7988,0.7988,0.7988,0.7988,0.7988,0.7988,0.7988,0.7988,0.7988,0.7988,0.7988,0.7988,0.8088,0.8432,0.8871,0.941,1.0096,1.0337,1.0828,1.2581,1.2387,1.2193,1.3414,1.434,1.5022,1.522,1.5452,1.5588,1.5588,1.573,1.5784,1.5784,1.5578,1.5398,1.5398,1.5402,1.5566,1.5863,1.6158,1.6752,1.7762,1.7574,1.8113,1.9648,1.9035,1.9025,1.9884,1.9512,1.9301,1.9301,1.9301,1.9301,1.9301,1.9301,1.942,0.0,0.0,0.0,0.0,0.0,0.0,0.0,0.0,0.0,0.0,0.0,0.0,0.0,0.0,0.0,0.0,0.0,0.0,0.0,0.0,0.0,0.0,0.0,0.0,0.0,0.0,0.0,0.0,0.5196,0.5688,0.5688,0.5688,0.5688,0.5688,0.5688,0.5733,0.5733,0.5997,0.6127,0.6127,0.6299,0.6567,0.6795,0.6795,0.6925,0.7095,0.7095,0.7264,0.7587,0.759,0.7678,0.7821,0.7924,0.7985,0.7988,0.7988,0.7988,0.7988,0.7988,0.7988,0.7988,0.7988,0.7988,0.7988,0.7988,0.7988,0.7988,0.8038,0.8038,0.8283,0.941,1.0632,1.1614,1.1663,1.1804,1.2242,1.3318,1.3366,1.3463,1.4538,1.5159,1.5493,1.5493,1.5683,1.5784,1.5784,1.5784,1.5778,1.5771,1.5565,1.543,1.5424,1.5953,1.6507,1.6867,1.7725,1.8377,1.8802,1.9362,1.9701,1.9745,1.9844,1.9893,1.9893,1.9512,1.9301,1.9301,1.9301,1.9301,1.9301,1.9301,1.9657,0.0,0.0,0.0,0.0,0.0,0.0,0.0,0.0,0.0,0.0,0.0,0.0,0.0,0.0,0.0,0.0,0.0,0.0,0.0,0.0,0.0,0.0,0.0,0.0,0.0,0.0,0.0,0.0,0.5555,0.5688,0.5688,0.5688,0.5688,0.5688,0.5908,0.5997,0.5997,0.6213,0.6435,0.6618,0.6659,0.6789,0.701,0.701,0.7054,0.7095,0.7095,0.7142,0.723,0.7387,0.7522,0.7672,0.7818,0.7891,0.7988,0.7988,0.7988,0.7988,0.7988,0.7988,0.7988,0.7988,0.7988,0.7988,0.7988,0.7988,0.8187,0.8924,0.9316,0.9706,1.0974,1.156,1.1999,1.278,1.3022,1.3366,1.4442,1.4729,1.4914,1.5207,1.5397,1.554,1.5689,1.5778,1.5784,1.5784,1.5784,1.5752,1.5545,1.5843,1.609,1.612,1.6656,1.7149,1.744,1.7979,1.8625,1.9401,1.9628,2.0009,2.0665,2.018,1.9893,1.9893,1.9512,1.939,1.9518,1.939,1.9301,1.9301,1.9736,2.005,0.0,0.0,0.0,0.0,0.0,0.0,0.0549,0.0784,0.0,0.0,0.0,0.0,0.0,0.0,0.0,0.0,0.0,0.0,0.0,0.0,0.0,0.0,0.0,0.0,0.0,0.5688,0.5688,0.5688,0.5688,0.5733,0.5863,0.5949,0.5994,0.5994,0.6124,0.6213,0.6213,0.6435,0.6656,0.6795,0.6881,0.6966,0.7095,0.7095,0.7095,0.7095,0.7095,0.7095,0.7102,0.7238,0.7366,0.7526,0.7729,0.7865,0.7901,0.7968,0.7988,0.7988,0.7988,0.7988,0.7988,0.7988,0.7988,0.8088,0.8676,0.8825,0.9069,1.0239,1.0974,1.1609,1.2387,1.2969,1.3547,1.419,1.4382,1.4627,1.5261,1.5499,1.5588,1.554,1.5588,1.5642,1.5784,1.5784,1.5784,1.5784,1.5784,1.5812,1.5925,1.6154,1.6382,1.6669,1.7241,1.7721,1.804,1.8799,1.9521,2.0263,2.0563,2.0969,2.1505,2.0815,2.0462,2.0462,1.9845,1.9775,2.0235,1.9618,1.9529,1.9952,2.0391,2.0857,0.0,0.0,0.0,0.0,0.0,0.0,0.1449,0.1996,0.2503,0.0,0.0,0.0,0.0,0.0,0.0,0.0,0.0,0.0,0.0,0.0,0.0,0.0,0.0,0.0,0.5688,0.5733,0.5733,0.5733,0.5777,0.5863,0.6127,0.6299,0.6384,0.6384,0.6432,0.6432,0.6432,0.67,0.6836,0.6836,0.701,0.7095,0.7095,0.7095,0.7095,0.7095,0.7095,0.7095,0.7095,0.7095,0.7231,0.7446,0.7678,0.7797,0.7831,0.7934,0.7988,0.8041,0.8137,0.8187,0.8187,0.8333,0.8382,0.8627,0.985,1.0194,1.0485,1.175,1.2872,1.3752,1.3752,1.4621,1.554,1.554,1.5683,1.5784,1.5784,1.5758,1.5697,1.5581,1.5683,1.5784,1.5784,1.5846,1.5927,1.5967,1.6001,1.6185,1.6715,1.6669,1.6743,1.7204,1.7845,1.8374,1.8719,1.9823,2.0692,2.0995,2.1636,2.1982,2.1935,2.1429,2.1129,2.1205,2.055,2.0537,2.125,2.0138,2.0099,2.0991,2.1308,2.1928,0.0,0.0,0.0,0.0,0.0,0.0,0.227,0.2387,0.2503,0.0,0.0,0.0,0.0,0.0,0.0,0.0,0.0,0.0,0.0,0.0,0.0,0.0,0.0,0.0,0.5688,0.5908,0.6041,0.6041,0.6169,0.6299,0.6343,0.6387,0.6384,0.6384,0.6612,0.6704,0.6704,0.6922,0.7054,0.7054,0.7098,0.7095,0.7095,0.7095,0.7095,0.7095,0.7095,0.7095,0.7095,0.7095,0.7231,0.7436,0.757,0.7709,0.7831,0.7934,0.7988,0.8137,0.897,0.9266,0.946,1.0534,1.0881,1.0974,1.1409,1.1512,1.1799,1.3151,1.4274,1.5153,1.5296,1.554,1.573,1.573,1.5784,1.5784,1.5784,1.5645,1.5551,1.569,1.5784,1.5784,1.5784,1.6178,1.665,1.6962,1.7145,1.7297,1.7484,1.7833,1.8146,1.8288,1.9056,1.9548,1.9629,2.0324,2.0652,2.037,2.1011,2.1221,2.0913,2.0784,2.0841,2.1095,2.1752,2.2065,2.2065,2.1838,2.18,2.2027,2.2611,2.2995,0.0,0.0,0.0,0.2387,0.0,0.0,0.0,0.3443,0.3756,0.3756,0.0,0.0,0.0,0.0,0.0,0.0,0.0,0.0,0.0,0.0,0.0,0.0,0.0,0.0,0.5944,0.6078,0.6189,0.6251,0.6479,0.6612,0.6612,0.6697,0.6741,0.6741,0.6877,0.6966,0.6966,0.7054,0.7095,0.7095,0.7095,0.7095,0.7095,0.7095,0.7095,0.7095,0.7095,0.7095,0.7095,0.7095,0.745,0.7904,0.7695,0.7685,0.7876,0.8568,0.8775,0.897,1.0194,1.0587,1.073,1.1512,1.1755,1.1901,1.2668,1.3349,1.3957,1.4496,1.5132,1.5683,1.5784,1.5784,1.5784,1.5784,1.5784,1.5927,1.644,1.629,1.6246,1.6863,1.6854,1.6613,1.6316,1.6753,1.722,1.7439,1.7528,1.7711,1.7997,1.8507,1.8842,1.8952,1.9512,1.9842,1.9771,2.0194,2.0456,2.0423,2.1015,2.124,2.1062,2.1318,2.1657,2.2059,2.2888,2.3294,2.3184,2.3588,2.3551,2.3073,2.3522,2.3875,0.0,0.0,0.0,0.0,0.0,0.4034,0.0,0.0,0.0,0.5084,0.0,0.0,0.0,0.0,0.0,0.0,0.0,0.0,0.0,0.0,0.0,0.0,0.0,0.0,0.0,0.6224,0.6334,0.6508,0.6722,0.681,0.6836,0.6983,0.7068,0.7095,0.7095,0.7095,0.7095,0.7095,0.7095,0.7095,0.7095,0.7095,0.7095,0.7095,0.7095,0.7095,0.7272,0.736,0.7404,0.7577,0.812,0.8798,0.8096,0.7998,0.8405,0.9437,0.9869,1.0089,1.1453,1.1915,1.2047,1.2484,1.2592,1.2806,1.3914,1.4959,1.5712,1.5531,1.5651,1.5784,1.5784,1.5784,1.5825,1.6062,1.6109,1.6325,1.7292,1.715,1.7139,1.7953,1.787,1.7494,1.6982,1.7383,1.7813,1.7993,1.797,1.8117,1.8724,1.9029,1.9241,1.9335,1.9684,1.9839,1.9664,2.0014,2.0363,2.0764,2.1254,2.1611,2.1765,2.2403,2.2868,2.3217,2.3938,2.4337,2.4337,2.4969,2.4898,2.4084,2.4311,2.4598,0.0,0.0,0.0,0.0,0.4781,0.0,0.0,0.0,0.5313,0.5428,0.0,0.0,0.0,0.0,0.0,0.0,0.0,0.0,0.0,0.0,0.0,0.0,0.0,0.0,0.0,0.6332,0.6677,0.6997,0.6937,0.692,0.7044,0.6977,0.6967,0.7092,0.7095,0.7095,0.7095,0.7095,0.7095,0.7095,0.7095,0.7095,0.7095,0.7095,0.7095,0.7139,0.7973,0.8324,0.8412,0.9231,0.986,1.0161,0.9087,0.9162,0.9976,1.0408,1.074,1.1187,1.2472,1.309,1.3463,1.4717,1.5034,1.5066,1.5461,1.5504,1.5491,1.5718,1.5758,1.5784,1.5784,1.5784,1.6015,1.6904,1.7138,1.7292,1.7962,1.7843,1.7592,1.7672,1.781,1.7854,1.7553,1.8022,1.8651,1.9355,1.9246,1.9394,2.0147,1.9829,1.954,1.9576,1.9752,1.988,1.9872,2.0146,2.0596,2.1351,2.1622,2.2102,2.2784,2.3538,2.3922,2.3963,2.4743,2.5158,2.5158,2.5276,2.5229,2.5123,2.517,2.5206,0.0,0.0,0.0,0.0,0.0,0.0,0.5246,0.0,0.5683,0.0,0.0,0.0,0.0,0.0,0.0,0.0,0.5829,0.0,0.0,0.0,0.0,0.0,0.0,0.0,0.0,0.0,0.0,0.0,0.6831,0.6861,0.6967,0.6875,0.6859,0.7088,0.7018,0.7014,0.7095,0.7095,0.736,0.7929,0.7929,0.8189,0.8707,0.8707,0.8707,0.875,0.9144,0.9405,0.9579,0.9966,1.0633,1.1331,1.085,1.0692,1.0833,1.1517,1.2033,1.2476,1.3748,1.4399,1.4771,1.5445,1.5651,1.5611,1.5391,1.5478,1.5565,1.5177,1.5311,1.5711,1.6302,1.6433,1.6707,1.7871,1.8003,1.8054,1.8892,1.8582,1.8296,1.8853,1.8825,1.8714,1.8622,1.8798,1.9092,1.9422,1.938,1.947,1.99,1.9975,1.999,2.0151,2.0271,2.0531,2.1145,2.1073,2.1385,2.2322,2.2435,2.2835,2.361,2.3938,2.4337,2.4791,2.5123,2.5312,2.5312,2.5312,2.5312,2.5312,2.5312,2.5312,0.5205,0.0,0.0,0.0,0.0,0.0,0.0,0.0,0.0,0.0,0.0,0.0,0.0,0.0,0.0,0.0,0.0,0.0,0.0,0.0,0.0,0.0,0.0,0.0,0.0,0.0,0.0,0.7353,0.711,0.7033,0.7151,0.7051,0.7104,0.7414,0.7533,0.7677,0.7878,0.7881,0.8229,0.8886,0.8886,0.9231,0.9879,0.9879,0.9923,1.0009,1.0269,1.0534,1.0788,1.1047,1.166,1.2485,1.2485,1.2226,1.2002,1.2749,1.3312,1.38,1.4783,1.5297,1.5588,1.5737,1.5724,1.5631,1.5211,1.5317,1.5504,1.5076,1.5294,1.5917,1.6987,1.7274,1.756,1.8771,1.8823,1.8802,1.9574,1.9312,1.9041,1.9607,1.9604,1.9476,1.9556,1.9556,1.9556,1.9546,1.9626,1.9715,1.9844,2.0083,2.0396,2.0787,2.0906,2.1323,2.2281,2.2095,2.2322,2.3243,2.35,2.3866,2.442,2.4409,2.4707,2.5276,2.5444,2.5528,2.5528,2.5685,2.5757,2.5709,2.5444,2.5382,0.0,0.0,0.0,0.5618,0.0,0.0,0.0,0.0,0.6315,0.0,0.0,0.0,0.0,0.0,0.0,0.0,0.0,0.0,0.0,0.0,0.0,0.0,0.0,0.0,0.0,0.0,0.0,0.9014,0.8163,0.7745,0.7843,0.7721,0.787,0.8268,0.903,0.9545,0.9788,0.9792,0.9836,0.9836,0.9836,0.9879,0.9879,0.9879,1.0053,1.0356,1.1235,1.1757,1.2015,1.2918,1.3434,1.3652,1.3652,1.3792,1.4021,1.4126,1.4539,1.5068,1.5305,1.5538,1.5778,1.5784,1.5638,1.5404,1.5391,1.5197,1.5208,1.5999,1.6264,1.6573,1.7835,1.8153,1.8414,1.9453,1.9665,1.9678,1.9837,1.9861,1.9765,1.9402,1.96,1.9947,2.0201,2.0283,2.0242,2.0183,2.0386,2.0548,2.0557,2.0415,2.0586,2.1367,2.1634,2.208,2.2905,2.2968,2.3279,2.4011,2.4791,2.5229,2.5276,2.5276,2.5276,2.5312,2.5817,2.6069,2.6069,2.661,2.6837,2.6813,2.5793,2.5629,0.0,0.0,0.6002,0.6087,0.0,0.0,0.0,0.0,0.0,0.0,0.0,0.0,0.0,0.0,0.0,0.0,0.0,0.0,0.0,0.0,0.0,0.0,0.0,0.0,0.0,0.0,0.0,0.8824,0.8531,0.842,0.8573,0.8443,0.8577,0.9096,0.9276,0.9531,0.9874,0.9879,1.0313,1.1106,1.1106,1.1488,1.2217,1.2217,1.2266,1.2351,1.2705,1.2918,1.313,1.3476,1.3737,1.3955,1.3955,1.4117,1.4362,1.4183,1.4515,1.5073,1.5505,1.5698,1.5784,1.5784,1.5631,1.5449,1.5875,1.5913,1.5964,1.6422,1.6877,1.7473,1.8597,1.8847,1.9167,2.0341,2.0236,1.9871,2.0062,1.9876,1.9684,1.9694,2.0042,2.0373,2.0495,2.0835,2.0961,2.0533,2.0535,2.0744,2.1153,2.135,2.1861,2.2807,2.273,2.304,2.4108,2.4399,2.4788,2.5395,2.5672,2.5829,2.5829,2.5829,2.5829,2.5829,2.6009,2.6457,2.7213,2.7679,2.8083,2.8469,2.8379,2.8094,0.6007,0.6219,0.0,0.638,0.6387,0.0,0.632,0.0,0.6767,0.0,0.0,0.0,0.0,0.0,0.0,0.0,0.0,0.0,0.0,0.9986,0.0,0.0,0.0,0.0,0.0,0.0,0.9566,0.9566,0.9344,0.9253,0.0,0.0,0.9457,0.9907,1.0116,1.0502,1.1047,1.1052,1.1445,1.2314,1.2314,1.2705,1.3398,1.3398,1.344,1.3519,1.3519,1.361,1.3822,1.3822,1.3955,1.4088,1.4088,1.4262,1.4496,1.4309,1.4616,1.519,1.5665,1.5758,1.5671,1.5671,1.5703,1.576,1.6022,1.6351,1.6642,1.687,1.7425,1.8161,1.9284,1.9656,1.9922,2.0924,2.0652,2.0133,2.0096,1.9893,1.9792,2.0101,2.0608,2.1079,2.1316,2.1916,2.2109,2.125,2.1201,2.1481,2.2178,2.2377,2.286,2.3928,2.3679,2.3818,2.4885,2.5171,2.554,2.6069,2.5925,2.5901,2.6093,2.5913,2.5937,2.6215,2.6396,2.7115,2.8422,2.8869,2.9434,3.0107,3.0556,3.0521]}]]